<?xml version="1.0" encoding="UTF-8" standalone="no" ?>
<gpx xmlns="http://www.topografix.com/GPX/1/1" xmlns:xsi="http://www.w3.org/2001/XMLSchema-instance" xsi:schemaLocation="http://www.topografix.com/GPX/1/1 http://www.topografix.com/GPX/1/1/gpx.xsd" version="1.1" creator="VisuGPX - https://www.visugpx.com">
  <metadata>
    <name>boue roger 2019 30 km</name>
    <desc><![CDATA[trace officielle de ce très beau parcours VTT 2019]]></desc>
  </metadata>
  <trk>
    <name><![CDATA[BR 30 km 2019]]></name>
    <trkseg>
      <trkpt lat="49.28994" lon="0.9234">
        <ele>144.110001</ele>
        <time>2019-01-10T08:12:35Z</time>
      </trkpt>
      <trkpt lat="49.2897" lon="0.92301">
        <ele>145.161621</ele>
      </trkpt>
      <trkpt lat="49.29023" lon="0.92255">
        <ele>144.204376</ele>
      </trkpt>
      <trkpt lat="49.29068" lon="0.92216">
        <ele>143.395004</ele>
      </trkpt>
      <trkpt lat="49.2917" lon="0.9216">
        <ele>142.095001</ele>
      </trkpt>
      <trkpt lat="49.29236" lon="0.92125">
        <ele>141</ele>
      </trkpt>
      <trkpt lat="49.29415" lon="0.9208">
        <ele>138.630005</ele>
      </trkpt>
      <trkpt lat="49.29564" lon="0.92009">
        <ele>135.88588</ele>
      </trkpt>
      <trkpt lat="49.29632" lon="0.91993">
        <ele>134.770004</ele>
      </trkpt>
      <trkpt lat="49.2977" lon="0.91989">
        <ele>132.889557</ele>
        <time>2019-01-10T08:12:45Z</time>
      </trkpt>
      <trkpt lat="49.29876" lon="0.91946">
        <ele>131.364502</ele>
        <time>2019-01-10T08:12:54Z</time>
      </trkpt>
      <trkpt lat="49.29949" lon="0.9191">
        <ele>130.561249</ele>
        <time>2019-01-10T08:13:01Z</time>
      </trkpt>
      <trkpt lat="49.29965" lon="0.91905">
        <ele>130.491257</ele>
        <time>2019-01-10T08:13:03Z</time>
      </trkpt>
      <trkpt lat="49.2997" lon="0.91905">
        <ele>130.487503</ele>
        <time>2019-01-10T08:13:04Z</time>
      </trkpt>
      <trkpt lat="49.29979" lon="0.91909">
        <ele>130.553131</ele>
        <time>2019-01-10T08:13:06Z</time>
      </trkpt>
      <trkpt lat="49.29982" lon="0.91913">
        <ele>130.615005</ele>
        <time>2019-01-10T08:13:07Z</time>
      </trkpt>
      <trkpt lat="49.29985" lon="0.91921">
        <ele>130.730621</ele>
        <time>2019-01-10T08:13:08Z</time>
      </trkpt>
      <trkpt lat="49.29987" lon="0.91937">
        <ele>130.960632</ele>
        <time>2019-01-10T08:13:10Z</time>
      </trkpt>
      <trkpt lat="49.29988" lon="0.91941">
        <ele>131.016876</ele>
        <time>2019-01-10T08:13:11Z</time>
      </trkpt>
      <trkpt lat="49.29994" lon="0.91945">
        <ele>131.075623</ele>
        <time>2019-01-10T08:13:14Z</time>
      </trkpt>
      <trkpt lat="49.30022" lon="0.91933">
        <ele>130.921249</ele>
        <time>2019-01-10T08:18:52Z</time>
      </trkpt>
      <trkpt lat="49.30046" lon="0.91926">
        <ele>131.282501</ele>
        <time>2019-01-10T08:18:58Z</time>
      </trkpt>
      <trkpt lat="49.30084" lon="0.91914">
        <ele>131.667496</ele>
        <time>2019-01-10T08:19:07Z</time>
      </trkpt>
      <trkpt lat="49.30123" lon="0.91903">
        <ele>131.69313</ele>
        <time>2019-01-10T08:19:16Z</time>
      </trkpt>
      <trkpt lat="49.30127" lon="0.91902">
        <ele>131.784378</ele>
        <time>2019-01-10T08:19:17Z</time>
      </trkpt>
      <trkpt lat="49.30131" lon="0.91901">
        <ele>131.865005</ele>
        <time>2019-01-10T08:19:18Z</time>
      </trkpt>
      <trkpt lat="49.3017" lon="0.9189">
        <ele>132.351868</ele>
        <time>2019-01-10T08:19:27Z</time>
      </trkpt>
      <trkpt lat="49.30206" lon="0.91879">
        <ele>132.220154</ele>
        <time>2019-01-10T08:19:35Z</time>
      </trkpt>
      <trkpt lat="49.3024" lon="0.9187">
        <ele>132.148087</ele>
        <time>2019-01-10T08:19:43Z</time>
      </trkpt>
      <trkpt lat="49.30284" lon="0.91858">
        <ele>132.645203</ele>
        <time>2019-01-10T08:19:52Z</time>
      </trkpt>
      <trkpt lat="49.30325" lon="0.91845">
        <ele>132.508743</ele>
        <time>2019-01-10T08:20:01Z</time>
      </trkpt>
      <trkpt lat="49.3033" lon="0.91843">
        <ele>132.470001</ele>
        <time>2019-01-10T08:20:02Z</time>
      </trkpt>
      <trkpt lat="49.30334" lon="0.91842">
        <ele>132.440002</ele>
        <time>2019-01-10T08:20:03Z</time>
      </trkpt>
      <trkpt lat="49.30338" lon="0.91841">
        <ele>132.399994</ele>
        <time>2019-01-10T08:20:04Z</time>
      </trkpt>
      <trkpt lat="49.30343" lon="0.91839">
        <ele>132.393188</ele>
        <time>2019-01-10T08:20:05Z</time>
      </trkpt>
      <trkpt lat="49.30348" lon="0.91838">
        <ele>132.397552</ele>
        <time>2019-01-10T08:20:06Z</time>
      </trkpt>
      <trkpt lat="49.30362" lon="0.91834">
        <ele>132.421875</ele>
        <time>2019-01-10T08:20:09Z</time>
      </trkpt>
      <trkpt lat="49.30407" lon="0.91822">
        <ele>132.461243</ele>
        <time>2019-01-10T08:20:18Z</time>
      </trkpt>
      <trkpt lat="49.30436" lon="0.91813">
        <ele>132.169998</ele>
        <time>2019-01-10T08:20:24Z</time>
      </trkpt>
      <trkpt lat="49.30441" lon="0.91811">
        <ele>132.033752</ele>
        <time>2019-01-10T08:20:25Z</time>
      </trkpt>
      <trkpt lat="49.30446" lon="0.9181">
        <ele>131.90625</ele>
        <time>2019-01-10T08:20:26Z</time>
      </trkpt>
      <trkpt lat="49.30491" lon="0.91797">
        <ele>131.07373</ele>
        <time>2019-01-10T08:20:35Z</time>
      </trkpt>
      <trkpt lat="49.3051" lon="0.91791">
        <ele>131.009079</ele>
        <time>2019-01-10T08:20:39Z</time>
      </trkpt>
      <trkpt lat="49.30556" lon="0.91778">
        <ele>130.02063</ele>
        <time>2019-01-10T08:20:48Z</time>
      </trkpt>
      <trkpt lat="49.30606" lon="0.91764">
        <ele>129.024078</ele>
        <time>2019-01-10T08:20:58Z</time>
      </trkpt>
      <trkpt lat="49.30617" lon="0.91762">
        <ele>128.930573</ele>
        <time>2019-01-10T08:21:01Z</time>
      </trkpt>
      <trkpt lat="49.30621" lon="0.91761">
        <ele>128.894806</ele>
        <time>2019-01-10T08:21:02Z</time>
      </trkpt>
      <trkpt lat="49.30626" lon="0.91759">
        <ele>128.845734</ele>
        <time>2019-01-10T08:21:03Z</time>
      </trkpt>
      <trkpt lat="49.30631" lon="0.91757">
        <ele>128.797867</ele>
        <time>2019-01-10T08:21:04Z</time>
      </trkpt>
      <trkpt lat="49.30636" lon="0.91756">
        <ele>128.744537</ele>
        <time>2019-01-10T08:21:05Z</time>
      </trkpt>
      <trkpt lat="49.3064" lon="0.91755">
        <ele>128.685333</ele>
        <time>2019-01-10T08:21:06Z</time>
      </trkpt>
      <trkpt lat="49.3069" lon="0.91741">
        <ele>127.538124</ele>
        <time>2019-01-10T08:21:16Z</time>
      </trkpt>
      <trkpt lat="49.30742" lon="0.91725">
        <ele>127.177299</ele>
        <time>2019-01-10T08:21:26Z</time>
      </trkpt>
      <trkpt lat="49.30796" lon="0.91709">
        <ele>126.755623</ele>
        <time>2019-01-10T08:21:36Z</time>
      </trkpt>
      <trkpt lat="49.30844" lon="0.91696">
        <ele>125.232498</ele>
        <time>2019-01-10T08:21:45Z</time>
      </trkpt>
      <trkpt lat="49.30849" lon="0.91695">
        <ele>124.990623</ele>
        <time>2019-01-10T08:21:46Z</time>
      </trkpt>
      <trkpt lat="49.30873" lon="0.91687">
        <ele>123.808128</ele>
        <time>2019-01-10T08:21:51Z</time>
      </trkpt>
      <trkpt lat="49.30912" lon="0.91678">
        <ele>121.62693</ele>
        <time>2019-01-10T08:21:58Z</time>
      </trkpt>
      <trkpt lat="49.30965" lon="0.91663">
        <ele>119.026009</ele>
        <time>2019-01-10T08:22:07Z</time>
      </trkpt>
      <trkpt lat="49.31004" lon="0.91651">
        <ele>118.135002</ele>
        <time>2019-01-10T08:22:14Z</time>
      </trkpt>
      <trkpt lat="49.31016" lon="0.91647">
        <ele>118.082947</ele>
        <time>2019-01-10T08:22:16Z</time>
      </trkpt>
      <trkpt lat="49.3102" lon="0.91645">
        <ele>118.165825</ele>
        <time>2019-01-10T08:22:17Z</time>
      </trkpt>
      <trkpt lat="49.31024" lon="0.91642">
        <ele>118.24559</ele>
        <time>2019-01-10T08:22:18Z</time>
      </trkpt>
      <trkpt lat="49.31026" lon="0.91638">
        <ele>118.323441</ele>
        <time>2019-01-10T08:22:19Z</time>
      </trkpt>
      <trkpt lat="49.31028" lon="0.91634">
        <ele>118.447166</ele>
        <time>2019-01-10T08:22:20Z</time>
      </trkpt>
      <trkpt lat="49.3103" lon="0.9163">
        <ele>118.584953</ele>
        <time>2019-01-10T08:22:21Z</time>
      </trkpt>
      <trkpt lat="49.31033" lon="0.91627">
        <ele>118.693741</ele>
        <time>2019-01-10T08:22:22Z</time>
      </trkpt>
      <trkpt lat="49.31036" lon="0.91624">
        <ele>118.81131</ele>
        <time>2019-01-10T08:22:23Z</time>
      </trkpt>
      <trkpt lat="49.31037" lon="0.91621">
        <ele>118.909286</ele>
        <time>2019-01-10T08:22:24Z</time>
      </trkpt>
      <trkpt lat="49.31038" lon="0.91617">
        <ele>118.993118</ele>
        <time>2019-01-10T08:22:25Z</time>
      </trkpt>
      <trkpt lat="49.31037" lon="0.91612">
        <ele>119.081741</ele>
        <time>2019-01-10T08:22:26Z</time>
      </trkpt>
      <trkpt lat="49.31034" lon="0.91605">
        <ele>119.189751</ele>
        <time>2019-01-10T08:22:27Z</time>
      </trkpt>
      <trkpt lat="49.31033" lon="0.91601">
        <ele>119.270256</ele>
        <time>2019-01-10T08:22:28Z</time>
      </trkpt>
      <trkpt lat="49.3103" lon="0.91595">
        <ele>119.374275</ele>
        <time>2019-01-10T08:22:29Z</time>
      </trkpt>
      <trkpt lat="49.31028" lon="0.91589">
        <ele>119.505112</ele>
        <time>2019-01-10T08:22:30Z</time>
      </trkpt>
      <trkpt lat="49.31026" lon="0.91582">
        <ele>119.652657</ele>
        <time>2019-01-10T08:22:31Z</time>
      </trkpt>
      <trkpt lat="49.31023" lon="0.91568">
        <ele>119.993591</ele>
        <time>2019-01-10T08:22:33Z</time>
      </trkpt>
      <trkpt lat="49.31015" lon="0.91546">
        <ele>120.622498</ele>
        <time>2019-01-10T08:22:36Z</time>
      </trkpt>
      <trkpt lat="49.31014" lon="0.91539">
        <ele>120.822502</ele>
        <time>2019-01-10T08:22:37Z</time>
      </trkpt>
      <trkpt lat="49.31012" lon="0.91533">
        <ele>121.021248</ele>
        <time>2019-01-10T08:22:38Z</time>
      </trkpt>
      <trkpt lat="49.31009" lon="0.91526">
        <ele>121.214996</ele>
        <time>2019-01-10T08:22:39Z</time>
      </trkpt>
      <trkpt lat="49.31006" lon="0.9152">
        <ele>121.392502</ele>
        <time>2019-01-10T08:22:40Z</time>
      </trkpt>
      <trkpt lat="49.31004" lon="0.91514">
        <ele>121.580002</ele>
        <time>2019-01-10T08:22:41Z</time>
      </trkpt>
      <trkpt lat="49.30997" lon="0.91485">
        <ele>122.41375</ele>
        <time>2019-01-10T08:22:46Z</time>
      </trkpt>
      <trkpt lat="49.3099" lon="0.91453">
        <ele>123.357498</ele>
        <time>2019-01-10T08:22:52Z</time>
      </trkpt>
      <trkpt lat="49.30978" lon="0.91409">
        <ele>124.526497</ele>
        <time>2019-01-10T08:22:59Z</time>
      </trkpt>
      <trkpt lat="49.30962" lon="0.91369">
        <ele>125.809219</ele>
        <time>2019-01-10T08:23:06Z</time>
      </trkpt>
      <trkpt lat="49.30955" lon="0.91347">
        <ele>126.036423</ele>
        <time>2019-01-10T08:23:10Z</time>
      </trkpt>
      <trkpt lat="49.30953" lon="0.91341">
        <ele>126.064751</ele>
        <time>2019-01-10T08:23:11Z</time>
      </trkpt>
      <trkpt lat="49.30938" lon="0.913">
        <ele>126.4692</ele>
        <time>2019-01-10T08:23:18Z</time>
      </trkpt>
      <trkpt lat="49.30933" lon="0.91271">
        <ele>126.963753</ele>
        <time>2019-01-10T08:23:23Z</time>
      </trkpt>
      <trkpt lat="49.30929" lon="0.91237">
        <ele>127.561249</ele>
        <time>2019-01-10T08:23:29Z</time>
      </trkpt>
      <trkpt lat="49.30925" lon="0.91215">
        <ele>127.812408</ele>
        <time>2019-01-10T08:23:33Z</time>
      </trkpt>
      <trkpt lat="49.30922" lon="0.91209">
        <ele>127.88472</ele>
        <time>2019-01-10T08:23:34Z</time>
      </trkpt>
      <trkpt lat="49.30914" lon="0.91192">
        <ele>128.012589</ele>
        <time>2019-01-10T08:23:37Z</time>
      </trkpt>
      <trkpt lat="49.30913" lon="0.91187">
        <ele>128.029282</ele>
        <time>2019-01-10T08:23:38Z</time>
      </trkpt>
      <trkpt lat="49.30901" lon="0.91152">
        <ele>128.37088</ele>
        <time>2019-01-10T08:23:45Z</time>
      </trkpt>
      <trkpt lat="49.30891" lon="0.91115">
        <ele>128.821152</ele>
        <time>2019-01-10T08:23:52Z</time>
      </trkpt>
      <trkpt lat="49.30889" lon="0.9111">
        <ele>128.874054</ele>
        <time>2019-01-10T08:23:53Z</time>
      </trkpt>
      <trkpt lat="49.3088" lon="0.91076">
        <ele>129.203751</ele>
        <time>2019-01-10T08:23:59Z</time>
      </trkpt>
      <trkpt lat="49.30876" lon="0.91058">
        <ele>129.470627</ele>
        <time>2019-01-10T08:24:03Z</time>
      </trkpt>
      <trkpt lat="49.30865" lon="0.91024">
        <ele>129.973709</ele>
        <time>2019-01-10T08:24:09Z</time>
      </trkpt>
      <trkpt lat="49.30861" lon="0.91004">
        <ele>130.266251</ele>
        <time>2019-01-10T08:24:13Z</time>
      </trkpt>
      <trkpt lat="49.30853" lon="0.90972">
        <ele>130.734375</ele>
        <time>2019-01-10T08:24:19Z</time>
      </trkpt>
      <trkpt lat="49.30842" lon="0.90939">
        <ele>131</ele>
        <time>2019-01-10T08:24:25Z</time>
      </trkpt>
      <trkpt lat="49.30832" lon="0.90919">
        <ele>131</ele>
        <time>2019-01-10T08:24:29Z</time>
      </trkpt>
      <trkpt lat="49.30831" lon="0.90912">
        <ele>131</ele>
        <time>2019-01-10T08:24:31Z</time>
      </trkpt>
      <trkpt lat="49.30831" lon="0.90905">
        <ele>131</ele>
        <time>2019-01-10T08:24:32Z</time>
      </trkpt>
      <trkpt lat="49.30831" lon="0.909">
        <ele>131</ele>
        <time>2019-01-10T08:24:33Z</time>
      </trkpt>
      <trkpt lat="49.3083" lon="0.90895">
        <ele>131</ele>
        <time>2019-01-10T08:24:34Z</time>
      </trkpt>
      <trkpt lat="49.30829" lon="0.9089">
        <ele>131</ele>
        <time>2019-01-10T08:24:35Z</time>
      </trkpt>
      <trkpt lat="49.30827" lon="0.90886">
        <ele>131</ele>
        <time>2019-01-10T08:24:36Z</time>
      </trkpt>
      <trkpt lat="49.30824" lon="0.90883">
        <ele>131.002029</ele>
        <time>2019-01-10T08:24:37Z</time>
      </trkpt>
      <trkpt lat="49.30821" lon="0.9088">
        <ele>131</ele>
        <time>2019-01-10T08:24:38Z</time>
      </trkpt>
      <trkpt lat="49.30819" lon="0.90876">
        <ele>131</ele>
        <time>2019-01-10T08:24:39Z</time>
      </trkpt>
      <trkpt lat="49.30817" lon="0.90872">
        <ele>131</ele>
        <time>2019-01-10T08:24:40Z</time>
      </trkpt>
      <trkpt lat="49.30815" lon="0.90868">
        <ele>131</ele>
        <time>2019-01-10T08:24:41Z</time>
      </trkpt>
      <trkpt lat="49.30813" lon="0.90864">
        <ele>131</ele>
        <time>2019-01-10T08:24:42Z</time>
      </trkpt>
      <trkpt lat="49.30811" lon="0.9086">
        <ele>131</ele>
        <time>2019-01-10T08:24:43Z</time>
      </trkpt>
      <trkpt lat="49.3081" lon="0.90855">
        <ele>131</ele>
        <time>2019-01-10T08:24:44Z</time>
      </trkpt>
      <trkpt lat="49.30808" lon="0.9085">
        <ele>131</ele>
        <time>2019-01-10T08:24:45Z</time>
      </trkpt>
      <trkpt lat="49.30805" lon="0.90844">
        <ele>131</ele>
        <time>2019-01-10T08:24:46Z</time>
      </trkpt>
      <trkpt lat="49.30803" lon="0.90839">
        <ele>131</ele>
        <time>2019-01-10T08:24:47Z</time>
      </trkpt>
      <trkpt lat="49.308" lon="0.90835">
        <ele>131</ele>
        <time>2019-01-10T08:24:48Z</time>
      </trkpt>
      <trkpt lat="49.30798" lon="0.9083">
        <ele>131</ele>
        <time>2019-01-10T08:24:49Z</time>
      </trkpt>
      <trkpt lat="49.30796" lon="0.90824">
        <ele>131</ele>
        <time>2019-01-10T08:24:50Z</time>
      </trkpt>
      <trkpt lat="49.30794" lon="0.90819">
        <ele>131</ele>
        <time>2019-01-10T08:24:51Z</time>
      </trkpt>
      <trkpt lat="49.30793" lon="0.90814">
        <ele>130.959381</ele>
        <time>2019-01-10T08:24:52Z</time>
      </trkpt>
      <trkpt lat="49.3078" lon="0.90778">
        <ele>130.476013</ele>
        <time>2019-01-10T08:24:58Z</time>
      </trkpt>
      <trkpt lat="49.30768" lon="0.90735">
        <ele>129.655396</ele>
        <time>2019-01-10T08:25:05Z</time>
      </trkpt>
      <trkpt lat="49.30765" lon="0.90722">
        <ele>129.465607</ele>
        <time>2019-01-10T08:25:07Z</time>
      </trkpt>
      <trkpt lat="49.30763" lon="0.90716">
        <ele>129.375763</ele>
        <time>2019-01-10T08:25:08Z</time>
      </trkpt>
      <trkpt lat="49.30762" lon="0.9071">
        <ele>129.305862</ele>
        <time>2019-01-10T08:25:09Z</time>
      </trkpt>
      <trkpt lat="49.30762" lon="0.90705">
        <ele>129.251099</ele>
        <time>2019-01-10T08:25:10Z</time>
      </trkpt>
      <trkpt lat="49.30763" lon="0.90699">
        <ele>129.19339</ele>
        <time>2019-01-10T08:25:11Z</time>
      </trkpt>
      <trkpt lat="49.30764" lon="0.90694">
        <ele>129.137222</ele>
        <time>2019-01-10T08:25:12Z</time>
      </trkpt>
      <trkpt lat="49.30765" lon="0.90688">
        <ele>129.077515</ele>
        <time>2019-01-10T08:25:13Z</time>
      </trkpt>
      <trkpt lat="49.30766" lon="0.90682">
        <ele>129.009674</ele>
        <time>2019-01-10T08:25:14Z</time>
      </trkpt>
      <trkpt lat="49.30774" lon="0.90651">
        <ele>129.007782</ele>
        <time>2019-01-10T08:25:19Z</time>
      </trkpt>
      <trkpt lat="49.30776" lon="0.90644">
        <ele>129.080536</ele>
        <time>2019-01-10T08:25:20Z</time>
      </trkpt>
      <trkpt lat="49.30784" lon="0.9062">
        <ele>129.246124</ele>
        <time>2019-01-10T08:25:24Z</time>
      </trkpt>
      <trkpt lat="49.30786" lon="0.90614">
        <ele>129.278442</ele>
        <time>2019-01-10T08:25:25Z</time>
      </trkpt>
      <trkpt lat="49.30797" lon="0.9058">
        <ele>129.782776</ele>
        <time>2019-01-10T08:25:31Z</time>
      </trkpt>
      <trkpt lat="49.308" lon="0.90574">
        <ele>129.924484</ele>
        <time>2019-01-10T08:25:32Z</time>
      </trkpt>
      <trkpt lat="49.30802" lon="0.90567">
        <ele>130.079117</ele>
        <time>2019-01-10T08:25:33Z</time>
      </trkpt>
      <trkpt lat="49.30805" lon="0.90561">
        <ele>130.227142</ele>
        <time>2019-01-10T08:25:34Z</time>
      </trkpt>
      <trkpt lat="49.30814" lon="0.90531">
        <ele>130.86261</ele>
        <time>2019-01-10T08:25:39Z</time>
      </trkpt>
      <trkpt lat="49.30822" lon="0.9051">
        <ele>131.115005</ele>
        <time>2019-01-10T08:25:44Z</time>
      </trkpt>
      <trkpt lat="49.30825" lon="0.90505">
        <ele>131.164993</ele>
        <time>2019-01-10T08:25:45Z</time>
      </trkpt>
      <trkpt lat="49.30826" lon="0.905">
        <ele>131.210007</ele>
        <time>2019-01-10T08:25:46Z</time>
      </trkpt>
      <trkpt lat="49.30829" lon="0.90494">
        <ele>131.255005</ele>
        <time>2019-01-10T08:25:47Z</time>
      </trkpt>
      <trkpt lat="49.30831" lon="0.90488">
        <ele>131.309998</ele>
        <time>2019-01-10T08:25:48Z</time>
      </trkpt>
      <trkpt lat="49.30833" lon="0.90483">
        <ele>131.365005</ele>
        <time>2019-01-10T08:25:49Z</time>
      </trkpt>
      <trkpt lat="49.30836" lon="0.90477">
        <ele>131.429993</ele>
        <time>2019-01-10T08:25:50Z</time>
      </trkpt>
      <trkpt lat="49.30851" lon="0.90442">
        <ele>132.211868</ele>
        <time>2019-01-10T08:25:56Z</time>
      </trkpt>
      <trkpt lat="49.30865" lon="0.90407">
        <ele>133.035629</ele>
        <time>2019-01-10T08:26:02Z</time>
      </trkpt>
      <trkpt lat="49.30883" lon="0.90358">
        <ele>133.494995</ele>
        <time>2019-01-10T08:26:10Z</time>
      </trkpt>
      <trkpt lat="49.30891" lon="0.9034">
        <ele>133.690002</ele>
        <time>2019-01-10T08:26:14Z</time>
      </trkpt>
      <trkpt lat="49.309" lon="0.90317">
        <ele>134.137497</ele>
        <time>2019-01-10T08:26:18Z</time>
      </trkpt>
      <trkpt lat="49.30902" lon="0.90311">
        <ele>134.278122</ele>
        <time>2019-01-10T08:26:19Z</time>
      </trkpt>
      <trkpt lat="49.30903" lon="0.90304">
        <ele>134.405624</ele>
        <time>2019-01-10T08:26:20Z</time>
      </trkpt>
      <trkpt lat="49.30905" lon="0.90298">
        <ele>134.516251</ele>
        <time>2019-01-10T08:26:21Z</time>
      </trkpt>
      <trkpt lat="49.30908" lon="0.90293">
        <ele>134.595001</ele>
        <time>2019-01-10T08:26:22Z</time>
      </trkpt>
      <trkpt lat="49.30911" lon="0.90288">
        <ele>134.669373</ele>
        <time>2019-01-10T08:26:23Z</time>
      </trkpt>
      <trkpt lat="49.30913" lon="0.90282">
        <ele>134.748123</ele>
        <time>2019-01-10T08:26:24Z</time>
      </trkpt>
      <trkpt lat="49.30916" lon="0.90277">
        <ele>134.827499</ele>
        <time>2019-01-10T08:26:25Z</time>
      </trkpt>
      <trkpt lat="49.30932" lon="0.90242">
        <ele>134.675003</ele>
        <time>2019-01-10T08:26:31Z</time>
      </trkpt>
      <trkpt lat="49.30936" lon="0.90238">
        <ele>134.612503</ele>
        <time>2019-01-10T08:26:32Z</time>
      </trkpt>
      <trkpt lat="49.30942" lon="0.90235">
        <ele>134.576874</ele>
        <time>2019-01-10T08:26:33Z</time>
      </trkpt>
      <trkpt lat="49.30946" lon="0.90234">
        <ele>134.567505</ele>
        <time>2019-01-10T08:26:34Z</time>
      </trkpt>
      <trkpt lat="49.30952" lon="0.90234">
        <ele>134.477051</ele>
        <time>2019-01-10T08:26:35Z</time>
      </trkpt>
      <trkpt lat="49.30957" lon="0.90235">
        <ele>134.299362</ele>
        <time>2019-01-10T08:26:36Z</time>
      </trkpt>
      <trkpt lat="49.31006" lon="0.90229">
        <ele>132.617691</ele>
        <time>2019-01-10T08:26:44Z</time>
      </trkpt>
      <trkpt lat="49.31073" lon="0.90221">
        <ele>130.649994</ele>
        <time>2019-01-10T08:26:55Z</time>
      </trkpt>
      <trkpt lat="49.31114" lon="0.90216">
        <ele>130.371246</ele>
        <time>2019-01-10T08:27:02Z</time>
      </trkpt>
      <trkpt lat="49.31125" lon="0.90215">
        <ele>130.35437</ele>
        <time>2019-01-10T08:27:04Z</time>
      </trkpt>
      <trkpt lat="49.3113" lon="0.90214">
        <ele>130.375381</ele>
        <time>2019-01-10T08:27:05Z</time>
      </trkpt>
      <trkpt lat="49.31136" lon="0.90213">
        <ele>130.455994</ele>
        <time>2019-01-10T08:27:06Z</time>
      </trkpt>
      <trkpt lat="49.31142" lon="0.90212">
        <ele>130.532959</ele>
        <time>2019-01-10T08:27:07Z</time>
      </trkpt>
      <trkpt lat="49.31148" lon="0.90211">
        <ele>130.612625</ele>
        <time>2019-01-10T08:27:08Z</time>
      </trkpt>
      <trkpt lat="49.31186" lon="0.90206">
        <ele>131.279999</ele>
        <time>2019-01-10T08:27:15Z</time>
      </trkpt>
      <trkpt lat="49.31223" lon="0.90202">
        <ele>132</ele>
        <time>2019-01-10T08:27:23Z</time>
      </trkpt>
      <trkpt lat="49.31247" lon="0.90199">
        <ele>132</ele>
        <time>2019-01-10T08:27:29Z</time>
      </trkpt>
      <trkpt lat="49.31276" lon="0.90198">
        <ele>132</ele>
        <time>2019-01-10T08:27:36Z</time>
      </trkpt>
      <trkpt lat="49.31306" lon="0.90197">
        <ele>132</ele>
        <time>2019-01-10T08:27:42Z</time>
      </trkpt>
      <trkpt lat="49.31351" lon="0.90194">
        <ele>131.029999</ele>
        <time>2019-01-10T08:27:51Z</time>
      </trkpt>
      <trkpt lat="49.31397" lon="0.9019">
        <ele>131</ele>
        <time>2019-01-10T08:28:00Z</time>
      </trkpt>
      <trkpt lat="49.31443" lon="0.90186">
        <ele>132</ele>
        <time>2019-01-10T08:28:09Z</time>
      </trkpt>
      <trkpt lat="49.31455" lon="0.90185">
        <ele>132</ele>
        <time>2019-01-10T08:28:11Z</time>
      </trkpt>
      <trkpt lat="49.31466" lon="0.90183">
        <ele>132</ele>
        <time>2019-01-10T08:28:13Z</time>
      </trkpt>
      <trkpt lat="49.31472" lon="0.90183">
        <ele>132</ele>
        <time>2019-01-10T08:28:14Z</time>
      </trkpt>
      <trkpt lat="49.31507" lon="0.90181">
        <ele>131.994293</ele>
        <time>2019-01-10T08:28:20Z</time>
      </trkpt>
      <trkpt lat="49.31554" lon="0.90177">
        <ele>131.521027</ele>
        <time>2019-01-10T08:28:28Z</time>
      </trkpt>
      <trkpt lat="49.31588" lon="0.90175">
        <ele>131.035629</ele>
        <time>2019-01-10T08:28:35Z</time>
      </trkpt>
      <trkpt lat="49.31617" lon="0.90171">
        <ele>131.080002</ele>
        <time>2019-01-10T08:28:41Z</time>
      </trkpt>
      <trkpt lat="49.31629" lon="0.90169">
        <ele>130.933746</ele>
        <time>2019-01-10T08:28:45Z</time>
      </trkpt>
      <trkpt lat="49.31632" lon="0.90171">
        <ele>130.855621</ele>
        <time>2019-01-10T08:28:46Z</time>
      </trkpt>
      <trkpt lat="49.31633" lon="0.90174">
        <ele>130.780624</ele>
        <time>2019-01-10T08:28:47Z</time>
      </trkpt>
      <trkpt lat="49.31634" lon="0.90177">
        <ele>130.718124</ele>
        <time>2019-01-10T08:28:48Z</time>
      </trkpt>
      <trkpt lat="49.31635" lon="0.9018">
        <ele>130.654999</ele>
        <time>2019-01-10T08:28:49Z</time>
      </trkpt>
      <trkpt lat="49.31635" lon="0.90184">
        <ele>130.583755</ele>
        <time>2019-01-10T08:28:50Z</time>
      </trkpt>
      <trkpt lat="49.31635" lon="0.90189">
        <ele>130.518127</ele>
        <time>2019-01-10T08:28:51Z</time>
      </trkpt>
      <trkpt lat="49.31635" lon="0.90194">
        <ele>130.45813</ele>
        <time>2019-01-10T08:28:52Z</time>
      </trkpt>
      <trkpt lat="49.31634" lon="0.90198">
        <ele>130.41687</ele>
        <time>2019-01-10T08:28:53Z</time>
      </trkpt>
      <trkpt lat="49.31633" lon="0.90203">
        <ele>130.375626</ele>
        <time>2019-01-10T08:28:54Z</time>
      </trkpt>
      <trkpt lat="49.31632" lon="0.90209">
        <ele>130.313126</ele>
        <time>2019-01-10T08:28:55Z</time>
      </trkpt>
      <trkpt lat="49.31631" lon="0.90215">
        <ele>130.236252</ele>
        <time>2019-01-10T08:28:56Z</time>
      </trkpt>
      <trkpt lat="49.3163" lon="0.90227">
        <ele>130.095627</ele>
        <time>2019-01-10T08:28:58Z</time>
      </trkpt>
      <trkpt lat="49.31625" lon="0.90251">
        <ele>129.867508</ele>
        <time>2019-01-10T08:29:03Z</time>
      </trkpt>
      <trkpt lat="49.31623" lon="0.90274">
        <ele>129.583755</ele>
        <time>2019-01-10T08:29:08Z</time>
      </trkpt>
      <trkpt lat="49.31618" lon="0.90304">
        <ele>129.271255</ele>
        <time>2019-01-10T08:29:13Z</time>
      </trkpt>
      <trkpt lat="49.31613" lon="0.90336">
        <ele>129.240005</ele>
        <time>2019-01-10T08:29:19Z</time>
      </trkpt>
      <trkpt lat="49.31611" lon="0.90365">
        <ele>129.300003</ele>
        <time>2019-01-10T08:29:26Z</time>
      </trkpt>
      <trkpt lat="49.31607" lon="0.90391">
        <ele>129.395004</ele>
        <time>2019-01-10T08:29:31Z</time>
      </trkpt>
      <trkpt lat="49.31599" lon="0.90423">
        <ele>129.565002</ele>
        <time>2019-01-10T08:29:37Z</time>
      </trkpt>
      <trkpt lat="49.31596" lon="0.90448">
        <ele>129.654999</ele>
        <time>2019-01-10T08:29:44Z</time>
      </trkpt>
      <trkpt lat="49.31592" lon="0.90472">
        <ele>129.740005</ele>
        <time>2019-01-10T08:29:50Z</time>
      </trkpt>
      <trkpt lat="49.31589" lon="0.90501">
        <ele>129.809998</ele>
        <time>2019-01-10T08:29:57Z</time>
      </trkpt>
      <trkpt lat="49.31591" lon="0.90509">
        <ele>129.779999</ele>
        <time>2019-01-10T08:30:00Z</time>
      </trkpt>
      <trkpt lat="49.316" lon="0.90517">
        <ele>129.570007</ele>
        <time>2019-01-10T08:30:06Z</time>
      </trkpt>
      <trkpt lat="49.3162" lon="0.90523">
        <ele>129.134995</ele>
        <time>2019-01-10T08:30:12Z</time>
      </trkpt>
      <trkpt lat="49.31636" lon="0.90528">
        <ele>129</ele>
        <time>2019-01-10T08:30:18Z</time>
      </trkpt>
      <trkpt lat="49.31648" lon="0.90534">
        <ele>129</ele>
        <time>2019-01-10T08:30:23Z</time>
      </trkpt>
      <trkpt lat="49.31661" lon="0.90536">
        <ele>129</ele>
        <time>2019-01-10T08:30:28Z</time>
      </trkpt>
      <trkpt lat="49.3167" lon="0.90544">
        <ele>129</ele>
        <time>2019-01-10T08:30:33Z</time>
      </trkpt>
      <trkpt lat="49.31672" lon="0.90551">
        <ele>128.989426</ele>
        <time>2019-01-10T08:30:37Z</time>
      </trkpt>
      <trkpt lat="49.31674" lon="0.90553">
        <ele>128.970261</ele>
        <time>2019-01-10T08:30:38Z</time>
      </trkpt>
      <trkpt lat="49.31678" lon="0.90556">
        <ele>128.932312</ele>
        <time>2019-01-10T08:30:41Z</time>
      </trkpt>
      <trkpt lat="49.3168" lon="0.90556">
        <ele>128.910416</ele>
        <time>2019-01-10T08:30:42Z</time>
      </trkpt>
      <trkpt lat="49.31682" lon="0.90555">
        <ele>128.892334</ele>
        <time>2019-01-10T08:30:43Z</time>
      </trkpt>
      <trkpt lat="49.31683" lon="0.90554">
        <ele>128.871979</ele>
        <time>2019-01-10T08:30:44Z</time>
      </trkpt>
      <trkpt lat="49.31685" lon="0.90552">
        <ele>128.849731</ele>
        <time>2019-01-10T08:30:45Z</time>
      </trkpt>
      <trkpt lat="49.31686" lon="0.90551">
        <ele>128.82634</ele>
        <time>2019-01-10T08:30:46Z</time>
      </trkpt>
      <trkpt lat="49.31688" lon="0.9055">
        <ele>128.804718</ele>
        <time>2019-01-10T08:30:47Z</time>
      </trkpt>
      <trkpt lat="49.3169" lon="0.9055">
        <ele>128.780655</ele>
        <time>2019-01-10T08:30:48Z</time>
      </trkpt>
      <trkpt lat="49.31693" lon="0.90551">
        <ele>128.750031</ele>
        <time>2019-01-10T08:30:49Z</time>
      </trkpt>
      <trkpt lat="49.31696" lon="0.90551">
        <ele>128.720352</ele>
        <time>2019-01-10T08:30:50Z</time>
      </trkpt>
      <trkpt lat="49.31704" lon="0.90554">
        <ele>128.65271</ele>
        <time>2019-01-10T08:30:52Z</time>
      </trkpt>
      <trkpt lat="49.31709" lon="0.90555">
        <ele>128.627197</ele>
        <time>2019-01-10T08:30:53Z</time>
      </trkpt>
      <trkpt lat="49.31712" lon="0.90556">
        <ele>128.60141</ele>
        <time>2019-01-10T08:30:54Z</time>
      </trkpt>
      <trkpt lat="49.31727" lon="0.90561">
        <ele>128.485779</ele>
        <time>2019-01-10T08:30:59Z</time>
      </trkpt>
      <trkpt lat="49.3174" lon="0.90565">
        <ele>128.336655</ele>
        <time>2019-01-10T08:31:05Z</time>
      </trkpt>
      <trkpt lat="49.31755" lon="0.90567">
        <ele>128.106308</ele>
        <time>2019-01-10T08:31:11Z</time>
      </trkpt>
      <trkpt lat="49.31772" lon="0.90577">
        <ele>128</ele>
        <time>2019-01-10T08:31:18Z</time>
      </trkpt>
      <trkpt lat="49.31777" lon="0.90583">
        <ele>128</ele>
        <time>2019-01-10T08:31:21Z</time>
      </trkpt>
      <trkpt lat="49.31778" lon="0.90584">
        <ele>128</ele>
        <time>2019-01-10T08:31:22Z</time>
      </trkpt>
      <trkpt lat="49.31779" lon="0.90585">
        <ele>128.013123</ele>
        <time>2019-01-10T08:31:23Z</time>
      </trkpt>
      <trkpt lat="49.3178" lon="0.90587">
        <ele>128.035004</ele>
        <time>2019-01-10T08:31:24Z</time>
      </trkpt>
      <trkpt lat="49.31781" lon="0.90589">
        <ele>128.066879</ele>
        <time>2019-01-10T08:31:25Z</time>
      </trkpt>
      <trkpt lat="49.31782" lon="0.90591">
        <ele>128.095001</ele>
        <time>2019-01-10T08:31:26Z</time>
      </trkpt>
      <trkpt lat="49.31784" lon="0.90592">
        <ele>128.115005</ele>
        <time>2019-01-10T08:31:27Z</time>
      </trkpt>
      <trkpt lat="49.31786" lon="0.90593">
        <ele>128.132507</ele>
        <time>2019-01-10T08:31:28Z</time>
      </trkpt>
      <trkpt lat="49.3179" lon="0.90595">
        <ele>128.163757</ele>
        <time>2019-01-10T08:31:30Z</time>
      </trkpt>
      <trkpt lat="49.31795" lon="0.90597">
        <ele>128.1875</ele>
        <time>2019-01-10T08:31:32Z</time>
      </trkpt>
      <trkpt lat="49.31806" lon="0.90604">
        <ele>128.297501</ele>
        <time>2019-01-10T08:31:38Z</time>
      </trkpt>
      <trkpt lat="49.31819" lon="0.9061">
        <ele>128.392502</ele>
        <time>2019-01-10T08:31:44Z</time>
      </trkpt>
      <trkpt lat="49.3182" lon="0.9061">
        <ele>128.384995</ele>
        <time>2019-01-10T08:31:45Z</time>
      </trkpt>
      <trkpt lat="49.31823" lon="0.90609">
        <ele>128.36937</ele>
        <time>2019-01-10T08:31:46Z</time>
      </trkpt>
      <trkpt lat="49.31826" lon="0.90608">
        <ele>128.360001</ele>
        <time>2019-01-10T08:31:47Z</time>
      </trkpt>
      <trkpt lat="49.31829" lon="0.90608">
        <ele>128.356873</ele>
        <time>2019-01-10T08:31:48Z</time>
      </trkpt>
      <trkpt lat="49.31831" lon="0.90607">
        <ele>128.355621</ele>
        <time>2019-01-10T08:31:49Z</time>
      </trkpt>
      <trkpt lat="49.31833" lon="0.90607">
        <ele>128.348755</ele>
        <time>2019-01-10T08:31:50Z</time>
      </trkpt>
      <trkpt lat="49.31838" lon="0.90606">
        <ele>128.339996</ele>
        <time>2019-01-10T08:31:52Z</time>
      </trkpt>
      <trkpt lat="49.3184" lon="0.90605">
        <ele>128.327499</ele>
        <time>2019-01-10T08:31:53Z</time>
      </trkpt>
      <trkpt lat="49.31842" lon="0.90605">
        <ele>128.320007</ele>
        <time>2019-01-10T08:31:54Z</time>
      </trkpt>
      <trkpt lat="49.31844" lon="0.90604">
        <ele>128.3125</ele>
        <time>2019-01-10T08:31:55Z</time>
      </trkpt>
      <trkpt lat="49.31847" lon="0.90604">
        <ele>128.3125</ele>
        <time>2019-01-10T08:31:56Z</time>
      </trkpt>
      <trkpt lat="49.31849" lon="0.90604">
        <ele>128.319382</ele>
        <time>2019-01-10T08:31:57Z</time>
      </trkpt>
      <trkpt lat="49.31858" lon="0.90606">
        <ele>128.348129</ele>
        <time>2019-01-10T08:32:02Z</time>
      </trkpt>
      <trkpt lat="49.31868" lon="0.90612">
        <ele>128.445007</ele>
        <time>2019-01-10T08:32:08Z</time>
      </trkpt>
      <trkpt lat="49.31878" lon="0.90617">
        <ele>128.512497</ele>
        <time>2019-01-10T08:32:13Z</time>
      </trkpt>
      <trkpt lat="49.31886" lon="0.9062">
        <ele>128.556244</ele>
        <time>2019-01-10T08:32:18Z</time>
      </trkpt>
      <trkpt lat="49.31888" lon="0.90619">
        <ele>128.552505</ele>
        <time>2019-01-10T08:32:19Z</time>
      </trkpt>
      <trkpt lat="49.31891" lon="0.90619">
        <ele>128.554382</ele>
        <time>2019-01-10T08:32:20Z</time>
      </trkpt>
      <trkpt lat="49.31905" lon="0.90622">
        <ele>128.675491</ele>
        <time>2019-01-10T08:32:26Z</time>
      </trkpt>
      <trkpt lat="49.31923" lon="0.90631">
        <ele>128.885513</ele>
        <time>2019-01-10T08:32:32Z</time>
      </trkpt>
      <trkpt lat="49.31931" lon="0.90634">
        <ele>128.949036</ele>
        <time>2019-01-10T08:32:37Z</time>
      </trkpt>
      <trkpt lat="49.31941" lon="0.90638">
        <ele>128.995224</ele>
        <time>2019-01-10T08:32:45Z</time>
      </trkpt>
      <trkpt lat="49.31944" lon="0.90639">
        <ele>129</ele>
        <time>2019-01-10T08:32:47Z</time>
      </trkpt>
      <trkpt lat="49.31945" lon="0.9064">
        <ele>129</ele>
        <time>2019-01-10T08:32:48Z</time>
      </trkpt>
      <trkpt lat="49.31947" lon="0.90641">
        <ele>129</ele>
        <time>2019-01-10T08:32:49Z</time>
      </trkpt>
      <trkpt lat="49.31948" lon="0.90643">
        <ele>129</ele>
        <time>2019-01-10T08:32:50Z</time>
      </trkpt>
      <trkpt lat="49.3195" lon="0.90645">
        <ele>129</ele>
        <time>2019-01-10T08:32:51Z</time>
      </trkpt>
      <trkpt lat="49.31952" lon="0.90647">
        <ele>129</ele>
        <time>2019-01-10T08:32:52Z</time>
      </trkpt>
      <trkpt lat="49.31954" lon="0.90648">
        <ele>129</ele>
        <time>2019-01-10T08:32:53Z</time>
      </trkpt>
      <trkpt lat="49.31958" lon="0.90649">
        <ele>129.018127</ele>
        <time>2019-01-10T08:32:58Z</time>
      </trkpt>
      <trkpt lat="49.31963" lon="0.90652">
        <ele>129.055618</ele>
        <time>2019-01-10T08:33:06Z</time>
      </trkpt>
      <trkpt lat="49.31966" lon="0.90653">
        <ele>129.069382</ele>
        <time>2019-01-10T08:33:11Z</time>
      </trkpt>
      <trkpt lat="49.31968" lon="0.9065">
        <ele>129.024368</ele>
        <time>2019-01-10T08:33:14Z</time>
      </trkpt>
      <trkpt lat="49.31974" lon="0.90637">
        <ele>129</ele>
        <time>2019-01-10T08:33:19Z</time>
      </trkpt>
      <trkpt lat="49.31975" lon="0.90636">
        <ele>129</ele>
        <time>2019-01-10T08:33:20Z</time>
      </trkpt>
      <trkpt lat="49.31977" lon="0.90636">
        <ele>129</ele>
        <time>2019-01-10T08:33:21Z</time>
      </trkpt>
      <trkpt lat="49.31979" lon="0.90637">
        <ele>129</ele>
        <time>2019-01-10T08:33:22Z</time>
      </trkpt>
      <trkpt lat="49.3198" lon="0.90637">
        <ele>129</ele>
        <time>2019-01-10T08:33:23Z</time>
      </trkpt>
      <trkpt lat="49.31983" lon="0.90638">
        <ele>129</ele>
        <time>2019-01-10T08:33:24Z</time>
      </trkpt>
      <trkpt lat="49.32003" lon="0.90641">
        <ele>129.369995</ele>
        <time>2019-01-10T08:33:29Z</time>
      </trkpt>
      <trkpt lat="49.32041" lon="0.90651">
        <ele>130.014618</ele>
        <time>2019-01-10T08:33:36Z</time>
      </trkpt>
      <trkpt lat="49.3207" lon="0.9066">
        <ele>130.180573</ele>
        <time>2019-01-10T08:33:41Z</time>
      </trkpt>
      <trkpt lat="49.32113" lon="0.90671">
        <ele>130.881165</ele>
        <time>2019-01-10T08:33:49Z</time>
      </trkpt>
      <trkpt lat="49.32118" lon="0.90673">
        <ele>130.947906</ele>
        <time>2019-01-10T08:33:50Z</time>
      </trkpt>
      <trkpt lat="49.32127" lon="0.90677">
        <ele>131</ele>
        <time>2019-01-10T08:33:52Z</time>
      </trkpt>
      <trkpt lat="49.32153" lon="0.90686">
        <ele>131</ele>
        <time>2019-01-10T08:33:59Z</time>
      </trkpt>
      <trkpt lat="49.32175" lon="0.90693">
        <ele>131</ele>
        <time>2019-01-10T08:34:05Z</time>
      </trkpt>
      <trkpt lat="49.32196" lon="0.90703">
        <ele>131</ele>
        <time>2019-01-10T08:34:11Z</time>
      </trkpt>
      <trkpt lat="49.32219" lon="0.9071">
        <ele>131</ele>
        <time>2019-01-10T08:34:17Z</time>
      </trkpt>
      <trkpt lat="49.32247" lon="0.90718">
        <ele>131</ele>
        <time>2019-01-10T08:34:24Z</time>
      </trkpt>
      <trkpt lat="49.32255" lon="0.9072">
        <ele>131</ele>
        <time>2019-01-10T08:34:26Z</time>
      </trkpt>
      <trkpt lat="49.3228" lon="0.90727">
        <ele>131</ele>
        <time>2019-01-10T08:34:32Z</time>
      </trkpt>
      <trkpt lat="49.3231" lon="0.9074">
        <ele>131</ele>
        <time>2019-01-10T08:34:39Z</time>
      </trkpt>
      <trkpt lat="49.32342" lon="0.90751">
        <ele>131</ele>
        <time>2019-01-10T08:34:47Z</time>
      </trkpt>
      <trkpt lat="49.32344" lon="0.90753">
        <ele>131</ele>
        <time>2019-01-10T08:34:48Z</time>
      </trkpt>
      <trkpt lat="49.32345" lon="0.90756">
        <ele>131</ele>
        <time>2019-01-10T08:34:49Z</time>
      </trkpt>
      <trkpt lat="49.32348" lon="0.90778">
        <ele>131</ele>
        <time>2019-01-10T08:34:55Z</time>
      </trkpt>
      <trkpt lat="49.32345" lon="0.90805">
        <ele>131</ele>
        <time>2019-01-10T08:35:00Z</time>
      </trkpt>
      <trkpt lat="49.32343" lon="0.90825">
        <ele>131</ele>
        <time>2019-01-10T08:35:03Z</time>
      </trkpt>
      <trkpt lat="49.32343" lon="0.90832">
        <ele>131</ele>
        <time>2019-01-10T08:35:04Z</time>
      </trkpt>
      <trkpt lat="49.32344" lon="0.90839">
        <ele>131</ele>
        <time>2019-01-10T08:35:05Z</time>
      </trkpt>
      <trkpt lat="49.32344" lon="0.90844">
        <ele>130.98819</ele>
        <time>2019-01-10T08:35:06Z</time>
      </trkpt>
      <trkpt lat="49.32345" lon="0.90849">
        <ele>130.930435</ele>
        <time>2019-01-10T08:35:07Z</time>
      </trkpt>
      <trkpt lat="49.32344" lon="0.90852">
        <ele>130.883652</ele>
        <time>2019-01-10T08:35:08Z</time>
      </trkpt>
      <trkpt lat="49.32344" lon="0.90856">
        <ele>130.845123</ele>
        <time>2019-01-10T08:35:09Z</time>
      </trkpt>
      <trkpt lat="49.32343" lon="0.9086">
        <ele>130.788803</ele>
        <time>2019-01-10T08:35:10Z</time>
      </trkpt>
      <trkpt lat="49.32343" lon="0.90866">
        <ele>130.720001</ele>
        <time>2019-01-10T08:35:11Z</time>
      </trkpt>
      <trkpt lat="49.32343" lon="0.90871">
        <ele>130.659943</ele>
        <time>2019-01-10T08:35:12Z</time>
      </trkpt>
      <trkpt lat="49.32343" lon="0.90876">
        <ele>130.596878</ele>
        <time>2019-01-10T08:35:13Z</time>
      </trkpt>
      <trkpt lat="49.32338" lon="0.909">
        <ele>130.396896</ele>
        <time>2019-01-10T08:35:17Z</time>
      </trkpt>
      <trkpt lat="49.32337" lon="0.90913">
        <ele>130.281876</ele>
        <time>2019-01-10T08:35:19Z</time>
      </trkpt>
      <trkpt lat="49.32334" lon="0.9096">
        <ele>129.660004</ele>
        <time>2019-01-10T08:35:26Z</time>
      </trkpt>
      <trkpt lat="49.32336" lon="0.90965">
        <ele>129.551254</ele>
        <time>2019-01-10T08:35:27Z</time>
      </trkpt>
      <trkpt lat="49.32335" lon="0.90971">
        <ele>129.478745</ele>
        <time>2019-01-10T08:35:28Z</time>
      </trkpt>
      <trkpt lat="49.32334" lon="0.90977">
        <ele>129.423126</ele>
        <time>2019-01-10T08:35:29Z</time>
      </trkpt>
      <trkpt lat="49.32334" lon="0.90981">
        <ele>129.376251</ele>
        <time>2019-01-10T08:35:30Z</time>
      </trkpt>
      <trkpt lat="49.32333" lon="0.90985">
        <ele>129.327499</ele>
        <time>2019-01-10T08:35:31Z</time>
      </trkpt>
      <trkpt lat="49.32334" lon="0.90988">
        <ele>129.262497</ele>
        <time>2019-01-10T08:35:32Z</time>
      </trkpt>
      <trkpt lat="49.32334" lon="0.90992">
        <ele>129.198746</ele>
        <time>2019-01-10T08:35:33Z</time>
      </trkpt>
      <trkpt lat="49.32335" lon="0.90995">
        <ele>129.143753</ele>
        <time>2019-01-10T08:35:34Z</time>
      </trkpt>
      <trkpt lat="49.32341" lon="0.91005">
        <ele>128.865631</ele>
        <time>2019-01-10T08:35:37Z</time>
      </trkpt>
      <trkpt lat="49.32344" lon="0.91008">
        <ele>128.751251</ele>
        <time>2019-01-10T08:35:38Z</time>
      </trkpt>
      <trkpt lat="49.32371" lon="0.91021">
        <ele>127.945</ele>
        <time>2019-01-10T08:35:43Z</time>
      </trkpt>
      <trkpt lat="49.32409" lon="0.91039">
        <ele>127.131248</ele>
        <time>2019-01-10T08:35:49Z</time>
      </trkpt>
      <trkpt lat="49.3246" lon="0.91059">
        <ele>126.394379</ele>
        <time>2019-01-10T08:35:57Z</time>
      </trkpt>
      <trkpt lat="49.32512" lon="0.91079">
        <ele>124.928123</ele>
        <time>2019-01-10T08:36:05Z</time>
      </trkpt>
      <trkpt lat="49.32537" lon="0.91089">
        <ele>124.013977</ele>
        <time>2019-01-10T08:36:10Z</time>
      </trkpt>
      <trkpt lat="49.32545" lon="0.91093">
        <ele>123.456451</ele>
        <time>2019-01-10T08:36:12Z</time>
      </trkpt>
      <trkpt lat="49.3255" lon="0.91094">
        <ele>123.151581</ele>
        <time>2019-01-10T08:36:13Z</time>
      </trkpt>
      <trkpt lat="49.32554" lon="0.91095">
        <ele>122.860306</ele>
        <time>2019-01-10T08:36:14Z</time>
      </trkpt>
      <trkpt lat="49.32558" lon="0.91097">
        <ele>122.566895</ele>
        <time>2019-01-10T08:36:15Z</time>
      </trkpt>
      <trkpt lat="49.32561" lon="0.911">
        <ele>122.317184</ele>
        <time>2019-01-10T08:36:16Z</time>
      </trkpt>
      <trkpt lat="49.32581" lon="0.91109">
        <ele>120.974998</ele>
        <time>2019-01-10T08:36:20Z</time>
      </trkpt>
      <trkpt lat="49.32594" lon="0.91113">
        <ele>120.58046</ele>
        <time>2019-01-10T08:36:22Z</time>
      </trkpt>
      <trkpt lat="49.32605" lon="0.91118">
        <ele>120.207275</ele>
        <time>2019-01-10T08:36:24Z</time>
      </trkpt>
      <trkpt lat="49.3264" lon="0.9113">
        <ele>119.306999</ele>
        <time>2019-01-10T08:36:30Z</time>
      </trkpt>
      <trkpt lat="49.3266" lon="0.9114">
        <ele>118.736237</ele>
        <time>2019-01-10T08:36:35Z</time>
      </trkpt>
      <trkpt lat="49.32669" lon="0.91147">
        <ele>118.383934</ele>
        <time>2019-01-10T08:36:37Z</time>
      </trkpt>
      <trkpt lat="49.32681" lon="0.9116">
        <ele>118.005699</ele>
        <time>2019-01-10T08:36:40Z</time>
      </trkpt>
      <trkpt lat="49.32685" lon="0.91164">
        <ele>117.922508</ele>
        <time>2019-01-10T08:36:41Z</time>
      </trkpt>
      <trkpt lat="49.32701" lon="0.9118">
        <ele>117.67141</ele>
        <time>2019-01-10T08:36:46Z</time>
      </trkpt>
      <trkpt lat="49.32709" lon="0.91189">
        <ele>117.585243</ele>
        <time>2019-01-10T08:36:48Z</time>
      </trkpt>
      <trkpt lat="49.32712" lon="0.91194">
        <ele>117.48999</ele>
        <time>2019-01-10T08:36:49Z</time>
      </trkpt>
      <trkpt lat="49.32716" lon="0.91207">
        <ele>117.152435</ele>
        <time>2019-01-10T08:36:51Z</time>
      </trkpt>
      <trkpt lat="49.32721" lon="0.91229">
        <ele>116.617935</ele>
        <time>2019-01-10T08:36:54Z</time>
      </trkpt>
      <trkpt lat="49.32737" lon="0.91251">
        <ele>116.268127</ele>
        <time>2019-01-10T08:36:59Z</time>
      </trkpt>
      <trkpt lat="49.32747" lon="0.91274">
        <ele>115.455002</ele>
        <time>2019-01-10T08:37:03Z</time>
      </trkpt>
      <trkpt lat="49.32758" lon="0.91288">
        <ele>115.103127</ele>
        <time>2019-01-10T08:37:06Z</time>
      </trkpt>
      <trkpt lat="49.32771" lon="0.91296">
        <ele>114.086693</ele>
        <time>2019-01-10T08:37:09Z</time>
      </trkpt>
      <trkpt lat="49.32787" lon="0.91311">
        <ele>112.784142</ele>
        <time>2019-01-10T08:37:13Z</time>
      </trkpt>
      <trkpt lat="49.32797" lon="0.91318">
        <ele>112.197937</ele>
        <time>2019-01-10T08:37:16Z</time>
      </trkpt>
      <trkpt lat="49.32837" lon="0.91328">
        <ele>108.39566</ele>
        <time>2019-01-10T08:37:23Z</time>
      </trkpt>
      <trkpt lat="49.3285" lon="0.91336">
        <ele>107.275002</ele>
        <time>2019-01-10T08:37:26Z</time>
      </trkpt>
      <trkpt lat="49.32864" lon="0.91359">
        <ele>106.084999</ele>
        <time>2019-01-10T08:37:31Z</time>
      </trkpt>
      <trkpt lat="49.32867" lon="0.91378">
        <ele>106.018127</ele>
        <time>2019-01-10T08:37:34Z</time>
      </trkpt>
      <trkpt lat="49.32872" lon="0.91418">
        <ele>106.64875</ele>
        <time>2019-01-10T08:37:40Z</time>
      </trkpt>
      <trkpt lat="49.32869" lon="0.91438">
        <ele>107.455597</ele>
        <time>2019-01-10T08:37:44Z</time>
      </trkpt>
      <trkpt lat="49.32854" lon="0.91461">
        <ele>108.958748</ele>
        <time>2019-01-10T08:37:50Z</time>
      </trkpt>
      <trkpt lat="49.32832" lon="0.91477">
        <ele>110.315765</ele>
        <time>2019-01-10T08:37:56Z</time>
      </trkpt>
      <trkpt lat="49.32818" lon="0.91492">
        <ele>110.887199</ele>
        <time>2019-01-10T08:38:00Z</time>
      </trkpt>
      <trkpt lat="49.32814" lon="0.91507">
        <ele>110.909203</ele>
        <time>2019-01-10T08:38:03Z</time>
      </trkpt>
      <trkpt lat="49.32815" lon="0.91513">
        <ele>110.844254</ele>
        <time>2019-01-10T08:38:04Z</time>
      </trkpt>
      <trkpt lat="49.32818" lon="0.91527">
        <ele>110.591873</ele>
        <time>2019-01-10T08:38:07Z</time>
      </trkpt>
      <trkpt lat="49.32832" lon="0.91533">
        <ele>110.195625</ele>
        <time>2019-01-10T08:38:12Z</time>
      </trkpt>
      <trkpt lat="49.32847" lon="0.91538">
        <ele>109.782501</ele>
        <time>2019-01-10T08:38:16Z</time>
      </trkpt>
      <trkpt lat="49.32851" lon="0.9154">
        <ele>109.683128</ele>
        <time>2019-01-10T08:38:17Z</time>
      </trkpt>
      <trkpt lat="49.32854" lon="0.91541">
        <ele>109.506607</ele>
        <time>2019-01-10T08:38:18Z</time>
      </trkpt>
      <trkpt lat="49.32869" lon="0.91542">
        <ele>108.59153</ele>
        <time>2019-01-10T08:38:23Z</time>
      </trkpt>
      <trkpt lat="49.3289" lon="0.91555">
        <ele>107.316391</ele>
        <time>2019-01-10T08:38:29Z</time>
      </trkpt>
      <trkpt lat="49.32915" lon="0.91567">
        <ele>105.216316</ele>
        <time>2019-01-10T08:38:35Z</time>
      </trkpt>
      <trkpt lat="49.3294" lon="0.91577">
        <ele>102.994247</ele>
        <time>2019-01-10T08:38:41Z</time>
      </trkpt>
      <trkpt lat="49.32956" lon="0.91586">
        <ele>101.139717</ele>
        <time>2019-01-10T08:38:44Z</time>
      </trkpt>
      <trkpt lat="49.32961" lon="0.9159">
        <ele>100.601547</ele>
        <time>2019-01-10T08:38:45Z</time>
      </trkpt>
      <trkpt lat="49.32966" lon="0.91593">
        <ele>100.039581</ele>
        <time>2019-01-10T08:38:46Z</time>
      </trkpt>
      <trkpt lat="49.32971" lon="0.91592">
        <ele>99.430626</ele>
        <time>2019-01-10T08:38:47Z</time>
      </trkpt>
      <trkpt lat="49.32976" lon="0.9159">
        <ele>98.665749</ele>
        <time>2019-01-10T08:38:48Z</time>
      </trkpt>
      <trkpt lat="49.32996" lon="0.91584">
        <ele>95.753502</ele>
        <time>2019-01-10T08:38:51Z</time>
      </trkpt>
      <trkpt lat="49.33004" lon="0.91584">
        <ele>94.81488</ele>
        <time>2019-01-10T08:38:52Z</time>
      </trkpt>
      <trkpt lat="49.33024" lon="0.91586">
        <ele>92.26709</ele>
        <time>2019-01-10T08:38:55Z</time>
      </trkpt>
      <trkpt lat="49.33039" lon="0.91585">
        <ele>90.722504</ele>
        <time>2019-01-10T08:38:57Z</time>
      </trkpt>
      <trkpt lat="49.3305" lon="0.91587">
        <ele>89.803123</ele>
        <time>2019-01-10T08:38:59Z</time>
      </trkpt>
      <trkpt lat="49.33063" lon="0.91588">
        <ele>88.801872</ele>
        <time>2019-01-10T08:39:01Z</time>
      </trkpt>
      <trkpt lat="49.33075" lon="0.91596">
        <ele>88.287498</ele>
        <time>2019-01-10T08:39:04Z</time>
      </trkpt>
      <trkpt lat="49.33086" lon="0.91612">
        <ele>88.402878</ele>
        <time>2019-01-10T08:39:07Z</time>
      </trkpt>
      <trkpt lat="49.33107" lon="0.91626">
        <ele>86.631302</ele>
        <time>2019-01-10T08:39:11Z</time>
      </trkpt>
      <trkpt lat="49.3312" lon="0.91636">
        <ele>85.130623</ele>
        <time>2019-01-10T08:39:14Z</time>
      </trkpt>
      <trkpt lat="49.3314" lon="0.91662">
        <ele>83.550476</ele>
        <time>2019-01-10T08:39:20Z</time>
      </trkpt>
      <trkpt lat="49.33147" lon="0.9167">
        <ele>82.793701</ele>
        <time>2019-01-10T08:39:22Z</time>
      </trkpt>
      <trkpt lat="49.33155" lon="0.91694">
        <ele>82.620438</ele>
        <time>2019-01-10T08:39:27Z</time>
      </trkpt>
      <trkpt lat="49.33158" lon="0.91714">
        <ele>82.866989</ele>
        <time>2019-01-10T08:39:30Z</time>
      </trkpt>
      <trkpt lat="49.33162" lon="0.91728">
        <ele>82.169998</ele>
        <time>2019-01-10T08:39:32Z</time>
      </trkpt>
      <trkpt lat="49.33166" lon="0.91751">
        <ele>81.404999</ele>
        <time>2019-01-10T08:39:35Z</time>
      </trkpt>
      <trkpt lat="49.33169" lon="0.91786">
        <ele>80.72979</ele>
        <time>2019-01-10T08:39:40Z</time>
      </trkpt>
      <trkpt lat="49.33172" lon="0.91797">
        <ele>79.787918</ele>
        <time>2019-01-10T08:39:42Z</time>
      </trkpt>
      <trkpt lat="49.33174" lon="0.91807">
        <ele>78.990311</ele>
        <time>2019-01-10T08:39:44Z</time>
      </trkpt>
      <trkpt lat="49.3317" lon="0.91829">
        <ele>78.195412</ele>
        <time>2019-01-10T08:39:49Z</time>
      </trkpt>
      <trkpt lat="49.33177" lon="0.91857">
        <ele>76.130768</ele>
        <time>2019-01-10T08:39:53Z</time>
      </trkpt>
      <trkpt lat="49.33193" lon="0.91888">
        <ele>73.0886</ele>
        <time>2019-01-10T08:39:58Z</time>
      </trkpt>
      <trkpt lat="49.33208" lon="0.91943">
        <ele>69.269997</ele>
        <time>2019-01-10T08:40:05Z</time>
      </trkpt>
      <trkpt lat="49.33212" lon="0.91949">
        <ele>68.864372</ele>
        <time>2019-01-10T08:40:06Z</time>
      </trkpt>
      <trkpt lat="49.33224" lon="0.91965">
        <ele>67.744324</ele>
        <time>2019-01-10T08:40:09Z</time>
      </trkpt>
      <trkpt lat="49.33238" lon="0.91976">
        <ele>66.90625</ele>
        <time>2019-01-10T08:40:13Z</time>
      </trkpt>
      <trkpt lat="49.33257" lon="0.91993">
        <ele>65.821251</ele>
        <time>2019-01-10T08:40:18Z</time>
      </trkpt>
      <trkpt lat="49.33268" lon="0.92006">
        <ele>64.859375</ele>
        <time>2019-01-10T08:40:22Z</time>
      </trkpt>
      <trkpt lat="49.33275" lon="0.92012">
        <ele>64.281876</ele>
        <time>2019-01-10T08:40:24Z</time>
      </trkpt>
      <trkpt lat="49.33294" lon="0.9204">
        <ele>62.170624</ele>
        <time>2019-01-10T08:40:30Z</time>
      </trkpt>
      <trkpt lat="49.33298" lon="0.92043">
        <ele>61.849998</ele>
        <time>2019-01-10T08:40:31Z</time>
      </trkpt>
      <trkpt lat="49.3332" lon="0.92063">
        <ele>59.764149</ele>
        <time>2019-01-10T08:40:36Z</time>
      </trkpt>
      <trkpt lat="49.33336" lon="0.92078">
        <ele>58.184937</ele>
        <time>2019-01-10T08:40:41Z</time>
      </trkpt>
      <trkpt lat="49.33362" lon="0.92083">
        <ele>56.32011</ele>
        <time>2019-01-10T08:40:48Z</time>
      </trkpt>
      <trkpt lat="49.33373" lon="0.92085">
        <ele>55.365601</ele>
        <time>2019-01-10T08:40:53Z</time>
      </trkpt>
      <trkpt lat="49.3339" lon="0.92113">
        <ele>53.604698</ele>
        <time>2019-01-10T08:42:56Z</time>
      </trkpt>
      <trkpt lat="49.33392" lon="0.92129">
        <ele>53.433125</ele>
        <time>2019-01-10T08:42:59Z</time>
      </trkpt>
      <trkpt lat="49.33393" lon="0.92171">
        <ele>53.737213</ele>
        <time>2019-01-10T08:43:05Z</time>
      </trkpt>
      <trkpt lat="49.33392" lon="0.92188">
        <ele>53.858898</ele>
        <time>2019-01-10T08:43:07Z</time>
      </trkpt>
      <trkpt lat="49.33389" lon="0.92204">
        <ele>54.738468</ele>
        <time>2019-01-10T08:43:09Z</time>
      </trkpt>
      <trkpt lat="49.33386" lon="0.92211">
        <ele>55.035492</ele>
        <time>2019-01-10T08:43:10Z</time>
      </trkpt>
      <trkpt lat="49.33383" lon="0.92218">
        <ele>55.2001</ele>
        <time>2019-01-10T08:43:11Z</time>
      </trkpt>
      <trkpt lat="49.3338" lon="0.92225">
        <ele>55.209774</ele>
        <time>2019-01-10T08:43:12Z</time>
      </trkpt>
      <trkpt lat="49.33376" lon="0.92232">
        <ele>55.046597</ele>
        <time>2019-01-10T08:43:13Z</time>
      </trkpt>
      <trkpt lat="49.33372" lon="0.92237">
        <ele>54.703808</ele>
        <time>2019-01-10T08:43:14Z</time>
      </trkpt>
      <trkpt lat="49.33356" lon="0.92261">
        <ele>52.516376</ele>
        <time>2019-01-10T08:43:18Z</time>
      </trkpt>
      <trkpt lat="49.33338" lon="0.92305">
        <ele>52.405361</ele>
        <time>2019-01-10T08:43:24Z</time>
      </trkpt>
      <trkpt lat="49.33324" lon="0.92363">
        <ele>50.730927</ele>
        <time>2019-01-10T08:43:31Z</time>
      </trkpt>
      <trkpt lat="49.3332" lon="0.92408">
        <ele>49.893814</ele>
        <time>2019-01-10T08:43:36Z</time>
      </trkpt>
      <trkpt lat="49.33326" lon="0.92485">
        <ele>49.098976</ele>
        <time>2019-01-10T08:43:45Z</time>
      </trkpt>
      <trkpt lat="49.33326" lon="0.92492">
        <ele>49.126225</ele>
        <time>2019-01-10T08:43:46Z</time>
      </trkpt>
      <trkpt lat="49.33328" lon="0.92507">
        <ele>49.166599</ele>
        <time>2019-01-10T08:43:48Z</time>
      </trkpt>
      <trkpt lat="49.3333" lon="0.92514">
        <ele>49.148052</ele>
        <time>2019-01-10T08:43:49Z</time>
      </trkpt>
      <trkpt lat="49.33332" lon="0.92521">
        <ele>49.096523</ele>
        <time>2019-01-10T08:43:50Z</time>
      </trkpt>
      <trkpt lat="49.33335" lon="0.92528">
        <ele>48.990982</ele>
        <time>2019-01-10T08:43:51Z</time>
      </trkpt>
      <trkpt lat="49.33338" lon="0.92534">
        <ele>48.830318</ele>
        <time>2019-01-10T08:43:52Z</time>
      </trkpt>
      <trkpt lat="49.33342" lon="0.9254">
        <ele>49.115501</ele>
        <time>2019-01-10T08:43:53Z</time>
      </trkpt>
      <trkpt lat="49.33354" lon="0.92558">
        <ele>49.610352</ele>
        <time>2019-01-10T08:43:56Z</time>
      </trkpt>
      <trkpt lat="49.33359" lon="0.92563">
        <ele>49.627537</ele>
        <time>2019-01-10T08:43:57Z</time>
      </trkpt>
      <trkpt lat="49.33368" lon="0.9257">
        <ele>49.74865</ele>
        <time>2019-01-10T08:43:59Z</time>
      </trkpt>
      <trkpt lat="49.33406" lon="0.92593">
        <ele>48.815155</ele>
        <time>2019-01-10T08:44:06Z</time>
      </trkpt>
      <trkpt lat="49.33445" lon="0.92614">
        <ele>48.505093</ele>
        <time>2019-01-10T08:44:13Z</time>
      </trkpt>
      <trkpt lat="49.3345" lon="0.92615">
        <ele>48.399261</ele>
        <time>2019-01-10T08:44:14Z</time>
      </trkpt>
      <trkpt lat="49.33456" lon="0.92615">
        <ele>48.343239</ele>
        <time>2019-01-10T08:44:15Z</time>
      </trkpt>
      <trkpt lat="49.33462" lon="0.92614">
        <ele>48.273701</ele>
        <time>2019-01-10T08:44:16Z</time>
      </trkpt>
      <trkpt lat="49.33468" lon="0.92612">
        <ele>48.200493</ele>
        <time>2019-01-10T08:44:17Z</time>
      </trkpt>
      <trkpt lat="49.33478" lon="0.92607">
        <ele>48.072311</ele>
        <time>2019-01-10T08:44:19Z</time>
      </trkpt>
      <trkpt lat="49.33483" lon="0.92604">
        <ele>48.030251</ele>
        <time>2019-01-10T08:44:20Z</time>
      </trkpt>
      <trkpt lat="49.33487" lon="0.92601">
        <ele>48.0075</ele>
        <time>2019-01-10T08:44:21Z</time>
      </trkpt>
      <trkpt lat="49.33491" lon="0.92598">
        <ele>48.01749</ele>
        <time>2019-01-10T08:44:22Z</time>
      </trkpt>
      <trkpt lat="49.33494" lon="0.92594">
        <ele>48.144775</ele>
        <time>2019-01-10T08:44:23Z</time>
      </trkpt>
      <trkpt lat="49.33498" lon="0.92588">
        <ele>48.4114</ele>
        <time>2019-01-10T08:44:24Z</time>
      </trkpt>
      <trkpt lat="49.33501" lon="0.92583">
        <ele>48.743</ele>
        <time>2019-01-10T08:44:25Z</time>
      </trkpt>
      <trkpt lat="49.33504" lon="0.92579">
        <ele>49.151276</ele>
        <time>2019-01-10T08:44:26Z</time>
      </trkpt>
      <trkpt lat="49.33507" lon="0.92576">
        <ele>49.5471</ele>
        <time>2019-01-10T08:44:27Z</time>
      </trkpt>
      <trkpt lat="49.33511" lon="0.92575">
        <ele>49.907852</ele>
        <time>2019-01-10T08:44:28Z</time>
      </trkpt>
      <trkpt lat="49.33514" lon="0.92576">
        <ele>50.089001</ele>
        <time>2019-01-10T08:44:29Z</time>
      </trkpt>
      <trkpt lat="49.33518" lon="0.92579">
        <ele>50.083</ele>
        <time>2019-01-10T08:44:30Z</time>
      </trkpt>
      <trkpt lat="49.33521" lon="0.92583">
        <ele>49.959625</ele>
        <time>2019-01-10T08:44:31Z</time>
      </trkpt>
      <trkpt lat="49.33524" lon="0.92587">
        <ele>49.782974</ele>
        <time>2019-01-10T08:44:32Z</time>
      </trkpt>
      <trkpt lat="49.33528" lon="0.92592">
        <ele>49.449299</ele>
        <time>2019-01-10T08:44:33Z</time>
      </trkpt>
      <trkpt lat="49.33531" lon="0.92596">
        <ele>49.046101</ele>
        <time>2019-01-10T08:44:34Z</time>
      </trkpt>
      <trkpt lat="49.33557" lon="0.92622">
        <ele>52.169376</ele>
        <time>2019-01-10T08:44:42Z</time>
      </trkpt>
      <trkpt lat="49.33579" lon="0.92631">
        <ele>55.714531</ele>
        <time>2019-01-10T08:44:47Z</time>
      </trkpt>
      <trkpt lat="49.33605" lon="0.92639">
        <ele>61.608162</ele>
        <time>2019-01-10T08:44:55Z</time>
      </trkpt>
      <trkpt lat="49.33631" lon="0.9266">
        <ele>66.300125</ele>
        <time>2019-01-10T08:45:03Z</time>
      </trkpt>
      <trkpt lat="49.33654" lon="0.92689">
        <ele>69.830765</ele>
        <time>2019-01-10T08:45:11Z</time>
      </trkpt>
      <trkpt lat="49.33674" lon="0.92718">
        <ele>71.726761</ele>
        <time>2019-01-10T08:45:18Z</time>
      </trkpt>
      <trkpt lat="49.33688" lon="0.9274">
        <ele>73.815842</ele>
        <time>2019-01-10T08:45:24Z</time>
      </trkpt>
      <trkpt lat="49.33708" lon="0.9276">
        <ele>77.83889</ele>
        <time>2019-01-10T08:45:31Z</time>
      </trkpt>
      <trkpt lat="49.33725" lon="0.92774">
        <ele>81.303551</ele>
        <time>2019-01-10T08:45:38Z</time>
      </trkpt>
      <trkpt lat="49.33736" lon="0.92787">
        <ele>84.189926</ele>
        <time>2019-01-10T08:45:44Z</time>
      </trkpt>
      <trkpt lat="49.33752" lon="0.92804">
        <ele>88.229309</ele>
        <time>2019-01-10T08:45:51Z</time>
      </trkpt>
      <trkpt lat="49.33767" lon="0.92818">
        <ele>92.037003</ele>
        <time>2019-01-10T08:45:58Z</time>
      </trkpt>
      <trkpt lat="49.33779" lon="0.92829">
        <ele>93.42453</ele>
        <time>2019-01-10T08:46:04Z</time>
      </trkpt>
      <trkpt lat="49.33791" lon="0.92841">
        <ele>95.375717</ele>
        <time>2019-01-10T08:46:11Z</time>
      </trkpt>
      <trkpt lat="49.33792" lon="0.92843">
        <ele>95.665939</ele>
        <time>2019-01-10T08:46:12Z</time>
      </trkpt>
      <trkpt lat="49.33806" lon="0.92856">
        <ele>98.573784</ele>
        <time>2019-01-10T08:46:19Z</time>
      </trkpt>
      <trkpt lat="49.33818" lon="0.92867">
        <ele>100.672874</ele>
        <time>2019-01-10T08:46:25Z</time>
      </trkpt>
      <trkpt lat="49.3382" lon="0.92869">
        <ele>100.801613</ele>
        <time>2019-01-10T08:46:26Z</time>
      </trkpt>
      <trkpt lat="49.33822" lon="0.92871">
        <ele>100.99794</ele>
        <time>2019-01-10T08:46:27Z</time>
      </trkpt>
      <trkpt lat="49.33828" lon="0.92878">
        <ele>101.700127</ele>
        <time>2019-01-10T08:46:31Z</time>
      </trkpt>
      <trkpt lat="49.3383" lon="0.9288">
        <ele>101.949028</ele>
        <time>2019-01-10T08:46:32Z</time>
      </trkpt>
      <trkpt lat="49.33831" lon="0.92882">
        <ele>102.12056</ele>
        <time>2019-01-10T08:46:33Z</time>
      </trkpt>
      <trkpt lat="49.33835" lon="0.92888">
        <ele>102.512405</ele>
        <time>2019-01-10T08:46:40Z</time>
      </trkpt>
      <trkpt lat="49.3384" lon="0.92888">
        <ele>103.791718</ele>
        <time>2019-01-10T08:46:53Z</time>
      </trkpt>
      <trkpt lat="49.33841" lon="0.92892">
        <ele>103.808128</ele>
        <time>2019-01-10T08:47:07Z</time>
      </trkpt>
      <trkpt lat="49.33841" lon="0.92894">
        <ele>103.609375</ele>
        <time>2019-01-10T08:47:20Z</time>
      </trkpt>
      <trkpt lat="49.33843" lon="0.92899">
        <ele>103.604317</ele>
        <time>2019-01-10T08:47:33Z</time>
      </trkpt>
      <trkpt lat="49.33851" lon="0.92907">
        <ele>105.371155</ele>
        <time>2019-01-10T08:47:40Z</time>
      </trkpt>
      <trkpt lat="49.33857" lon="0.92916">
        <ele>106.566971</ele>
        <time>2019-01-10T08:47:44Z</time>
      </trkpt>
      <trkpt lat="49.33859" lon="0.92918">
        <ele>106.609398</ele>
        <time>2019-01-10T08:47:45Z</time>
      </trkpt>
      <trkpt lat="49.33861" lon="0.92921">
        <ele>106.70929</ele>
        <time>2019-01-10T08:47:46Z</time>
      </trkpt>
      <trkpt lat="49.33863" lon="0.92924">
        <ele>106.950714</ele>
        <time>2019-01-10T08:47:47Z</time>
      </trkpt>
      <trkpt lat="49.33865" lon="0.92927">
        <ele>107.153275</ele>
        <time>2019-01-10T08:47:48Z</time>
      </trkpt>
      <trkpt lat="49.33867" lon="0.92932">
        <ele>107.344749</ele>
        <time>2019-01-10T08:47:49Z</time>
      </trkpt>
      <trkpt lat="49.3387" lon="0.92936">
        <ele>107.50547</ele>
        <time>2019-01-10T08:47:50Z</time>
      </trkpt>
      <trkpt lat="49.33886" lon="0.9296">
        <ele>108.849533</ele>
        <time>2019-01-10T08:47:56Z</time>
      </trkpt>
      <trkpt lat="49.33893" lon="0.92966">
        <ele>110.237549</ele>
        <time>2019-01-10T08:47:59Z</time>
      </trkpt>
      <trkpt lat="49.33894" lon="0.92969">
        <ele>110.182739</ele>
        <time>2019-01-10T08:48:00Z</time>
      </trkpt>
      <trkpt lat="49.33894" lon="0.92989">
        <ele>108.629654</ele>
        <time>2019-01-10T08:48:05Z</time>
      </trkpt>
      <trkpt lat="49.33898" lon="0.93013">
        <ele>107.813049</ele>
        <time>2019-01-10T08:48:09Z</time>
      </trkpt>
      <trkpt lat="49.33903" lon="0.93021">
        <ele>108.055901</ele>
        <time>2019-01-10T08:48:11Z</time>
      </trkpt>
      <trkpt lat="49.33906" lon="0.93045">
        <ele>106.192688</ele>
        <time>2019-01-10T08:48:15Z</time>
      </trkpt>
      <trkpt lat="49.33915" lon="0.93068">
        <ele>105.533997</ele>
        <time>2019-01-10T08:48:19Z</time>
      </trkpt>
      <trkpt lat="49.33922" lon="0.93091">
        <ele>105.007309</ele>
        <time>2019-01-10T08:48:23Z</time>
      </trkpt>
      <trkpt lat="49.33924" lon="0.93095">
        <ele>105.074219</ele>
        <time>2019-01-10T08:48:24Z</time>
      </trkpt>
      <trkpt lat="49.33925" lon="0.931">
        <ele>105.026497</ele>
        <time>2019-01-10T08:48:25Z</time>
      </trkpt>
      <trkpt lat="49.33927" lon="0.93105">
        <ele>104.976112</ele>
        <time>2019-01-10T08:48:26Z</time>
      </trkpt>
      <trkpt lat="49.33928" lon="0.9311">
        <ele>104.991722</ele>
        <time>2019-01-10T08:48:27Z</time>
      </trkpt>
      <trkpt lat="49.3393" lon="0.93116">
        <ele>104.993591</ele>
        <time>2019-01-10T08:48:28Z</time>
      </trkpt>
      <trkpt lat="49.33932" lon="0.93122">
        <ele>105.165779</ele>
        <time>2019-01-10T08:48:29Z</time>
      </trkpt>
      <trkpt lat="49.33939" lon="0.9315">
        <ele>105.565231</ele>
        <time>2019-01-10T08:48:34Z</time>
      </trkpt>
      <trkpt lat="49.33948" lon="0.93178">
        <ele>107.463402</ele>
        <time>2019-01-10T08:48:40Z</time>
      </trkpt>
      <trkpt lat="49.33957" lon="0.93196">
        <ele>108.608315</ele>
        <time>2019-01-10T08:48:45Z</time>
      </trkpt>
      <trkpt lat="49.33964" lon="0.93203">
        <ele>109.756302</ele>
        <time>2019-01-10T08:48:48Z</time>
      </trkpt>
      <trkpt lat="49.33971" lon="0.93224">
        <ele>111.102623</ele>
        <time>2019-01-10T08:48:54Z</time>
      </trkpt>
      <trkpt lat="49.33969" lon="0.93249">
        <ele>110.847862</ele>
        <time>2019-01-10T08:49:00Z</time>
      </trkpt>
      <trkpt lat="49.33967" lon="0.93272">
        <ele>110.459465</ele>
        <time>2019-01-10T08:49:07Z</time>
      </trkpt>
      <trkpt lat="49.33968" lon="0.9328">
        <ele>110.674492</ele>
        <time>2019-01-10T08:49:13Z</time>
      </trkpt>
      <trkpt lat="49.33967" lon="0.93286">
        <ele>110.697929</ele>
        <time>2019-01-10T08:49:28Z</time>
      </trkpt>
      <trkpt lat="49.33967" lon="0.93287">
        <ele>110.657928</ele>
        <time>2019-01-10T08:49:30Z</time>
      </trkpt>
      <trkpt lat="49.33964" lon="0.93296">
        <ele>110.231598</ele>
        <time>2019-01-10T08:49:34Z</time>
      </trkpt>
      <trkpt lat="49.33961" lon="0.93317">
        <ele>110.076988</ele>
        <time>2019-01-10T08:49:40Z</time>
      </trkpt>
      <trkpt lat="49.33958" lon="0.93329">
        <ele>109.830391</ele>
        <time>2019-01-10T08:49:43Z</time>
      </trkpt>
      <trkpt lat="49.33957" lon="0.93336">
        <ele>109.935013</ele>
        <time>2019-01-10T08:49:45Z</time>
      </trkpt>
      <trkpt lat="49.33955" lon="0.93345">
        <ele>109.797874</ele>
        <time>2019-01-10T08:49:47Z</time>
      </trkpt>
      <trkpt lat="49.33951" lon="0.93355">
        <ele>109.585327</ele>
        <time>2019-01-10T08:49:49Z</time>
      </trkpt>
      <trkpt lat="49.33949" lon="0.93386">
        <ele>110.148102</ele>
        <time>2019-01-10T08:49:55Z</time>
      </trkpt>
      <trkpt lat="49.33943" lon="0.93424">
        <ele>108.903999</ele>
        <time>2019-01-10T08:50:02Z</time>
      </trkpt>
      <trkpt lat="49.33937" lon="0.9346">
        <ele>108.232002</ele>
        <time>2019-01-10T08:50:08Z</time>
      </trkpt>
      <trkpt lat="49.3393" lon="0.93489">
        <ele>107.608154</ele>
        <time>2019-01-10T08:50:13Z</time>
      </trkpt>
      <trkpt lat="49.33926" lon="0.93513">
        <ele>107.712997</ele>
        <time>2019-01-10T08:50:18Z</time>
      </trkpt>
      <trkpt lat="49.33918" lon="0.93547">
        <ele>107.848717</ele>
        <time>2019-01-10T08:50:24Z</time>
      </trkpt>
      <trkpt lat="49.33912" lon="0.93569">
        <ele>108.2425</ele>
        <time>2019-01-10T08:50:28Z</time>
      </trkpt>
      <trkpt lat="49.33904" lon="0.936">
        <ele>108.919632</ele>
        <time>2019-01-10T08:50:34Z</time>
      </trkpt>
      <trkpt lat="49.339" lon="0.93636">
        <ele>110.772003</ele>
        <time>2019-01-10T08:50:40Z</time>
      </trkpt>
      <trkpt lat="49.33893" lon="0.93667">
        <ele>112.031548</ele>
        <time>2019-01-10T08:50:46Z</time>
      </trkpt>
      <trkpt lat="49.33887" lon="0.93694">
        <ele>113.8125</ele>
        <time>2019-01-10T08:50:51Z</time>
      </trkpt>
      <trkpt lat="49.33876" lon="0.93704">
        <ele>113.40625</ele>
        <time>2019-01-10T08:50:56Z</time>
      </trkpt>
      <trkpt lat="49.33866" lon="0.93715">
        <ele>113.368103</ele>
        <time>2019-01-10T08:51:00Z</time>
      </trkpt>
      <trkpt lat="49.33844" lon="0.93726">
        <ele>112.109406</ele>
        <time>2019-01-10T08:51:06Z</time>
      </trkpt>
      <trkpt lat="49.33829" lon="0.93726">
        <ele>110.662781</ele>
        <time>2019-01-10T08:51:10Z</time>
      </trkpt>
      <trkpt lat="49.33816" lon="0.93722">
        <ele>108.887611</ele>
        <time>2019-01-10T08:51:13Z</time>
      </trkpt>
      <trkpt lat="49.33801" lon="0.93719">
        <ele>107.175514</ele>
        <time>2019-01-10T08:51:16Z</time>
      </trkpt>
      <trkpt lat="49.33771" lon="0.93712">
        <ele>103.802246</ele>
        <time>2019-01-10T08:51:23Z</time>
      </trkpt>
      <trkpt lat="49.33766" lon="0.9371">
        <ele>103.278358</ele>
        <time>2019-01-10T08:51:24Z</time>
      </trkpt>
      <trkpt lat="49.33757" lon="0.93708">
        <ele>102.531212</ele>
        <time>2019-01-10T08:51:26Z</time>
      </trkpt>
      <trkpt lat="49.33732" lon="0.937">
        <ele>100.367966</ele>
        <time>2019-01-10T08:51:31Z</time>
      </trkpt>
      <trkpt lat="49.33711" lon="0.93693">
        <ele>99.3134</ele>
        <time>2019-01-10T08:51:37Z</time>
      </trkpt>
      <trkpt lat="49.33683" lon="0.9368">
        <ele>96.266624</ele>
        <time>2019-01-10T08:51:45Z</time>
      </trkpt>
      <trkpt lat="49.33665" lon="0.93676">
        <ele>95.230499</ele>
        <time>2019-01-10T08:51:50Z</time>
      </trkpt>
      <trkpt lat="49.33644" lon="0.93668">
        <ele>93.792473</ele>
        <time>2019-01-10T08:51:56Z</time>
      </trkpt>
      <trkpt lat="49.33629" lon="0.93675">
        <ele>94.842827</ele>
        <time>2019-01-10T08:52:01Z</time>
      </trkpt>
      <trkpt lat="49.33617" lon="0.93698">
        <ele>97.615547</ele>
        <time>2019-01-10T08:52:07Z</time>
      </trkpt>
      <trkpt lat="49.33609" lon="0.93723">
        <ele>98.577377</ele>
        <time>2019-01-10T08:52:13Z</time>
      </trkpt>
      <trkpt lat="49.33605" lon="0.93729">
        <ele>98.558777</ele>
        <time>2019-01-10T08:52:15Z</time>
      </trkpt>
      <trkpt lat="49.33605" lon="0.93734">
        <ele>98.739601</ele>
        <time>2019-01-10T08:52:16Z</time>
      </trkpt>
      <trkpt lat="49.33605" lon="0.93738">
        <ele>98.978622</ele>
        <time>2019-01-10T08:52:17Z</time>
      </trkpt>
      <trkpt lat="49.33611" lon="0.93756">
        <ele>100.751099</ele>
        <time>2019-01-10T08:52:22Z</time>
      </trkpt>
      <trkpt lat="49.33615" lon="0.93769">
        <ele>101.892464</ele>
        <time>2019-01-10T08:52:27Z</time>
      </trkpt>
      <trkpt lat="49.33618" lon="0.93798">
        <ele>102.300377</ele>
        <time>2019-01-10T08:52:33Z</time>
      </trkpt>
      <trkpt lat="49.33623" lon="0.93813">
        <ele>103.173599</ele>
        <time>2019-01-10T08:52:37Z</time>
      </trkpt>
      <trkpt lat="49.33629" lon="0.93821">
        <ele>104.445686</ele>
        <time>2019-01-10T08:52:42Z</time>
      </trkpt>
      <trkpt lat="49.3364" lon="0.9384">
        <ele>106.527252</ele>
        <time>2019-01-10T08:52:50Z</time>
      </trkpt>
      <trkpt lat="49.33652" lon="0.9386">
        <ele>108.32</ele>
        <time>2019-01-10T08:52:58Z</time>
      </trkpt>
      <trkpt lat="49.3366" lon="0.93877">
        <ele>109.400002</ele>
        <time>2019-01-10T08:53:04Z</time>
      </trkpt>
      <trkpt lat="49.33662" lon="0.9388">
        <ele>109.639999</ele>
        <time>2019-01-10T08:53:05Z</time>
      </trkpt>
      <trkpt lat="49.33673" lon="0.93894">
        <ele>111.139999</ele>
        <time>2019-01-10T08:53:11Z</time>
      </trkpt>
      <trkpt lat="49.33669" lon="0.93914">
        <ele>110.286369</ele>
        <time>2019-01-10T08:53:20Z</time>
      </trkpt>
      <trkpt lat="49.33667" lon="0.93922">
        <ele>109.740288</ele>
        <time>2019-01-10T08:53:24Z</time>
      </trkpt>
      <trkpt lat="49.33673" lon="0.93945">
        <ele>110.191231</ele>
        <time>2019-01-10T08:53:30Z</time>
      </trkpt>
      <trkpt lat="49.33675" lon="0.93949">
        <ele>110.343292</ele>
        <time>2019-01-10T08:53:31Z</time>
      </trkpt>
      <trkpt lat="49.3368" lon="0.93966">
        <ele>110.755363</ele>
        <time>2019-01-10T08:53:34Z</time>
      </trkpt>
      <trkpt lat="49.33691" lon="0.93994">
        <ele>112.239998</ele>
        <time>2019-01-10T08:53:40Z</time>
      </trkpt>
      <trkpt lat="49.33697" lon="0.9402">
        <ele>112.739998</ele>
        <time>2019-01-10T08:53:46Z</time>
      </trkpt>
      <trkpt lat="49.33697" lon="0.94025">
        <ele>112.720001</ele>
        <time>2019-01-10T08:53:47Z</time>
      </trkpt>
      <trkpt lat="49.33695" lon="0.94038">
        <ele>112.500702</ele>
        <time>2019-01-10T08:53:50Z</time>
      </trkpt>
      <trkpt lat="49.33688" lon="0.94073">
        <ele>111.666733</ele>
        <time>2019-01-10T08:53:57Z</time>
      </trkpt>
      <trkpt lat="49.33683" lon="0.94107">
        <ele>110.347832</ele>
        <time>2019-01-10T08:54:03Z</time>
      </trkpt>
      <trkpt lat="49.33679" lon="0.94138">
        <ele>109.38578</ele>
        <time>2019-01-10T08:54:08Z</time>
      </trkpt>
      <trkpt lat="49.33673" lon="0.942">
        <ele>107.299377</ele>
        <time>2019-01-10T08:54:16Z</time>
      </trkpt>
      <trkpt lat="49.33672" lon="0.94216">
        <ele>106.793747</ele>
        <time>2019-01-10T08:54:18Z</time>
      </trkpt>
      <trkpt lat="49.33672" lon="0.94232">
        <ele>106.446251</ele>
        <time>2019-01-10T08:54:20Z</time>
      </trkpt>
      <trkpt lat="49.33672" lon="0.94272">
        <ele>105.078209</ele>
        <time>2019-01-10T08:54:25Z</time>
      </trkpt>
      <trkpt lat="49.3367" lon="0.94291">
        <ele>103.912613</ele>
        <time>2019-01-10T08:54:27Z</time>
      </trkpt>
      <trkpt lat="49.3367" lon="0.94329">
        <ele>102.082497</ele>
        <time>2019-01-10T08:54:32Z</time>
      </trkpt>
      <trkpt lat="49.33668" lon="0.94342">
        <ele>100.927498</ele>
        <time>2019-01-10T08:54:37Z</time>
      </trkpt>
      <trkpt lat="49.33666" lon="0.94364">
        <ele>99.002502</ele>
        <time>2019-01-10T08:54:43Z</time>
      </trkpt>
      <trkpt lat="49.33665" lon="0.94383">
        <ele>97.742104</ele>
        <time>2019-01-10T08:54:46Z</time>
      </trkpt>
      <trkpt lat="49.33662" lon="0.9442">
        <ele>94.620758</ele>
        <time>2019-01-10T08:54:51Z</time>
      </trkpt>
      <trkpt lat="49.33659" lon="0.9446">
        <ele>91.96579</ele>
        <time>2019-01-10T08:54:56Z</time>
      </trkpt>
      <trkpt lat="49.33659" lon="0.94481">
        <ele>92.017281</ele>
        <time>2019-01-10T08:54:59Z</time>
      </trkpt>
      <trkpt lat="49.33647" lon="0.94522">
        <ele>88.839996</ele>
        <time>2019-01-10T08:55:05Z</time>
      </trkpt>
      <trkpt lat="49.33638" lon="0.94549">
        <ele>85.916252</ele>
        <time>2019-01-10T08:55:10Z</time>
      </trkpt>
      <trkpt lat="49.33631" lon="0.94567">
        <ele>83.376251</ele>
        <time>2019-01-10T08:55:13Z</time>
      </trkpt>
      <trkpt lat="49.3362" lon="0.94612">
        <ele>78.973297</ele>
        <time>2019-01-10T08:55:20Z</time>
      </trkpt>
      <trkpt lat="49.33619" lon="0.94619">
        <ele>78.094688</ele>
        <time>2019-01-10T08:55:26Z</time>
      </trkpt>
      <trkpt lat="49.33616" lon="0.94628">
        <ele>76.63755</ele>
        <time>2019-01-10T08:55:41Z</time>
      </trkpt>
      <trkpt lat="49.33615" lon="0.94634">
        <ele>76.046715</ele>
        <time>2019-01-10T08:55:54Z</time>
      </trkpt>
      <trkpt lat="49.33614" lon="0.94634">
        <ele>75.600784</ele>
        <time>2019-01-10T08:56:05Z</time>
      </trkpt>
      <trkpt lat="49.33614" lon="0.94637">
        <ele>75.628441</ele>
        <time>2019-01-10T08:56:07Z</time>
      </trkpt>
      <trkpt lat="49.33615" lon="0.94643">
        <ele>75.73497</ele>
        <time>2019-01-10T08:56:10Z</time>
      </trkpt>
      <trkpt lat="49.33615" lon="0.94671">
        <ele>74.257339</ele>
        <time>2019-01-10T08:56:16Z</time>
      </trkpt>
      <trkpt lat="49.33616" lon="0.94675">
        <ele>74.213173</ele>
        <time>2019-01-10T08:56:17Z</time>
      </trkpt>
      <trkpt lat="49.33621" lon="0.94703">
        <ele>73.607353</ele>
        <time>2019-01-10T08:56:23Z</time>
      </trkpt>
      <trkpt lat="49.33625" lon="0.94718">
        <ele>73.238998</ele>
        <time>2019-01-10T08:56:26Z</time>
      </trkpt>
      <trkpt lat="49.33635" lon="0.94744">
        <ele>72.879211</ele>
        <time>2019-01-10T08:56:32Z</time>
      </trkpt>
      <trkpt lat="49.33643" lon="0.94766">
        <ele>71.799942</ele>
        <time>2019-01-10T08:56:37Z</time>
      </trkpt>
      <trkpt lat="49.33649" lon="0.94789">
        <ele>69.995277</ele>
        <time>2019-01-10T08:56:43Z</time>
      </trkpt>
      <trkpt lat="49.33658" lon="0.94814">
        <ele>68.705048</ele>
        <time>2019-01-10T08:56:48Z</time>
      </trkpt>
      <trkpt lat="49.33668" lon="0.94835">
        <ele>67.547722</ele>
        <time>2019-01-10T08:56:52Z</time>
      </trkpt>
      <trkpt lat="49.33684" lon="0.94865">
        <ele>65.96003</ele>
        <time>2019-01-10T08:56:58Z</time>
      </trkpt>
      <trkpt lat="49.33703" lon="0.94905">
        <ele>61.32571</ele>
        <time>2019-01-10T08:57:06Z</time>
      </trkpt>
      <trkpt lat="49.33712" lon="0.94912">
        <ele>60.922176</ele>
        <time>2019-01-10T08:57:10Z</time>
      </trkpt>
      <trkpt lat="49.33724" lon="0.9494">
        <ele>59.368439</ele>
        <time>2019-01-10T08:57:15Z</time>
      </trkpt>
      <trkpt lat="49.33722" lon="0.94952">
        <ele>59.091751</ele>
        <time>2019-01-10T08:57:19Z</time>
      </trkpt>
      <trkpt lat="49.33709" lon="0.94966">
        <ele>55.574471</ele>
        <time>2019-01-10T08:57:23Z</time>
      </trkpt>
      <trkpt lat="49.33692" lon="0.9499">
        <ele>49.879189</ele>
        <time>2019-01-10T08:57:28Z</time>
      </trkpt>
      <trkpt lat="49.3369" lon="0.94993">
        <ele>49.170937</ele>
        <time>2019-01-10T08:57:29Z</time>
      </trkpt>
      <trkpt lat="49.33674" lon="0.95014">
        <ele>44.594051</ele>
        <time>2019-01-10T08:57:35Z</time>
      </trkpt>
      <trkpt lat="49.33671" lon="0.95017">
        <ele>43.990864</ele>
        <time>2019-01-10T08:57:36Z</time>
      </trkpt>
      <trkpt lat="49.33669" lon="0.9502">
        <ele>43.441353</ele>
        <time>2019-01-10T08:57:37Z</time>
      </trkpt>
      <trkpt lat="49.33667" lon="0.95022">
        <ele>42.829689</ele>
        <time>2019-01-10T08:57:38Z</time>
      </trkpt>
      <trkpt lat="49.33661" lon="0.9503">
        <ele>41.314667</ele>
        <time>2019-01-10T08:57:41Z</time>
      </trkpt>
      <trkpt lat="49.33659" lon="0.95035">
        <ele>40.976967</ele>
        <time>2019-01-10T08:57:42Z</time>
      </trkpt>
      <trkpt lat="49.33655" lon="0.95062">
        <ele>39.939999</ele>
        <time>2019-01-10T08:57:48Z</time>
      </trkpt>
      <trkpt lat="49.33655" lon="0.95066">
        <ele>39.959999</ele>
        <time>2019-01-10T08:57:49Z</time>
      </trkpt>
      <trkpt lat="49.33658" lon="0.95084">
        <ele>40.3111</ele>
        <time>2019-01-10T08:57:54Z</time>
      </trkpt>
      <trkpt lat="49.3367" lon="0.95117">
        <ele>42.375977</ele>
        <time>2019-01-10T08:58:01Z</time>
      </trkpt>
      <trkpt lat="49.33671" lon="0.95122">
        <ele>42.639812</ele>
        <time>2019-01-10T08:58:02Z</time>
      </trkpt>
      <trkpt lat="49.33673" lon="0.95147">
        <ele>42.412998</ele>
        <time>2019-01-10T08:58:08Z</time>
      </trkpt>
      <trkpt lat="49.33674" lon="0.95152">
        <ele>42.512787</ele>
        <time>2019-01-10T08:58:09Z</time>
      </trkpt>
      <trkpt lat="49.33677" lon="0.95161">
        <ele>42.965023</ele>
        <time>2019-01-10T08:58:11Z</time>
      </trkpt>
      <trkpt lat="49.33677" lon="0.95185">
        <ele>42.353573</ele>
        <time>2019-01-10T08:58:17Z</time>
      </trkpt>
      <trkpt lat="49.33677" lon="0.9519">
        <ele>42.345478</ele>
        <time>2019-01-10T08:58:18Z</time>
      </trkpt>
      <trkpt lat="49.33681" lon="0.9522">
        <ele>42.620327</ele>
        <time>2019-01-10T08:58:24Z</time>
      </trkpt>
      <trkpt lat="49.33688" lon="0.95245">
        <ele>43.645588</ele>
        <time>2019-01-10T08:58:29Z</time>
      </trkpt>
      <trkpt lat="49.33691" lon="0.95274">
        <ele>43.846386</ele>
        <time>2019-01-10T08:58:35Z</time>
      </trkpt>
      <trkpt lat="49.33692" lon="0.95279">
        <ele>44.003304</ele>
        <time>2019-01-10T08:58:36Z</time>
      </trkpt>
      <trkpt lat="49.33699" lon="0.95309">
        <ele>45.563332</ele>
        <time>2019-01-10T08:58:42Z</time>
      </trkpt>
      <trkpt lat="49.337" lon="0.95324">
        <ele>46.066578</ele>
        <time>2019-01-10T08:58:46Z</time>
      </trkpt>
      <trkpt lat="49.33699" lon="0.95335">
        <ele>45.808899</ele>
        <time>2019-01-10T08:58:52Z</time>
      </trkpt>
      <trkpt lat="49.33699" lon="0.95344">
        <ele>45.976063</ele>
        <time>2019-01-10T08:58:58Z</time>
      </trkpt>
      <trkpt lat="49.33698" lon="0.95349">
        <ele>45.801937</ele>
        <time>2019-01-10T08:59:00Z</time>
      </trkpt>
      <trkpt lat="49.33698" lon="0.95364">
        <ele>46.353088</ele>
        <time>2019-01-10T08:59:04Z</time>
      </trkpt>
      <trkpt lat="49.33695" lon="0.95385">
        <ele>46.125893</ele>
        <time>2019-01-10T08:59:09Z</time>
      </trkpt>
      <trkpt lat="49.33691" lon="0.95401">
        <ele>45.426945</ele>
        <time>2019-01-10T08:59:14Z</time>
      </trkpt>
      <trkpt lat="49.3369" lon="0.95413">
        <ele>45.297863</ele>
        <time>2019-01-10T08:59:19Z</time>
      </trkpt>
      <trkpt lat="49.33689" lon="0.95415">
        <ele>45.248867</ele>
        <time>2019-01-10T08:59:20Z</time>
      </trkpt>
      <trkpt lat="49.33684" lon="0.95437">
        <ele>45.483589</ele>
        <time>2019-01-10T08:59:25Z</time>
      </trkpt>
      <trkpt lat="49.33682" lon="0.95461">
        <ele>46.4384</ele>
        <time>2019-01-10T08:59:29Z</time>
      </trkpt>
      <trkpt lat="49.33678" lon="0.95474">
        <ele>46.289513</ele>
        <time>2019-01-10T08:59:33Z</time>
      </trkpt>
      <trkpt lat="49.33676" lon="0.95494">
        <ele>46.616013</ele>
        <time>2019-01-10T08:59:37Z</time>
      </trkpt>
      <trkpt lat="49.33667" lon="0.95528">
        <ele>45.978092</ele>
        <time>2019-01-10T08:59:43Z</time>
      </trkpt>
      <trkpt lat="49.33658" lon="0.9556">
        <ele>45.503777</ele>
        <time>2019-01-10T08:59:49Z</time>
      </trkpt>
      <trkpt lat="49.33652" lon="0.95596">
        <ele>45.072029</ele>
        <time>2019-01-10T08:59:55Z</time>
      </trkpt>
      <trkpt lat="49.33648" lon="0.9565">
        <ele>44.800724</ele>
        <time>2019-01-10T09:00:03Z</time>
      </trkpt>
      <trkpt lat="49.33647" lon="0.95656">
        <ele>44.769791</ele>
        <time>2019-01-10T09:00:04Z</time>
      </trkpt>
      <trkpt lat="49.33646" lon="0.95713">
        <ele>44.66</ele>
        <time>2019-01-10T09:00:12Z</time>
      </trkpt>
      <trkpt lat="49.33645" lon="0.95749">
        <ele>44.48</ele>
        <time>2019-01-10T09:00:18Z</time>
      </trkpt>
      <trkpt lat="49.33644" lon="0.95786">
        <ele>44.240002</ele>
        <time>2019-01-10T09:00:24Z</time>
      </trkpt>
      <trkpt lat="49.33644" lon="0.95801">
        <ele>44.240002</ele>
        <time>2019-01-10T09:00:27Z</time>
      </trkpt>
      <trkpt lat="49.33653" lon="0.9582">
        <ele>45.41</ele>
        <time>2019-01-10T09:00:33Z</time>
      </trkpt>
      <trkpt lat="49.33663" lon="0.95831">
        <ele>46.804985</ele>
        <time>2019-01-10T09:00:39Z</time>
      </trkpt>
      <trkpt lat="49.33672" lon="0.95836">
        <ele>47.7757</ele>
        <time>2019-01-10T09:00:44Z</time>
      </trkpt>
      <trkpt lat="49.33673" lon="0.95836">
        <ele>47.870411</ele>
        <time>2019-01-10T09:00:45Z</time>
      </trkpt>
      <trkpt lat="49.33685" lon="0.95848">
        <ele>49.073978</ele>
        <time>2019-01-10T09:00:53Z</time>
      </trkpt>
      <trkpt lat="49.33686" lon="0.95858">
        <ele>49.052902</ele>
        <time>2019-01-10T09:00:58Z</time>
      </trkpt>
      <trkpt lat="49.33684" lon="0.95892">
        <ele>48.690239</ele>
      </trkpt>
      <trkpt lat="49.33732" lon="0.95949">
        <ele>54.371956</ele>
      </trkpt>
      <trkpt lat="49.33744" lon="0.95987">
        <ele>55.865845</ele>
      </trkpt>
      <trkpt lat="49.33746" lon="0.96046">
        <ele>56.579182</ele>
      </trkpt>
      <trkpt lat="49.3373" lon="0.96097">
        <ele>59.872276</ele>
      </trkpt>
      <trkpt lat="49.33721" lon="0.96129">
        <ele>62.190624</ele>
      </trkpt>
      <trkpt lat="49.33726" lon="0.96162">
        <ele>64.565628</ele>
      </trkpt>
      <trkpt lat="49.3376" lon="0.96235">
        <ele>73.972649</ele>
      </trkpt>
      <trkpt lat="49.33835" lon="0.96233">
        <ele>81.285522</ele>
        <time>2019-01-10T09:05:56Z</time>
      </trkpt>
      <trkpt lat="49.33831" lon="0.96254">
        <ele>83.830994</ele>
        <time>2019-01-10T09:06:03Z</time>
      </trkpt>
      <trkpt lat="49.33819" lon="0.96278">
        <ele>86.210976</ele>
        <time>2019-01-10T09:06:10Z</time>
      </trkpt>
      <trkpt lat="49.33831" lon="0.96294">
        <ele>89.573784</ele>
        <time>2019-01-10T09:06:16Z</time>
      </trkpt>
      <trkpt lat="49.33841" lon="0.96299">
        <ele>91.010056</ele>
        <time>2019-01-10T09:06:22Z</time>
      </trkpt>
      <trkpt lat="49.33854" lon="0.96296">
        <ele>91.610077</ele>
        <time>2019-01-10T09:06:29Z</time>
      </trkpt>
      <trkpt lat="49.33865" lon="0.96292">
        <ele>92.17099</ele>
        <time>2019-01-10T09:06:35Z</time>
      </trkpt>
      <trkpt lat="49.33877" lon="0.96294">
        <ele>93.429482</ele>
        <time>2019-01-10T09:06:41Z</time>
      </trkpt>
      <trkpt lat="49.33882" lon="0.96295">
        <ele>94.146309</ele>
        <time>2019-01-10T09:06:45Z</time>
      </trkpt>
      <trkpt lat="49.33879" lon="0.96327">
        <ele>98.478699</ele>
        <time>2019-01-10T09:06:57Z</time>
      </trkpt>
      <trkpt lat="49.33878" lon="0.9633">
        <ele>98.807159</ele>
        <time>2019-01-10T09:06:58Z</time>
      </trkpt>
      <trkpt lat="49.33878" lon="0.96339">
        <ele>100.173981</ele>
        <time>2019-01-10T09:07:01Z</time>
      </trkpt>
      <trkpt lat="49.33876" lon="0.96352">
        <ele>101.955811</ele>
        <time>2019-01-10T09:07:05Z</time>
      </trkpt>
      <trkpt lat="49.3388" lon="0.96367">
        <ele>104.650414</ele>
        <time>2019-01-10T09:07:11Z</time>
      </trkpt>
      <trkpt lat="49.3388" lon="0.96381">
        <ele>106.283722</ele>
        <time>2019-01-10T09:07:15Z</time>
      </trkpt>
      <trkpt lat="49.33875" lon="0.96403">
        <ele>108.692657</ele>
        <time>2019-01-10T09:07:22Z</time>
      </trkpt>
      <trkpt lat="49.33872" lon="0.9643">
        <ele>111.831154</ele>
        <time>2019-01-10T09:07:30Z</time>
      </trkpt>
      <trkpt lat="49.33863" lon="0.96443">
        <ele>112.72831</ele>
        <time>2019-01-10T09:07:36Z</time>
      </trkpt>
      <trkpt lat="49.33862" lon="0.96445">
        <ele>112.759972</ele>
        <time>2019-01-10T09:07:37Z</time>
      </trkpt>
      <trkpt lat="49.33857" lon="0.96459">
        <ele>113.294518</ele>
        <time>2019-01-10T09:07:42Z</time>
      </trkpt>
      <trkpt lat="49.33852" lon="0.96485">
        <ele>114.661728</ele>
        <time>2019-01-10T09:07:50Z</time>
      </trkpt>
      <trkpt lat="49.33851" lon="0.96507">
        <ele>115.856995</ele>
        <time>2019-01-10T09:07:56Z</time>
      </trkpt>
      <trkpt lat="49.33845" lon="0.96524">
        <ele>115.139259</ele>
        <time>2019-01-10T09:08:02Z</time>
      </trkpt>
      <trkpt lat="49.33848" lon="0.96537">
        <ele>115.216553</ele>
        <time>2019-01-10T09:08:06Z</time>
      </trkpt>
      <trkpt lat="49.33851" lon="0.96549">
        <ele>115.2939</ele>
        <time>2019-01-10T09:08:11Z</time>
      </trkpt>
      <trkpt lat="49.33847" lon="0.96566">
        <ele>114.96125</ele>
        <time>2019-01-10T09:08:16Z</time>
      </trkpt>
      <trkpt lat="49.33847" lon="0.96573">
        <ele>114.900314</ele>
        <time>2019-01-10T09:08:18Z</time>
      </trkpt>
      <trkpt lat="49.33848" lon="0.96589">
        <ele>114.415627</ele>
        <time>2019-01-10T09:08:21Z</time>
      </trkpt>
      <trkpt lat="49.33842" lon="0.96609">
        <ele>113.698128</ele>
        <time>2019-01-10T09:08:26Z</time>
      </trkpt>
      <trkpt lat="49.33841" lon="0.96629">
        <ele>113.0811</ele>
        <time>2019-01-10T09:08:30Z</time>
      </trkpt>
      <trkpt lat="49.3384" lon="0.96655">
        <ele>112.311531</ele>
        <time>2019-01-10T09:08:36Z</time>
      </trkpt>
      <trkpt lat="49.33833" lon="0.96688">
        <ele>111.70591</ele>
        <time>2019-01-10T09:08:42Z</time>
      </trkpt>
      <trkpt lat="49.33832" lon="0.96698">
        <ele>111.486252</ele>
        <time>2019-01-10T09:08:44Z</time>
      </trkpt>
      <trkpt lat="49.33831" lon="0.96708">
        <ele>111.334206</ele>
        <time>2019-01-10T09:08:46Z</time>
      </trkpt>
      <trkpt lat="49.33826" lon="0.96714">
        <ele>111.597099</ele>
        <time>2019-01-10T09:08:51Z</time>
      </trkpt>
      <trkpt lat="49.33816" lon="0.96706">
        <ele>112.583672</ele>
        <time>2019-01-10T09:08:55Z</time>
      </trkpt>
      <trkpt lat="49.33814" lon="0.96701">
        <ele>112.875999</ele>
        <time>2019-01-10T09:08:56Z</time>
      </trkpt>
      <trkpt lat="49.33812" lon="0.96697">
        <ele>113.032387</ele>
        <time>2019-01-10T09:08:57Z</time>
      </trkpt>
      <trkpt lat="49.33812" lon="0.96693">
        <ele>113.161629</ele>
        <time>2019-01-10T09:08:58Z</time>
      </trkpt>
      <trkpt lat="49.33813" lon="0.96684">
        <ele>113.200554</ele>
        <time>2019-01-10T09:09:00Z</time>
      </trkpt>
      <trkpt lat="49.33813" lon="0.96655">
        <ele>113.687752</ele>
        <time>2019-01-10T09:09:06Z</time>
      </trkpt>
      <trkpt lat="49.33813" lon="0.96651">
        <ele>113.746986</ele>
        <time>2019-01-10T09:09:07Z</time>
      </trkpt>
      <trkpt lat="49.33806" lon="0.9663">
        <ele>113.480003</ele>
        <time>2019-01-10T09:09:12Z</time>
      </trkpt>
      <trkpt lat="49.33809" lon="0.96619">
        <ele>113.987968</ele>
        <time>2019-01-10T09:09:15Z</time>
      </trkpt>
      <trkpt lat="49.33812" lon="0.9659">
        <ele>114.043518</ele>
        <time>2019-01-10T09:09:22Z</time>
      </trkpt>
      <trkpt lat="49.33811" lon="0.96585">
        <ele>114.046242</ele>
        <time>2019-01-10T09:09:23Z</time>
      </trkpt>
      <trkpt lat="49.33803" lon="0.96582">
        <ele>113.120003</ele>
        <time>2019-01-10T09:09:28Z</time>
      </trkpt>
      <trkpt lat="49.33794" lon="0.96577">
        <ele>111.481331</ele>
        <time>2019-01-10T09:09:32Z</time>
      </trkpt>
      <trkpt lat="49.33794" lon="0.96574">
        <ele>111.318901</ele>
        <time>2019-01-10T09:09:33Z</time>
      </trkpt>
      <trkpt lat="49.33797" lon="0.96549">
        <ele>110.898376</ele>
        <time>2019-01-10T09:09:39Z</time>
      </trkpt>
      <trkpt lat="49.33792" lon="0.96524">
        <ele>109.234634</ele>
        <time>2019-01-10T09:09:45Z</time>
      </trkpt>
      <trkpt lat="49.33791" lon="0.96515">
        <ele>108.573517</ele>
        <time>2019-01-10T09:09:48Z</time>
      </trkpt>
      <trkpt lat="49.33789" lon="0.96516">
        <ele>108.371193</ele>
        <time>2019-01-10T09:09:50Z</time>
      </trkpt>
      <trkpt lat="49.33783" lon="0.96524">
        <ele>107.629974</ele>
        <time>2019-01-10T09:09:55Z</time>
      </trkpt>
      <trkpt lat="49.33779" lon="0.96518">
        <ele>106.898125</ele>
        <time>2019-01-10T09:09:58Z</time>
      </trkpt>
      <trkpt lat="49.33776" lon="0.96481">
        <ele>103.887009</ele>
        <time>2019-01-10T09:10:06Z</time>
      </trkpt>
      <trkpt lat="49.33766" lon="0.96461">
        <ele>101.075813</ele>
        <time>2019-01-10T09:10:11Z</time>
      </trkpt>
      <trkpt lat="49.3375" lon="0.96456">
        <ele>98.571999</ele>
        <time>2019-01-10T09:10:16Z</time>
      </trkpt>
      <trkpt lat="49.33746" lon="0.96457">
        <ele>98.134911</ele>
        <time>2019-01-10T09:10:17Z</time>
      </trkpt>
      <trkpt lat="49.33743" lon="0.96458">
        <ele>97.76667</ele>
        <time>2019-01-10T09:10:18Z</time>
      </trkpt>
      <trkpt lat="49.3374" lon="0.96461">
        <ele>97.536583</ele>
        <time>2019-01-10T09:10:19Z</time>
      </trkpt>
      <trkpt lat="49.33738" lon="0.96464">
        <ele>97.377373</ele>
        <time>2019-01-10T09:10:20Z</time>
      </trkpt>
      <trkpt lat="49.33734" lon="0.96472">
        <ele>97.27375</ele>
        <time>2019-01-10T09:10:22Z</time>
      </trkpt>
      <trkpt lat="49.33734" lon="0.96477">
        <ele>97.404999</ele>
        <time>2019-01-10T09:10:23Z</time>
      </trkpt>
      <trkpt lat="49.33734" lon="0.96481">
        <ele>97.577545</ele>
        <time>2019-01-10T09:10:24Z</time>
      </trkpt>
      <trkpt lat="49.33736" lon="0.96511">
        <ele>99.181999</ele>
        <time>2019-01-10T09:10:29Z</time>
      </trkpt>
      <trkpt lat="49.33735" lon="0.96519">
        <ele>99.247932</ele>
        <time>2019-01-10T09:10:31Z</time>
      </trkpt>
      <trkpt lat="49.33734" lon="0.96523">
        <ele>99.110352</ele>
        <time>2019-01-10T09:10:32Z</time>
      </trkpt>
      <trkpt lat="49.33733" lon="0.96527">
        <ele>99.068512</ele>
        <time>2019-01-10T09:10:33Z</time>
      </trkpt>
      <trkpt lat="49.33733" lon="0.96532">
        <ele>99.170227</ele>
        <time>2019-01-10T09:10:34Z</time>
      </trkpt>
      <trkpt lat="49.33733" lon="0.96538">
        <ele>99.152054</ele>
        <time>2019-01-10T09:10:35Z</time>
      </trkpt>
      <trkpt lat="49.33732" lon="0.96544">
        <ele>99.141342</ele>
        <time>2019-01-10T09:10:36Z</time>
      </trkpt>
      <trkpt lat="49.33732" lon="0.9655">
        <ele>99.258865</ele>
        <time>2019-01-10T09:10:37Z</time>
      </trkpt>
      <trkpt lat="49.33733" lon="0.96556">
        <ele>99.468704</ele>
        <time>2019-01-10T09:10:38Z</time>
      </trkpt>
      <trkpt lat="49.33734" lon="0.96575">
        <ele>100.05719</ele>
        <time>2019-01-10T09:10:43Z</time>
      </trkpt>
      <trkpt lat="49.33725" lon="0.96586">
        <ele>98.224312</ele>
        <time>2019-01-10T09:10:52Z</time>
      </trkpt>
      <trkpt lat="49.33717" lon="0.96612">
        <ele>96.026909</ele>
        <time>2019-01-10T09:20:16Z</time>
      </trkpt>
      <trkpt lat="49.33713" lon="0.96624">
        <ele>94.902893</ele>
        <time>2019-01-10T09:20:23Z</time>
      </trkpt>
      <trkpt lat="49.33715" lon="0.96649">
        <ele>94.919998</ele>
        <time>2019-01-10T09:20:28Z</time>
      </trkpt>
      <trkpt lat="49.33719" lon="0.96675">
        <ele>95.179352</ele>
        <time>2019-01-10T09:20:33Z</time>
      </trkpt>
      <trkpt lat="49.33723" lon="0.9669">
        <ele>95.653877</ele>
        <time>2019-01-10T09:20:36Z</time>
      </trkpt>
      <trkpt lat="49.33724" lon="0.96716">
        <ele>95.230377</ele>
        <time>2019-01-10T09:20:41Z</time>
      </trkpt>
      <trkpt lat="49.33725" lon="0.9673">
        <ele>95.35865</ele>
        <time>2019-01-10T09:20:43Z</time>
      </trkpt>
      <trkpt lat="49.33726" lon="0.96753">
        <ele>95.435234</ele>
        <time>2019-01-10T09:20:46Z</time>
      </trkpt>
      <trkpt lat="49.33724" lon="0.96796">
        <ele>94.916878</ele>
        <time>2019-01-10T09:20:52Z</time>
      </trkpt>
      <trkpt lat="49.33724" lon="0.96835">
        <ele>95.364372</ele>
        <time>2019-01-10T09:20:58Z</time>
      </trkpt>
      <trkpt lat="49.33725" lon="0.96872">
        <ele>96.264999</ele>
        <time>2019-01-10T09:21:03Z</time>
      </trkpt>
      <trkpt lat="49.33723" lon="0.96908">
        <ele>96.691254</ele>
        <time>2019-01-10T09:21:10Z</time>
      </trkpt>
      <trkpt lat="49.33722" lon="0.96931">
        <ele>97.271027</ele>
        <time>2019-01-10T09:21:15Z</time>
      </trkpt>
      <trkpt lat="49.3372" lon="0.96955">
        <ele>98.145279</ele>
        <time>2019-01-10T09:21:20Z</time>
      </trkpt>
      <trkpt lat="49.33718" lon="0.96972">
        <ele>98.521141</ele>
        <time>2019-01-10T09:21:23Z</time>
      </trkpt>
      <trkpt lat="49.33709" lon="0.97">
        <ele>97.547462</ele>
        <time>2019-01-10T09:21:29Z</time>
      </trkpt>
      <trkpt lat="49.33708" lon="0.97005">
        <ele>97.605301</ele>
        <time>2019-01-10T09:21:30Z</time>
      </trkpt>
      <trkpt lat="49.33706" lon="0.97034">
        <ele>99.164001</ele>
        <time>2019-01-10T09:21:36Z</time>
      </trkpt>
      <trkpt lat="49.33705" lon="0.97039">
        <ele>99.312431</ele>
        <time>2019-01-10T09:21:37Z</time>
      </trkpt>
      <trkpt lat="49.33697" lon="0.97061">
        <ele>98.648918</ele>
        <time>2019-01-10T09:21:42Z</time>
      </trkpt>
      <trkpt lat="49.3369" lon="0.97095">
        <ele>99.185623</ele>
        <time>2019-01-10T09:21:49Z</time>
      </trkpt>
      <trkpt lat="49.33684" lon="0.97119">
        <ele>99.174362</ele>
        <time>2019-01-10T09:21:55Z</time>
      </trkpt>
      <trkpt lat="49.33683" lon="0.97122">
        <ele>99.144508</ele>
        <time>2019-01-10T09:21:56Z</time>
      </trkpt>
      <trkpt lat="49.33674" lon="0.97154">
        <ele>99.509766</ele>
        <time>2019-01-10T09:22:02Z</time>
      </trkpt>
      <trkpt lat="49.33667" lon="0.97181">
        <ele>99.844131</ele>
        <time>2019-01-10T09:22:07Z</time>
      </trkpt>
      <trkpt lat="49.33664" lon="0.97212">
        <ele>101.602783</ele>
        <time>2019-01-10T09:22:14Z</time>
      </trkpt>
      <trkpt lat="49.33662" lon="0.97235">
        <ele>102.316803</ele>
        <time>2019-01-10T09:22:19Z</time>
      </trkpt>
      <trkpt lat="49.33661" lon="0.97239">
        <ele>102.377365</ele>
        <time>2019-01-10T09:22:20Z</time>
      </trkpt>
      <trkpt lat="49.33661" lon="0.97256">
        <ele>103.204124</ele>
        <time>2019-01-10T09:22:23Z</time>
      </trkpt>
      <trkpt lat="49.33662" lon="0.97277">
        <ele>104.388748</ele>
        <time>2019-01-10T09:22:27Z</time>
      </trkpt>
      <trkpt lat="49.33661" lon="0.97314">
        <ele>105.222496</ele>
        <time>2019-01-10T09:22:35Z</time>
      </trkpt>
      <trkpt lat="49.33663" lon="0.97325">
        <ele>105.75</ele>
        <time>2019-01-10T09:22:37Z</time>
      </trkpt>
      <trkpt lat="49.33667" lon="0.97368">
        <ele>105.105858</ele>
        <time>2019-01-10T09:22:45Z</time>
      </trkpt>
      <trkpt lat="49.33672" lon="0.97394">
        <ele>104.314102</ele>
        <time>2019-01-10T09:22:50Z</time>
      </trkpt>
      <trkpt lat="49.3368" lon="0.97428">
        <ele>103.1483</ele>
        <time>2019-01-10T09:22:56Z</time>
      </trkpt>
      <trkpt lat="49.33682" lon="0.97458">
        <ele>100.440468</ele>
        <time>2019-01-10T09:23:01Z</time>
      </trkpt>
      <trkpt lat="49.33688" lon="0.97482">
        <ele>99.735626</ele>
        <time>2019-01-10T09:23:05Z</time>
      </trkpt>
      <trkpt lat="49.33689" lon="0.97497">
        <ele>99.251877</ele>
        <time>2019-01-10T09:23:07Z</time>
      </trkpt>
      <trkpt lat="49.33694" lon="0.97547">
        <ele>98.293427</ele>
        <time>2019-01-10T09:23:14Z</time>
      </trkpt>
      <trkpt lat="49.33697" lon="0.97564">
        <ele>98.370422</ele>
        <time>2019-01-10T09:23:17Z</time>
      </trkpt>
      <trkpt lat="49.33699" lon="0.97586">
        <ele>97.821251</ele>
        <time>2019-01-10T09:23:21Z</time>
      </trkpt>
      <trkpt lat="49.33702" lon="0.97611">
        <ele>97.320831</ele>
        <time>2019-01-10T09:23:27Z</time>
      </trkpt>
      <trkpt lat="49.33702" lon="0.97615">
        <ele>97.119698</ele>
        <time>2019-01-10T09:23:28Z</time>
      </trkpt>
      <trkpt lat="49.33709" lon="0.97635">
        <ele>97.212814</ele>
        <time>2019-01-10T09:23:34Z</time>
      </trkpt>
      <trkpt lat="49.33712" lon="0.97642">
        <ele>97.367378</ele>
        <time>2019-01-10T09:23:36Z</time>
      </trkpt>
      <trkpt lat="49.33715" lon="0.97648">
        <ele>97.496414</ele>
        <time>2019-01-10T09:23:37Z</time>
      </trkpt>
      <trkpt lat="49.33718" lon="0.97652">
        <ele>97.779297</ele>
        <time>2019-01-10T09:23:38Z</time>
      </trkpt>
      <trkpt lat="49.33721" lon="0.97655">
        <ele>98.077209</ele>
        <time>2019-01-10T09:23:39Z</time>
      </trkpt>
      <trkpt lat="49.33737" lon="0.97672">
        <ele>99.359421</ele>
        <time>2019-01-10T09:23:44Z</time>
      </trkpt>
      <trkpt lat="49.33749" lon="0.9769">
        <ele>99.864502</ele>
        <time>2019-01-10T09:23:49Z</time>
      </trkpt>
      <trkpt lat="49.33758" lon="0.97714">
        <ele>99.723068</ele>
        <time>2019-01-10T09:23:54Z</time>
      </trkpt>
      <trkpt lat="49.33761" lon="0.97739">
        <ele>98.747864</ele>
        <time>2019-01-10T09:23:59Z</time>
      </trkpt>
      <trkpt lat="49.33763" lon="0.97747">
        <ele>98.503044</ele>
        <time>2019-01-10T09:24:06Z</time>
      </trkpt>
      <trkpt lat="49.33765" lon="0.97756">
        <ele>99.583313</ele>
        <time>2019-01-10T09:24:19Z</time>
      </trkpt>
      <trkpt lat="49.33766" lon="0.97759">
        <ele>99.931328</ele>
        <time>2019-01-10T09:24:20Z</time>
      </trkpt>
      <trkpt lat="49.33767" lon="0.97761">
        <ele>100.22908</ele>
        <time>2019-01-10T09:24:21Z</time>
      </trkpt>
      <trkpt lat="49.33765" lon="0.9777">
        <ele>100.887619</ele>
        <time>2019-01-10T09:24:26Z</time>
      </trkpt>
      <trkpt lat="49.33765" lon="0.97777">
        <ele>101.567123</ele>
        <time>2019-01-10T09:24:27Z</time>
      </trkpt>
      <trkpt lat="49.33764" lon="0.97784">
        <ele>102.161041</ele>
        <time>2019-01-10T09:24:28Z</time>
      </trkpt>
      <trkpt lat="49.33761" lon="0.97794">
        <ele>102.968559</ele>
        <time>2019-01-10T09:24:29Z</time>
      </trkpt>
      <trkpt lat="49.33756" lon="0.97803">
        <ele>103.595619</ele>
        <time>2019-01-10T09:24:30Z</time>
      </trkpt>
      <trkpt lat="49.33734" lon="0.97833">
        <ele>106.310455</ele>
        <time>2019-01-10T09:24:31Z</time>
      </trkpt>
      <trkpt lat="49.33704" lon="0.97827">
        <ele>106.536247</ele>
        <time>2019-01-10T09:24:32Z</time>
      </trkpt>
      <trkpt lat="49.33674" lon="0.97819">
        <ele>107.165703</ele>
        <time>2019-01-10T09:24:39Z</time>
      </trkpt>
      <trkpt lat="49.33639" lon="0.97815">
        <ele>108.857582</ele>
        <time>2019-01-10T09:24:44Z</time>
      </trkpt>
      <trkpt lat="49.33609" lon="0.97826">
        <ele>108.309372</ele>
        <time>2019-01-10T09:24:50Z</time>
      </trkpt>
      <trkpt lat="49.3359" lon="0.97857">
        <ele>109.339638</ele>
        <time>2019-01-10T09:24:58Z</time>
      </trkpt>
      <trkpt lat="49.33593" lon="0.97898">
        <ele>113.500214</ele>
        <time>2019-01-10T09:25:04Z</time>
      </trkpt>
      <trkpt lat="49.33599" lon="0.97915">
        <ele>115.160629</ele>
        <time>2019-01-10T09:25:10Z</time>
      </trkpt>
      <trkpt lat="49.33606" lon="0.97931">
        <ele>116.377975</ele>
        <time>2019-01-10T09:25:17Z</time>
      </trkpt>
      <trkpt lat="49.3361" lon="0.97946">
        <ele>117.3759</ele>
        <time>2019-01-10T09:25:22Z</time>
      </trkpt>
      <trkpt lat="49.33628" lon="0.97998">
        <ele>120.907928</ele>
        <time>2019-01-10T09:26:12Z</time>
      </trkpt>
      <trkpt lat="49.33625" lon="0.97997">
        <ele>120.684845</ele>
        <time>2019-01-10T09:26:13Z</time>
      </trkpt>
      <trkpt lat="49.33622" lon="0.97998">
        <ele>120.484253</ele>
        <time>2019-01-10T09:26:14Z</time>
      </trkpt>
      <trkpt lat="49.33619" lon="0.97999">
        <ele>120.278999</ele>
        <time>2019-01-10T09:26:15Z</time>
      </trkpt>
      <trkpt lat="49.33615" lon="0.98">
        <ele>120.039688</ele>
        <time>2019-01-10T09:26:16Z</time>
      </trkpt>
      <trkpt lat="49.3361" lon="0.98003">
        <ele>119.746468</ele>
        <time>2019-01-10T09:26:17Z</time>
      </trkpt>
      <trkpt lat="49.33567" lon="0.98033">
        <ele>116.503784</ele>
        <time>2019-01-10T09:26:24Z</time>
      </trkpt>
      <trkpt lat="49.33531" lon="0.98059">
        <ele>111.919998</ele>
        <time>2019-01-10T09:26:30Z</time>
      </trkpt>
      <trkpt lat="49.33527" lon="0.98063">
        <ele>111.416252</ele>
        <time>2019-01-10T09:26:31Z</time>
      </trkpt>
      <trkpt lat="49.33524" lon="0.98069">
        <ele>111.134377</ele>
        <time>2019-01-10T09:26:32Z</time>
      </trkpt>
      <trkpt lat="49.33523" lon="0.98075">
        <ele>111.113129</ele>
        <time>2019-01-10T09:26:33Z</time>
      </trkpt>
      <trkpt lat="49.33525" lon="0.98094">
        <ele>112.373749</ele>
        <time>2019-01-10T09:26:36Z</time>
      </trkpt>
      <trkpt lat="49.33526" lon="0.98102">
        <ele>112.721237</ele>
        <time>2019-01-10T09:26:37Z</time>
      </trkpt>
      <trkpt lat="49.33528" lon="0.98124">
        <ele>113.43959</ele>
        <time>2019-01-10T09:26:40Z</time>
      </trkpt>
      <trkpt lat="49.33529" lon="0.98167">
        <ele>114.25856</ele>
        <time>2019-01-10T09:26:47Z</time>
      </trkpt>
      <trkpt lat="49.33531" lon="0.98191">
        <ele>112.108864</ele>
        <time>2019-01-10T09:26:51Z</time>
      </trkpt>
      <trkpt lat="49.33543" lon="0.9821">
        <ele>112.301483</ele>
        <time>2019-01-10T09:26:55Z</time>
      </trkpt>
      <trkpt lat="49.33564" lon="0.98235">
        <ele>113.974525</ele>
        <time>2019-01-10T09:27:01Z</time>
      </trkpt>
      <trkpt lat="49.33566" lon="0.98238">
        <ele>113.913757</ele>
        <time>2019-01-10T09:27:02Z</time>
      </trkpt>
      <trkpt lat="49.33581" lon="0.98262">
        <ele>113.358376</ele>
        <time>2019-01-10T09:27:08Z</time>
      </trkpt>
      <trkpt lat="49.33591" lon="0.98294">
        <ele>111.147766</ele>
        <time>2019-01-10T09:27:14Z</time>
      </trkpt>
      <trkpt lat="49.3359" lon="0.98314">
        <ele>108.480347</ele>
        <time>2019-01-10T09:27:19Z</time>
      </trkpt>
      <trkpt lat="49.3359" lon="0.9832">
        <ele>107.767662</ele>
        <time>2019-01-10T09:27:20Z</time>
      </trkpt>
      <trkpt lat="49.33597" lon="0.9835">
        <ele>105.398796</ele>
        <time>2019-01-10T09:27:25Z</time>
      </trkpt>
      <trkpt lat="49.33596" lon="0.98354">
        <ele>104.649887</ele>
        <time>2019-01-10T09:27:26Z</time>
      </trkpt>
      <trkpt lat="49.33594" lon="0.98359">
        <ele>103.700348</ele>
        <time>2019-01-10T09:27:27Z</time>
      </trkpt>
      <trkpt lat="49.33594" lon="0.98365">
        <ele>102.980469</ele>
        <time>2019-01-10T09:27:28Z</time>
      </trkpt>
      <trkpt lat="49.33594" lon="0.9837">
        <ele>102.370316</ele>
        <time>2019-01-10T09:27:29Z</time>
      </trkpt>
      <trkpt lat="49.33597" lon="0.98379">
        <ele>103.034401</ele>
        <time>2019-01-10T09:27:31Z</time>
      </trkpt>
      <trkpt lat="49.336" lon="0.98383">
        <ele>103.554604</ele>
        <time>2019-01-10T09:27:32Z</time>
      </trkpt>
      <trkpt lat="49.33618" lon="0.98404">
        <ele>107.497017</ele>
        <time>2019-01-10T09:27:39Z</time>
      </trkpt>
      <trkpt lat="49.33629" lon="0.98422">
        <ele>109.018791</ele>
        <time>2019-01-10T09:27:45Z</time>
      </trkpt>
      <trkpt lat="49.33632" lon="0.98443">
        <ele>108.93206</ele>
        <time>2019-01-10T09:27:50Z</time>
      </trkpt>
      <trkpt lat="49.33632" lon="0.98465">
        <ele>110.721077</ele>
        <time>2019-01-10T09:27:56Z</time>
      </trkpt>
      <trkpt lat="49.33631" lon="0.98491">
        <ele>112.654953</ele>
        <time>2019-01-10T09:28:03Z</time>
      </trkpt>
      <trkpt lat="49.33631" lon="0.98498">
        <ele>113.207588</ele>
        <time>2019-01-10T09:28:05Z</time>
      </trkpt>
      <trkpt lat="49.33634" lon="0.9851">
        <ele>114.278435</ele>
        <time>2019-01-10T09:28:09Z</time>
      </trkpt>
      <trkpt lat="49.33636" lon="0.98519">
        <ele>115.150223</ele>
        <time>2019-01-10T09:28:13Z</time>
      </trkpt>
      <trkpt lat="49.33647" lon="0.98531">
        <ele>116.186798</ele>
        <time>2019-01-10T09:28:20Z</time>
      </trkpt>
      <trkpt lat="49.33648" lon="0.98539">
        <ele>116.860245</ele>
        <time>2019-01-10T09:28:24Z</time>
      </trkpt>
      <trkpt lat="49.33652" lon="0.98558">
        <ele>118.552727</ele>
        <time>2019-01-10T09:28:29Z</time>
      </trkpt>
      <trkpt lat="49.33659" lon="0.98579">
        <ele>121.034035</ele>
        <time>2019-01-10T09:28:35Z</time>
      </trkpt>
      <trkpt lat="49.33668" lon="0.98597">
        <ele>123.342712</ele>
        <time>2019-01-10T09:28:41Z</time>
      </trkpt>
      <trkpt lat="49.33677" lon="0.9862">
        <ele>125.744431</ele>
        <time>2019-01-10T09:28:47Z</time>
      </trkpt>
      <trkpt lat="49.33682" lon="0.98641">
        <ele>127.468613</ele>
        <time>2019-01-10T09:28:52Z</time>
      </trkpt>
      <trkpt lat="49.33681" lon="0.98645">
        <ele>127.713539</ele>
        <time>2019-01-10T09:28:53Z</time>
      </trkpt>
      <trkpt lat="49.33682" lon="0.98675">
        <ele>129.191605</ele>
        <time>2019-01-10T09:29:00Z</time>
      </trkpt>
      <trkpt lat="49.33685" lon="0.98691">
        <ele>129.980164</ele>
        <time>2019-01-10T09:30:08Z</time>
      </trkpt>
      <trkpt lat="49.3367" lon="0.98699">
        <ele>130.303787</ele>
        <time>2019-01-10T09:30:14Z</time>
      </trkpt>
      <trkpt lat="49.33652" lon="0.98709">
        <ele>130.746231</ele>
        <time>2019-01-10T09:30:19Z</time>
      </trkpt>
      <trkpt lat="49.33631" lon="0.98722">
        <ele>130.649368</ele>
        <time>2019-01-10T09:30:24Z</time>
      </trkpt>
      <trkpt lat="49.33607" lon="0.98738">
        <ele>130.332504</ele>
        <time>2019-01-10T09:30:30Z</time>
      </trkpt>
      <trkpt lat="49.33599" lon="0.98745">
        <ele>130.243744</ele>
        <time>2019-01-10T09:30:32Z</time>
      </trkpt>
      <trkpt lat="49.33595" lon="0.98748">
        <ele>130.180618</ele>
        <time>2019-01-10T09:30:33Z</time>
      </trkpt>
      <trkpt lat="49.3359" lon="0.9875">
        <ele>130.109375</ele>
        <time>2019-01-10T09:30:34Z</time>
      </trkpt>
      <trkpt lat="49.33586" lon="0.98752">
        <ele>130.056244</ele>
        <time>2019-01-10T09:30:35Z</time>
      </trkpt>
      <trkpt lat="49.33583" lon="0.98754">
        <ele>130.009369</ele>
        <time>2019-01-10T09:30:36Z</time>
      </trkpt>
      <trkpt lat="49.33558" lon="0.98771">
        <ele>129.71962</ele>
        <time>2019-01-10T09:30:42Z</time>
      </trkpt>
      <trkpt lat="49.3353" lon="0.98791">
        <ele>129.324997</ele>
        <time>2019-01-10T09:30:48Z</time>
      </trkpt>
      <trkpt lat="49.33501" lon="0.98813">
        <ele>129.001877</ele>
        <time>2019-01-10T09:30:54Z</time>
      </trkpt>
      <trkpt lat="49.33482" lon="0.98828">
        <ele>128.779373</ele>
        <time>2019-01-10T09:30:58Z</time>
      </trkpt>
      <trkpt lat="49.3346" lon="0.98844">
        <ele>128.505005</ele>
        <time>2019-01-10T09:31:03Z</time>
      </trkpt>
      <trkpt lat="49.33444" lon="0.98846">
        <ele>128.177505</ele>
        <time>2019-01-10T09:31:07Z</time>
      </trkpt>
      <trkpt lat="49.33441" lon="0.98842">
        <ele>128.053131</ele>
        <time>2019-01-10T09:31:08Z</time>
      </trkpt>
      <trkpt lat="49.33436" lon="0.98835">
        <ele>127.837502</ele>
        <time>2019-01-10T09:31:10Z</time>
      </trkpt>
      <trkpt lat="49.33432" lon="0.98835">
        <ele>127.754372</ele>
        <time>2019-01-10T09:31:11Z</time>
      </trkpt>
      <trkpt lat="49.3343" lon="0.98836">
        <ele>127.713127</ele>
        <time>2019-01-10T09:31:12Z</time>
      </trkpt>
      <trkpt lat="49.33427" lon="0.98839">
        <ele>127.705627</ele>
        <time>2019-01-10T09:31:13Z</time>
      </trkpt>
      <trkpt lat="49.33426" lon="0.98842">
        <ele>127.721252</ele>
        <time>2019-01-10T09:31:14Z</time>
      </trkpt>
      <trkpt lat="49.33425" lon="0.98846">
        <ele>127.754997</ele>
        <time>2019-01-10T09:31:15Z</time>
      </trkpt>
      <trkpt lat="49.33424" lon="0.9885">
        <ele>127.786247</ele>
        <time>2019-01-10T09:31:16Z</time>
      </trkpt>
      <trkpt lat="49.33419" lon="0.98871">
        <ele>127.973122</ele>
        <time>2019-01-10T09:31:20Z</time>
      </trkpt>
      <trkpt lat="49.33408" lon="0.98928">
        <ele>128.509537</ele>
        <time>2019-01-10T09:31:28Z</time>
      </trkpt>
      <trkpt lat="49.33398" lon="0.98975">
        <ele>128.479843</ele>
        <time>2019-01-10T09:31:35Z</time>
      </trkpt>
      <trkpt lat="49.33397" lon="0.98982">
        <ele>128.435898</ele>
        <time>2019-01-10T09:31:36Z</time>
      </trkpt>
      <trkpt lat="49.33395" lon="0.9899">
        <ele>128.38562</ele>
        <time>2019-01-10T09:31:37Z</time>
      </trkpt>
      <trkpt lat="49.33386" lon="0.99035">
        <ele>128.561874</ele>
        <time>2019-01-10T09:31:43Z</time>
      </trkpt>
      <trkpt lat="49.33384" lon="0.99042">
        <ele>128.629379</ele>
        <time>2019-01-10T09:31:44Z</time>
      </trkpt>
      <trkpt lat="49.33383" lon="0.99049">
        <ele>128.690002</ele>
        <time>2019-01-10T09:31:45Z</time>
      </trkpt>
      <trkpt lat="49.3338" lon="0.99063">
        <ele>128.836243</ele>
        <time>2019-01-10T09:31:47Z</time>
      </trkpt>
      <trkpt lat="49.33379" lon="0.99071">
        <ele>128.902512</ele>
        <time>2019-01-10T09:31:48Z</time>
      </trkpt>
      <trkpt lat="49.33377" lon="0.99078">
        <ele>128.934845</ele>
        <time>2019-01-10T09:31:49Z</time>
      </trkpt>
      <trkpt lat="49.33375" lon="0.99086">
        <ele>128.960861</ele>
        <time>2019-01-10T09:31:50Z</time>
      </trkpt>
      <trkpt lat="49.33374" lon="0.99093">
        <ele>128.989502</ele>
        <time>2019-01-10T09:31:51Z</time>
      </trkpt>
      <trkpt lat="49.33363" lon="0.99147">
        <ele>128.997528</ele>
        <time>2019-01-10T09:31:58Z</time>
      </trkpt>
      <trkpt lat="49.33362" lon="0.99153">
        <ele>129.028152</ele>
        <time>2019-01-10T09:31:59Z</time>
      </trkpt>
      <trkpt lat="49.33362" lon="0.99161">
        <ele>129.07164</ele>
        <time>2019-01-10T09:32:00Z</time>
      </trkpt>
      <trkpt lat="49.33347" lon="0.99227">
        <ele>129.402771</ele>
        <time>2019-01-10T09:32:07Z</time>
      </trkpt>
      <trkpt lat="49.33324" lon="0.99328">
        <ele>129.457199</ele>
        <time>2019-01-10T09:32:18Z</time>
      </trkpt>
      <trkpt lat="49.33316" lon="0.99372">
        <ele>129.339996</ele>
        <time>2019-01-10T09:32:23Z</time>
      </trkpt>
      <trkpt lat="49.33301" lon="0.99439">
        <ele>128.568756</ele>
        <time>2019-01-10T09:32:31Z</time>
      </trkpt>
      <trkpt lat="49.33289" lon="0.99498">
        <ele>127.429375</ele>
        <time>2019-01-10T09:32:38Z</time>
      </trkpt>
      <trkpt lat="49.33276" lon="0.99562">
        <ele>126.211876</ele>
        <time>2019-01-10T09:32:46Z</time>
      </trkpt>
      <trkpt lat="49.3327" lon="0.99594">
        <ele>125.605003</ele>
        <time>2019-01-10T09:32:50Z</time>
      </trkpt>
      <trkpt lat="49.33269" lon="0.99601">
        <ele>125.472504</ele>
        <time>2019-01-10T09:32:51Z</time>
      </trkpt>
      <trkpt lat="49.33264" lon="0.99624">
        <ele>125.037567</ele>
        <time>2019-01-10T09:32:54Z</time>
      </trkpt>
      <trkpt lat="49.33257" lon="0.99664">
        <ele>124.280746</ele>
        <time>2019-01-10T09:32:59Z</time>
      </trkpt>
      <trkpt lat="49.33255" lon="0.99671">
        <ele>124.148148</ele>
        <time>2019-01-10T09:33:00Z</time>
      </trkpt>
      <trkpt lat="49.33253" lon="0.99678">
        <ele>124.011406</ele>
        <time>2019-01-10T09:33:01Z</time>
      </trkpt>
      <trkpt lat="49.33252" lon="0.99681">
        <ele>123.926903</ele>
        <time>2019-01-10T09:33:02Z</time>
      </trkpt>
      <trkpt lat="49.33251" lon="0.99684">
        <ele>123.853928</ele>
        <time>2019-01-10T09:33:03Z</time>
      </trkpt>
      <trkpt lat="49.3325" lon="0.99686">
        <ele>123.778168</ele>
        <time>2019-01-10T09:33:04Z</time>
      </trkpt>
      <trkpt lat="49.33248" lon="0.99689">
        <ele>123.702347</ele>
        <time>2019-01-10T09:33:05Z</time>
      </trkpt>
      <trkpt lat="49.33241" lon="0.99698">
        <ele>123.357903</ele>
        <time>2019-01-10T09:33:13Z</time>
      </trkpt>
      <trkpt lat="49.3324" lon="0.99698">
        <ele>123.335419</ele>
        <time>2019-01-10T09:33:21Z</time>
      </trkpt>
      <trkpt lat="49.3324" lon="0.99699">
        <ele>123.292351</ele>
        <time>2019-01-10T09:33:34Z</time>
      </trkpt>
      <trkpt lat="49.33237" lon="0.99702">
        <ele>123.16156</ele>
        <time>2019-01-10T09:33:48Z</time>
      </trkpt>
      <trkpt lat="49.33234" lon="0.99716">
        <ele>122.78315</ele>
        <time>2019-01-21T12:45:11Z</time>
      </trkpt>
      <trkpt lat="49.33225" lon="0.99716">
        <ele>122.483772</ele>
        <time>2019-01-10T09:34:20Z</time>
      </trkpt>
      <trkpt lat="49.33206" lon="0.99713">
        <ele>122.177383</ele>
        <time>2019-01-10T09:34:21Z</time>
      </trkpt>
      <trkpt lat="49.33186" lon="0.9972">
        <ele>121.744354</ele>
      </trkpt>
      <trkpt lat="49.33141" lon="0.99755">
        <ele>119.521523</ele>
        <time>2019-01-10T09:34:58Z</time>
      </trkpt>
      <trkpt lat="49.33137" lon="0.99766">
        <ele>118.711273</ele>
        <time>2019-01-10T09:35:01Z</time>
      </trkpt>
      <trkpt lat="49.33136" lon="0.99768">
        <ele>118.538353</ele>
        <time>2019-01-10T09:35:02Z</time>
      </trkpt>
      <trkpt lat="49.33134" lon="0.99769">
        <ele>118.375481</ele>
        <time>2019-01-10T09:35:03Z</time>
      </trkpt>
      <trkpt lat="49.33131" lon="0.99772">
        <ele>118.134697</ele>
        <time>2019-01-10T09:35:04Z</time>
      </trkpt>
      <trkpt lat="49.33129" lon="0.99775">
        <ele>117.852982</ele>
        <time>2019-01-10T09:35:05Z</time>
      </trkpt>
      <trkpt lat="49.33116" lon="0.99795">
        <ele>116.430565</ele>
        <time>2019-01-10T09:35:10Z</time>
      </trkpt>
      <trkpt lat="49.33102" lon="0.9981">
        <ele>115.430885</ele>
        <time>2019-01-10T09:35:15Z</time>
      </trkpt>
      <trkpt lat="49.33098" lon="0.99812">
        <ele>115.305458</ele>
        <time>2019-01-10T09:35:16Z</time>
      </trkpt>
      <trkpt lat="49.33085" lon="0.99808">
        <ele>115.721283</ele>
        <time>2019-01-10T09:35:21Z</time>
      </trkpt>
      <trkpt lat="49.3308" lon="0.99811">
        <ele>115.548653</ele>
        <time>2019-01-10T09:35:23Z</time>
      </trkpt>
      <trkpt lat="49.33078" lon="0.99814">
        <ele>115.30101</ele>
        <time>2019-01-10T09:35:24Z</time>
      </trkpt>
      <trkpt lat="49.33076" lon="0.99817">
        <ele>115.173698</ele>
        <time>2019-01-10T09:35:25Z</time>
      </trkpt>
      <trkpt lat="49.33074" lon="0.99819">
        <ele>115.037437</ele>
        <time>2019-01-10T09:35:26Z</time>
      </trkpt>
      <trkpt lat="49.33073" lon="0.99821">
        <ele>114.952202</ele>
        <time>2019-01-10T09:35:27Z</time>
      </trkpt>
      <trkpt lat="49.33072" lon="0.99822">
        <ele>114.943123</ele>
        <time>2019-01-10T09:35:28Z</time>
      </trkpt>
      <trkpt lat="49.3307" lon="0.99822">
        <ele>115.004097</ele>
        <time>2019-01-10T09:35:29Z</time>
      </trkpt>
      <trkpt lat="49.33057" lon="0.99827">
        <ele>115.177841</ele>
        <time>2019-01-10T09:35:33Z</time>
      </trkpt>
      <trkpt lat="49.33055" lon="0.99831">
        <ele>114.904686</ele>
        <time>2019-01-10T09:35:34Z</time>
      </trkpt>
      <trkpt lat="49.33052" lon="0.99837">
        <ele>114.310173</ele>
        <time>2019-01-10T09:35:35Z</time>
      </trkpt>
      <trkpt lat="49.3305" lon="0.99845">
        <ele>113.62825</ele>
        <time>2019-01-10T09:35:36Z</time>
      </trkpt>
      <trkpt lat="49.33047" lon="0.99853">
        <ele>112.948181</ele>
        <time>2019-01-10T09:35:37Z</time>
      </trkpt>
      <trkpt lat="49.33044" lon="0.99859">
        <ele>112.443565</ele>
        <time>2019-01-10T09:35:38Z</time>
      </trkpt>
      <trkpt lat="49.33041" lon="0.99863">
        <ele>112.169998</ele>
        <time>2019-01-10T09:35:39Z</time>
      </trkpt>
      <trkpt lat="49.33038" lon="0.99866">
        <ele>112.125458</ele>
        <time>2019-01-10T09:35:40Z</time>
      </trkpt>
      <trkpt lat="49.33035" lon="0.99867">
        <ele>112.230347</ele>
        <time>2019-01-10T09:35:41Z</time>
      </trkpt>
      <trkpt lat="49.33032" lon="0.99869">
        <ele>112.337273</ele>
        <time>2019-01-10T09:35:42Z</time>
      </trkpt>
      <trkpt lat="49.3303" lon="0.99871">
        <ele>112.290878</ele>
        <time>2019-01-10T09:35:43Z</time>
      </trkpt>
      <trkpt lat="49.33029" lon="0.99874">
        <ele>112.084991</ele>
        <time>2019-01-10T09:35:44Z</time>
      </trkpt>
      <trkpt lat="49.33028" lon="0.99878">
        <ele>111.831337</ele>
        <time>2019-01-10T09:35:45Z</time>
      </trkpt>
      <trkpt lat="49.33027" lon="0.99882">
        <ele>111.54631</ele>
        <time>2019-01-10T09:35:46Z</time>
      </trkpt>
      <trkpt lat="49.33026" lon="0.99888">
        <ele>111.134987</ele>
        <time>2019-01-10T09:35:47Z</time>
      </trkpt>
      <trkpt lat="49.33026" lon="0.99893">
        <ele>110.675781</ele>
        <time>2019-01-10T09:35:48Z</time>
      </trkpt>
      <trkpt lat="49.33025" lon="0.99899">
        <ele>110.233002</ele>
        <time>2019-01-10T09:35:49Z</time>
      </trkpt>
      <trkpt lat="49.33012" lon="0.999">
        <ele>111.69239</ele>
        <time>2019-01-10T09:35:51Z</time>
      </trkpt>
      <trkpt lat="49.33008" lon="0.99923">
        <ele>110.516998</ele>
        <time>2019-01-10T09:35:53Z</time>
      </trkpt>
      <trkpt lat="49.33001" lon="0.99956">
        <ele>109.834419</ele>
        <time>2019-01-10T09:35:57Z</time>
      </trkpt>
      <trkpt lat="49.32999" lon="0.99971">
        <ele>109.309296</ele>
        <time>2019-01-10T09:35:58Z</time>
      </trkpt>
      <trkpt lat="49.32988" lon="0.99997">
        <ele>108.561409</ele>
        <time>2019-01-10T09:36:04Z</time>
      </trkpt>
      <trkpt lat="49.32986" lon="1.00016">
        <ele>107.05304</ele>
        <time>2019-01-10T09:36:05Z</time>
      </trkpt>
      <trkpt lat="49.32986" lon="1.0003">
        <ele>105.785034</ele>
        <time>2019-01-10T09:36:06Z</time>
      </trkpt>
      <trkpt lat="49.32984" lon="1.00047">
        <ele>104.288704</ele>
        <time>2019-01-10T09:36:07Z</time>
      </trkpt>
      <trkpt lat="49.32976" lon="1.00108">
        <ele>97.521873</ele>
        <time>2019-01-10T09:36:33Z</time>
      </trkpt>
      <trkpt lat="49.3296" lon="1.00108">
        <ele>98.196877</ele>
        <time>2019-01-10T09:36:38Z</time>
      </trkpt>
      <trkpt lat="49.32956" lon="1.00108">
        <ele>98.395103</ele>
        <time>2019-01-10T09:36:40Z</time>
      </trkpt>
      <trkpt lat="49.32946" lon="1.00105">
        <ele>99.068924</ele>
        <time>2019-01-10T09:36:44Z</time>
      </trkpt>
      <trkpt lat="49.32924" lon="1.00103">
        <ele>97.981346</ele>
        <time>2019-01-10T09:36:51Z</time>
      </trkpt>
      <trkpt lat="49.32912" lon="1.00103">
        <ele>97.247726</ele>
        <time>2019-01-10T09:36:55Z</time>
      </trkpt>
      <trkpt lat="49.329" lon="1.001">
        <ele>96.746246</ele>
        <time>2019-01-10T09:37:01Z</time>
      </trkpt>
      <trkpt lat="49.32892" lon="1.00102">
        <ele>95.261253</ele>
        <time>2019-01-10T09:37:10Z</time>
      </trkpt>
      <trkpt lat="49.32887" lon="1.00102">
        <ele>94.474998</ele>
        <time>2019-01-10T09:37:19Z</time>
      </trkpt>
      <trkpt lat="49.32883" lon="1.00102">
        <ele>93.910004</ele>
        <time>2019-01-10T09:37:35Z</time>
      </trkpt>
      <trkpt lat="49.32882" lon="1.00106">
        <ele>92.852501</ele>
        <time>2019-01-10T09:37:52Z</time>
      </trkpt>
      <trkpt lat="49.32879" lon="1.00107">
        <ele>92.307503</ele>
        <time>2019-01-10T09:38:06Z</time>
      </trkpt>
      <trkpt lat="49.32873" lon="1.00103">
        <ele>92.136871</ele>
        <time>2019-01-10T09:38:07Z</time>
      </trkpt>
      <trkpt lat="49.32873" lon="1.00095">
        <ele>93.551254</ele>
        <time>2019-01-10T09:38:13Z</time>
      </trkpt>
      <trkpt lat="49.32872" lon="1.00093">
        <ele>93.960625</ele>
        <time>2019-01-10T09:38:14Z</time>
      </trkpt>
      <trkpt lat="49.32866" lon="1.00075">
        <ele>96.32</ele>
        <time>2019-01-10T09:38:21Z</time>
      </trkpt>
      <trkpt lat="49.32828" lon="0.99986">
        <ele>107.465088</ele>
        <time>2019-01-10T09:46:23Z</time>
      </trkpt>
      <trkpt lat="49.32795" lon="0.99867">
        <ele>116.777496</ele>
        <time>2019-01-10T09:46:24Z</time>
      </trkpt>
      <trkpt lat="49.32785" lon="0.99834">
        <ele>118.460236</ele>
        <time>2019-01-10T09:46:32Z</time>
      </trkpt>
      <trkpt lat="49.32769" lon="0.99786">
        <ele>120.216225</ele>
        <time>2019-01-10T09:46:42Z</time>
      </trkpt>
      <trkpt lat="49.32757" lon="0.99748">
        <ele>120.914375</ele>
        <time>2019-01-10T09:46:49Z</time>
      </trkpt>
      <trkpt lat="49.32748" lon="0.9972">
        <ele>120.924377</ele>
        <time>2019-01-10T09:46:54Z</time>
      </trkpt>
      <trkpt lat="49.32746" lon="0.99714">
        <ele>120.936249</ele>
        <time>2019-01-10T09:46:55Z</time>
      </trkpt>
      <trkpt lat="49.32736" lon="0.99682">
        <ele>120.868187</ele>
        <time>2019-01-10T09:47:00Z</time>
      </trkpt>
      <trkpt lat="49.32717" lon="0.99626">
        <ele>120.875053</ele>
        <time>2019-01-10T09:47:09Z</time>
      </trkpt>
      <trkpt lat="49.32699" lon="0.9957">
        <ele>119.723999</ele>
        <time>2019-01-10T09:47:17Z</time>
      </trkpt>
      <trkpt lat="49.32678" lon="0.99504">
        <ele>118.360001</ele>
        <time>2019-01-10T09:47:27Z</time>
      </trkpt>
      <trkpt lat="49.32674" lon="0.99491">
        <ele>117.918282</ele>
        <time>2019-01-10T09:47:29Z</time>
      </trkpt>
      <trkpt lat="49.3266" lon="0.99449">
        <ele>115.535652</ele>
        <time>2019-01-10T09:47:36Z</time>
      </trkpt>
      <trkpt lat="49.32658" lon="0.99447">
        <ele>115.376747</ele>
        <time>2019-01-10T09:47:37Z</time>
      </trkpt>
      <trkpt lat="49.32656" lon="0.99446">
        <ele>115.264214</ele>
        <time>2019-01-10T09:47:38Z</time>
      </trkpt>
      <trkpt lat="49.32648" lon="0.99454">
        <ele>115.191002</ele>
        <time>2019-01-10T09:47:41Z</time>
      </trkpt>
      <trkpt lat="49.3264" lon="0.99464">
        <ele>115.077812</ele>
        <time>2019-01-10T09:47:44Z</time>
      </trkpt>
      <trkpt lat="49.32637" lon="0.99464">
        <ele>114.936913</ele>
        <time>2019-01-10T09:47:47Z</time>
      </trkpt>
      <trkpt lat="49.32628" lon="0.9946">
        <ele>114.50425</ele>
        <time>2019-01-10T09:47:53Z</time>
      </trkpt>
      <trkpt lat="49.32626" lon="0.99458">
        <ele>114.370552</ele>
        <time>2019-01-10T09:48:04Z</time>
      </trkpt>
      <trkpt lat="49.32613" lon="0.99442">
        <ele>113.760384</ele>
        <time>2019-01-10T09:48:11Z</time>
      </trkpt>
      <trkpt lat="49.32607" lon="0.99434">
        <ele>113.564003</ele>
        <time>2019-01-10T09:48:14Z</time>
      </trkpt>
      <trkpt lat="49.32605" lon="0.99419">
        <ele>113.253754</ele>
        <time>2019-01-10T09:48:20Z</time>
      </trkpt>
      <trkpt lat="49.32604" lon="0.99419">
        <ele>113.212502</ele>
        <time>2019-01-10T09:48:21Z</time>
      </trkpt>
      <trkpt lat="49.32598" lon="0.99421">
        <ele>113.138748</ele>
        <time>2019-01-10T09:48:25Z</time>
      </trkpt>
      <trkpt lat="49.32586" lon="0.99426">
        <ele>113.002502</ele>
        <time>2019-01-10T09:48:30Z</time>
      </trkpt>
      <trkpt lat="49.32578" lon="0.99422">
        <ele>112.624428</ele>
        <time>2019-01-10T09:48:33Z</time>
      </trkpt>
      <trkpt lat="49.32553" lon="0.99404">
        <ele>111.443184</ele>
        <time>2019-01-10T09:48:39Z</time>
      </trkpt>
      <trkpt lat="49.32544" lon="0.994">
        <ele>111.165482</ele>
        <time>2019-01-10T09:48:41Z</time>
      </trkpt>
      <trkpt lat="49.32521" lon="0.9938">
        <ele>110.340034</ele>
        <time>2019-01-10T09:48:47Z</time>
      </trkpt>
      <trkpt lat="49.32505" lon="0.99362">
        <ele>110.277863</ele>
        <time>2019-01-10T09:48:51Z</time>
      </trkpt>
      <trkpt lat="49.32483" lon="0.99332">
        <ele>108.709602</ele>
        <time>2019-01-10T09:48:56Z</time>
      </trkpt>
      <trkpt lat="49.32462" lon="0.99313">
        <ele>107.841949</ele>
        <time>2019-01-10T09:49:00Z</time>
      </trkpt>
      <trkpt lat="49.32441" lon="0.99297">
        <ele>107.661308</ele>
        <time>2019-01-10T09:49:04Z</time>
      </trkpt>
      <trkpt lat="49.32428" lon="0.99283">
        <ele>106.874275</ele>
        <time>2019-01-10T09:49:07Z</time>
      </trkpt>
      <trkpt lat="49.32416" lon="0.99264">
        <ele>106.207611</ele>
        <time>2019-01-10T09:49:10Z</time>
      </trkpt>
      <trkpt lat="49.32408" lon="0.99254">
        <ele>106.030128</ele>
        <time>2019-01-10T09:49:12Z</time>
      </trkpt>
      <trkpt lat="49.32404" lon="0.99254">
        <ele>106.009521</ele>
        <time>2019-01-10T09:49:13Z</time>
      </trkpt>
      <trkpt lat="49.32399" lon="0.99254">
        <ele>105.829674</ele>
        <time>2019-01-10T09:49:14Z</time>
      </trkpt>
      <trkpt lat="49.32393" lon="0.99256">
        <ele>105.367432</ele>
        <time>2019-01-10T09:49:15Z</time>
      </trkpt>
      <trkpt lat="49.32388" lon="0.99259">
        <ele>104.884224</ele>
        <time>2019-01-10T09:49:16Z</time>
      </trkpt>
      <trkpt lat="49.32355" lon="0.99282">
        <ele>101.376701</ele>
        <time>2019-01-10T09:49:22Z</time>
      </trkpt>
      <trkpt lat="49.3235" lon="0.99285">
        <ele>100.746941</ele>
        <time>2019-01-10T09:49:23Z</time>
      </trkpt>
      <trkpt lat="49.32344" lon="0.99288">
        <ele>100.123169</ele>
        <time>2019-01-10T09:49:24Z</time>
      </trkpt>
      <trkpt lat="49.32307" lon="0.99312">
        <ele>94.483635</ele>
        <time>2019-01-10T09:49:30Z</time>
      </trkpt>
      <trkpt lat="49.32277" lon="0.99335">
        <ele>88.317757</ele>
        <time>2019-01-10T09:49:35Z</time>
      </trkpt>
      <trkpt lat="49.32271" lon="0.99337">
        <ele>87.456642</ele>
        <time>2019-01-10T09:49:36Z</time>
      </trkpt>
      <trkpt lat="49.32265" lon="0.99338">
        <ele>86.73275</ele>
        <time>2019-01-10T09:49:37Z</time>
      </trkpt>
      <trkpt lat="49.32257" lon="0.99336">
        <ele>86.053833</ele>
        <time>2019-01-10T09:49:38Z</time>
      </trkpt>
      <trkpt lat="49.32253" lon="0.99334">
        <ele>85.80043</ele>
        <time>2019-01-10T09:49:39Z</time>
      </trkpt>
      <trkpt lat="49.32247" lon="0.9933">
        <ele>85.588249</ele>
        <time>2019-01-10T09:49:40Z</time>
      </trkpt>
      <trkpt lat="49.32242" lon="0.99326">
        <ele>85.409973</ele>
        <time>2019-01-10T09:49:41Z</time>
      </trkpt>
      <trkpt lat="49.32226" lon="0.99317">
        <ele>84.694931</ele>
        <time>2019-01-10T09:49:44Z</time>
      </trkpt>
      <trkpt lat="49.3222" lon="0.99317">
        <ele>83.823753</ele>
        <time>2019-01-10T09:49:45Z</time>
      </trkpt>
      <trkpt lat="49.32213" lon="0.99318">
        <ele>82.56958</ele>
        <time>2019-01-10T09:49:46Z</time>
      </trkpt>
      <trkpt lat="49.32208" lon="0.99321">
        <ele>81.379799</ele>
        <time>2019-01-10T09:49:47Z</time>
      </trkpt>
      <trkpt lat="49.32203" lon="0.99324">
        <ele>80.182404</ele>
        <time>2019-01-10T09:49:48Z</time>
      </trkpt>
      <trkpt lat="49.32198" lon="0.99329">
        <ele>78.952332</ele>
        <time>2019-01-10T09:49:49Z</time>
      </trkpt>
      <trkpt lat="49.32194" lon="0.99335">
        <ele>77.636337</ele>
        <time>2019-01-10T09:49:50Z</time>
      </trkpt>
      <trkpt lat="49.32189" lon="0.99342">
        <ele>76.315033</ele>
        <time>2019-01-10T09:49:51Z</time>
      </trkpt>
      <trkpt lat="49.32184" lon="0.99349">
        <ele>74.870323</ele>
        <time>2019-01-10T09:49:52Z</time>
      </trkpt>
      <trkpt lat="49.32179" lon="0.99356">
        <ele>73.488495</ele>
        <time>2019-01-10T09:49:53Z</time>
      </trkpt>
      <trkpt lat="49.32174" lon="0.99362">
        <ele>72.286316</ele>
        <time>2019-01-10T09:49:54Z</time>
      </trkpt>
      <trkpt lat="49.32169" lon="0.99365">
        <ele>71.353386</ele>
        <time>2019-01-10T09:49:55Z</time>
      </trkpt>
      <trkpt lat="49.32164" lon="0.99366">
        <ele>70.591248</ele>
        <time>2019-01-10T09:49:56Z</time>
      </trkpt>
      <trkpt lat="49.32159" lon="0.99365">
        <ele>69.979713</ele>
        <time>2019-01-10T09:49:57Z</time>
      </trkpt>
      <trkpt lat="49.32155" lon="0.99363">
        <ele>69.513809</ele>
        <time>2019-01-10T09:49:58Z</time>
      </trkpt>
      <trkpt lat="49.3215" lon="0.9936">
        <ele>69.005966</ele>
        <time>2019-01-10T09:49:59Z</time>
      </trkpt>
      <trkpt lat="49.3214" lon="0.99353">
        <ele>67.903069</ele>
        <time>2019-01-10T09:50:01Z</time>
      </trkpt>
      <trkpt lat="49.32135" lon="0.99347">
        <ele>67.480949</ele>
        <time>2019-01-10T09:50:02Z</time>
      </trkpt>
      <trkpt lat="49.32131" lon="0.99339">
        <ele>67.169861</ele>
        <time>2019-01-10T09:50:03Z</time>
      </trkpt>
      <trkpt lat="49.32128" lon="0.9933">
        <ele>66.908936</ele>
        <time>2019-01-10T09:50:04Z</time>
      </trkpt>
      <trkpt lat="49.32125" lon="0.99321">
        <ele>66.756172</ele>
        <time>2019-01-10T09:50:05Z</time>
      </trkpt>
      <trkpt lat="49.32123" lon="0.9931">
        <ele>66.842514</ele>
        <time>2019-01-10T09:50:06Z</time>
      </trkpt>
      <trkpt lat="49.32121" lon="0.99299">
        <ele>66.602852</ele>
        <time>2019-01-10T09:50:07Z</time>
      </trkpt>
      <trkpt lat="49.3212" lon="0.99288">
        <ele>65.833122</ele>
        <time>2019-01-10T09:50:08Z</time>
      </trkpt>
      <trkpt lat="49.32119" lon="0.99277">
        <ele>65.066719</ele>
        <time>2019-01-10T09:50:09Z</time>
      </trkpt>
      <trkpt lat="49.32119" lon="0.99266">
        <ele>64.478622</ele>
        <time>2019-01-10T09:50:10Z</time>
      </trkpt>
      <trkpt lat="49.32119" lon="0.99255">
        <ele>63.90062</ele>
        <time>2019-01-10T09:50:11Z</time>
      </trkpt>
      <trkpt lat="49.32122" lon="0.99206">
        <ele>61.076286</ele>
        <time>2019-01-10T09:50:15Z</time>
      </trkpt>
      <trkpt lat="49.32138" lon="0.99129">
        <ele>57.738251</ele>
        <time>2019-01-10T09:50:22Z</time>
      </trkpt>
      <trkpt lat="49.32149" lon="0.99074">
        <ele>55.886986</ele>
        <time>2019-01-10T09:50:27Z</time>
      </trkpt>
      <trkpt lat="49.32153" lon="0.99048">
        <ele>55.325817</ele>
        <time>2019-01-10T09:50:30Z</time>
      </trkpt>
      <trkpt lat="49.32154" lon="0.99039">
        <ele>55.043098</ele>
        <time>2019-01-10T09:50:31Z</time>
      </trkpt>
      <trkpt lat="49.32155" lon="0.99031">
        <ele>54.710499</ele>
        <time>2019-01-10T09:50:32Z</time>
      </trkpt>
      <trkpt lat="49.32157" lon="0.99006">
        <ele>53.27</ele>
        <time>2019-01-10T09:50:36Z</time>
      </trkpt>
      <trkpt lat="49.32159" lon="0.98983">
        <ele>51.987499</ele>
        <time>2019-01-10T09:50:41Z</time>
      </trkpt>
      <trkpt lat="49.32179" lon="0.98878">
        <ele>50.994499</ele>
        <time>2019-01-10T09:51:39Z</time>
      </trkpt>
      <trkpt lat="49.3218" lon="0.98875">
        <ele>51.0172</ele>
        <time>2019-01-10T09:51:40Z</time>
      </trkpt>
      <trkpt lat="49.32181" lon="0.98872">
        <ele>51.135498</ele>
        <time>2019-01-10T09:51:41Z</time>
      </trkpt>
      <trkpt lat="49.32188" lon="0.98856">
        <ele>51.663151</ele>
        <time>2019-01-10T09:51:47Z</time>
      </trkpt>
      <trkpt lat="49.32191" lon="0.98827">
        <ele>49.546875</ele>
        <time>2019-01-10T09:51:53Z</time>
      </trkpt>
      <trkpt lat="49.32198" lon="0.98813">
        <ele>49.371513</ele>
        <time>2019-01-10T09:51:58Z</time>
      </trkpt>
      <trkpt lat="49.322" lon="0.98807">
        <ele>49.05872</ele>
        <time>2019-01-10T09:52:04Z</time>
      </trkpt>
      <trkpt lat="49.32202" lon="0.98795">
        <ele>47.770859</ele>
        <time>2019-01-10T09:52:16Z</time>
      </trkpt>
      <trkpt lat="49.32207" lon="0.98794">
        <ele>48.537483</ele>
        <time>2019-01-10T09:52:23Z</time>
      </trkpt>
      <trkpt lat="49.32211" lon="0.9879">
        <ele>48.782024</ele>
        <time>2019-01-10T09:52:30Z</time>
      </trkpt>
      <trkpt lat="49.32215" lon="0.98781">
        <ele>48.328087</ele>
        <time>2019-01-10T09:52:38Z</time>
      </trkpt>
      <trkpt lat="49.32217" lon="0.9878">
        <ele>48.2402</ele>
        <time>2019-01-10T09:52:46Z</time>
      </trkpt>
      <trkpt lat="49.3222" lon="0.9878">
        <ele>48.420849</ele>
        <time>2019-01-10T09:52:50Z</time>
      </trkpt>
      <trkpt lat="49.32229" lon="0.98786">
        <ele>49.675213</ele>
        <time>2019-01-10T09:52:56Z</time>
      </trkpt>
      <trkpt lat="49.32231" lon="0.98787">
        <ele>49.896</ele>
        <time>2019-01-10T09:52:57Z</time>
      </trkpt>
      <trkpt lat="49.32234" lon="0.98787">
        <ele>50.057251</ele>
        <time>2019-01-10T09:52:58Z</time>
      </trkpt>
      <trkpt lat="49.32237" lon="0.98788">
        <ele>50.265774</ele>
        <time>2019-01-10T09:52:59Z</time>
      </trkpt>
      <trkpt lat="49.3224" lon="0.98789">
        <ele>50.603188</ele>
        <time>2019-01-10T09:53:00Z</time>
      </trkpt>
      <trkpt lat="49.32244" lon="0.98791">
        <ele>50.967186</ele>
        <time>2019-01-10T09:53:01Z</time>
      </trkpt>
      <trkpt lat="49.32262" lon="0.98793">
        <ele>52.018406</ele>
        <time>2019-01-10T09:53:06Z</time>
      </trkpt>
      <trkpt lat="49.32269" lon="0.98795">
        <ele>53.320576</ele>
        <time>2019-01-10T09:53:08Z</time>
      </trkpt>
      <trkpt lat="49.32271" lon="0.98797">
        <ele>53.973789</ele>
        <time>2019-01-10T09:53:09Z</time>
      </trkpt>
      <trkpt lat="49.32274" lon="0.98799">
        <ele>54.53561</ele>
        <time>2019-01-10T09:53:10Z</time>
      </trkpt>
      <trkpt lat="49.32276" lon="0.988">
        <ele>55.020302</ele>
        <time>2019-01-10T09:53:11Z</time>
      </trkpt>
      <trkpt lat="49.32279" lon="0.98802">
        <ele>55.526024</ele>
        <time>2019-01-10T09:53:12Z</time>
      </trkpt>
      <trkpt lat="49.32281" lon="0.98804">
        <ele>56.046188</ele>
        <time>2019-01-10T09:53:13Z</time>
      </trkpt>
      <trkpt lat="49.3229" lon="0.98817">
        <ele>57.793575</ele>
        <time>2019-01-10T09:53:18Z</time>
      </trkpt>
      <trkpt lat="49.32302" lon="0.98841">
        <ele>60.3713</ele>
        <time>2019-01-10T09:53:26Z</time>
      </trkpt>
      <trkpt lat="49.32308" lon="0.98837">
        <ele>61.176094</ele>
        <time>2019-01-10T09:53:30Z</time>
      </trkpt>
      <trkpt lat="49.32315" lon="0.98827">
        <ele>62.867558</ele>
        <time>2019-01-10T09:53:35Z</time>
      </trkpt>
      <trkpt lat="49.32317" lon="0.9882">
        <ele>63.183201</ele>
        <time>2019-01-10T09:53:38Z</time>
      </trkpt>
      <trkpt lat="49.32316" lon="0.98794">
        <ele>62.900486</ele>
        <time>2019-01-10T09:53:46Z</time>
      </trkpt>
      <trkpt lat="49.32318" lon="0.9877">
        <ele>63.255001</ele>
        <time>2019-01-10T09:53:53Z</time>
      </trkpt>
      <trkpt lat="49.32326" lon="0.98742">
        <ele>64.868111</ele>
        <time>2019-01-10T09:54:00Z</time>
      </trkpt>
      <trkpt lat="49.32336" lon="0.98725">
        <ele>66.663437</ele>
        <time>2019-01-10T09:54:06Z</time>
      </trkpt>
      <trkpt lat="49.32346" lon="0.98711">
        <ele>68.129547</ele>
        <time>2019-01-10T09:54:12Z</time>
      </trkpt>
      <trkpt lat="49.32356" lon="0.98697">
        <ele>69.512497</ele>
        <time>2019-01-10T09:54:19Z</time>
      </trkpt>
      <trkpt lat="49.32366" lon="0.98685">
        <ele>71.004997</ele>
        <time>2019-01-10T09:54:25Z</time>
      </trkpt>
      <trkpt lat="49.32367" lon="0.98684">
        <ele>71.217499</ele>
        <time>2019-01-10T09:54:26Z</time>
      </trkpt>
      <trkpt lat="49.32374" lon="0.98672">
        <ele>72.301819</ele>
        <time>2019-01-10T09:54:33Z</time>
      </trkpt>
      <trkpt lat="49.32382" lon="0.98663">
        <ele>73.606178</ele>
        <time>2019-01-10T09:54:39Z</time>
      </trkpt>
      <trkpt lat="49.32392" lon="0.98653">
        <ele>75.150093</ele>
        <time>2019-01-10T09:54:45Z</time>
      </trkpt>
      <trkpt lat="49.32403" lon="0.98646">
        <ele>76.431587</ele>
        <time>2019-01-10T09:54:51Z</time>
      </trkpt>
      <trkpt lat="49.32408" lon="0.98638">
        <ele>76.85984</ele>
        <time>2019-01-10T09:54:55Z</time>
      </trkpt>
      <trkpt lat="49.3241" lon="0.9863">
        <ele>76.722748</ele>
        <time>2019-01-10T09:54:58Z</time>
      </trkpt>
      <trkpt lat="49.32409" lon="0.98624">
        <ele>76.273926</ele>
        <time>2019-01-10T09:55:00Z</time>
      </trkpt>
      <trkpt lat="49.32408" lon="0.98621">
        <ele>75.871101</ele>
        <time>2019-01-10T09:55:01Z</time>
      </trkpt>
      <trkpt lat="49.32408" lon="0.98619">
        <ele>75.810402</ele>
        <time>2019-01-10T09:55:02Z</time>
      </trkpt>
      <trkpt lat="49.3241" lon="0.98614">
        <ele>75.870789</ele>
        <time>2019-01-10T09:55:04Z</time>
      </trkpt>
      <trkpt lat="49.3242" lon="0.98606">
        <ele>77.020058</ele>
        <time>2019-01-10T09:55:10Z</time>
      </trkpt>
      <trkpt lat="49.32422" lon="0.98603">
        <ele>77.121254</ele>
        <time>2019-01-10T09:55:11Z</time>
      </trkpt>
      <trkpt lat="49.32425" lon="0.98597">
        <ele>77.344513</ele>
        <time>2019-01-10T09:55:13Z</time>
      </trkpt>
      <trkpt lat="49.32424" lon="0.9857">
        <ele>75.736</ele>
        <time>2019-01-10T09:55:19Z</time>
      </trkpt>
      <trkpt lat="49.32426" lon="0.98548">
        <ele>74.834595</ele>
        <time>2019-01-10T09:55:23Z</time>
      </trkpt>
      <trkpt lat="49.32431" lon="0.98515">
        <ele>73.705002</ele>
        <time>2019-01-10T09:55:29Z</time>
      </trkpt>
      <trkpt lat="49.32436" lon="0.98494">
        <ele>73.192497</ele>
        <time>2019-01-10T09:55:35Z</time>
      </trkpt>
      <trkpt lat="49.32439" lon="0.98482">
        <ele>73.053551</ele>
        <time>2019-01-10T09:55:38Z</time>
      </trkpt>
      <trkpt lat="49.32442" lon="0.98471">
        <ele>73.103531</ele>
        <time>2019-01-10T09:55:41Z</time>
      </trkpt>
      <trkpt lat="49.32453" lon="0.98456">
        <ele>74.789925</ele>
        <time>2019-01-10T09:55:48Z</time>
      </trkpt>
      <trkpt lat="49.32456" lon="0.98452">
        <ele>75.20945</ele>
        <time>2019-01-10T09:55:50Z</time>
      </trkpt>
      <trkpt lat="49.32468" lon="0.98435">
        <ele>76.434998</ele>
        <time>2019-01-10T09:55:56Z</time>
      </trkpt>
      <trkpt lat="49.32482" lon="0.98411">
        <ele>76.879204</ele>
        <time>2019-01-10T09:56:02Z</time>
      </trkpt>
      <trkpt lat="49.32501" lon="0.98392">
        <ele>74.877502</ele>
        <time>2019-01-10T09:56:07Z</time>
      </trkpt>
      <trkpt lat="49.32521" lon="0.98385">
        <ele>74.121246</ele>
        <time>2019-01-10T09:56:12Z</time>
      </trkpt>
      <trkpt lat="49.32538" lon="0.98383">
        <ele>74.435577</ele>
        <time>2019-01-10T09:56:18Z</time>
      </trkpt>
      <trkpt lat="49.3256" lon="0.98382">
        <ele>74.985359</ele>
        <time>2019-01-10T09:56:26Z</time>
      </trkpt>
      <trkpt lat="49.32575" lon="0.98379">
        <ele>75.062492</ele>
        <time>2019-01-10T09:56:32Z</time>
      </trkpt>
      <trkpt lat="49.32593" lon="0.98377">
        <ele>75.973129</ele>
        <time>2019-01-10T09:56:38Z</time>
      </trkpt>
      <trkpt lat="49.32606" lon="0.98372">
        <ele>75.859924</ele>
        <time>2019-01-10T09:56:43Z</time>
      </trkpt>
      <trkpt lat="49.32621" lon="0.98367">
        <ele>75.952103</ele>
        <time>2019-01-10T09:56:49Z</time>
      </trkpt>
      <trkpt lat="49.32623" lon="0.98365">
        <ele>75.829323</ele>
        <time>2019-01-10T09:56:50Z</time>
      </trkpt>
      <trkpt lat="49.3263" lon="0.98364">
        <ele>76.364853</ele>
        <time>2019-01-10T09:56:53Z</time>
      </trkpt>
      <trkpt lat="49.32644" lon="0.98356">
        <ele>76.48098</ele>
        <time>2019-01-10T09:56:58Z</time>
      </trkpt>
      <trkpt lat="49.32669" lon="0.98339">
        <ele>76.331596</ele>
        <time>2019-01-10T09:57:06Z</time>
      </trkpt>
      <trkpt lat="49.32685" lon="0.98332">
        <ele>77.772697</ele>
        <time>2019-01-10T09:57:12Z</time>
      </trkpt>
      <trkpt lat="49.3269" lon="0.98328">
        <ele>77.686752</ele>
        <time>2019-01-10T09:57:14Z</time>
      </trkpt>
      <trkpt lat="49.32706" lon="0.98313">
        <ele>77.499855</ele>
        <time>2019-01-10T09:57:18Z</time>
      </trkpt>
      <trkpt lat="49.32732" lon="0.98289">
        <ele>78.430328</ele>
        <time>2019-01-10T09:57:25Z</time>
      </trkpt>
      <trkpt lat="49.32743" lon="0.98275">
        <ele>78.828125</ele>
        <time>2019-01-10T09:57:31Z</time>
      </trkpt>
      <trkpt lat="49.32757" lon="0.98257">
        <ele>79.801559</ele>
        <time>2019-01-10T09:57:37Z</time>
      </trkpt>
      <trkpt lat="49.32766" lon="0.98235">
        <ele>79.413017</ele>
        <time>2019-01-10T09:57:43Z</time>
      </trkpt>
      <trkpt lat="49.32775" lon="0.98211">
        <ele>78.864342</ele>
        <time>2019-01-10T09:57:48Z</time>
      </trkpt>
      <trkpt lat="49.32786" lon="0.98184">
        <ele>78.943977</ele>
        <time>2019-01-10T09:57:54Z</time>
      </trkpt>
      <trkpt lat="49.328" lon="0.98167">
        <ele>79.797935</ele>
        <time>2019-01-10T09:58:00Z</time>
      </trkpt>
      <trkpt lat="49.32804" lon="0.98165">
        <ele>80.055283</ele>
        <time>2019-01-10T09:58:02Z</time>
      </trkpt>
      <trkpt lat="49.32817" lon="0.98152">
        <ele>81.085312</ele>
        <time>2019-01-10T09:58:08Z</time>
      </trkpt>
      <trkpt lat="49.32822" lon="0.98147">
        <ele>81.277237</ele>
        <time>2019-01-10T09:58:10Z</time>
      </trkpt>
      <trkpt lat="49.3284" lon="0.98125">
        <ele>82.113297</ele>
        <time>2019-01-10T09:58:18Z</time>
      </trkpt>
      <trkpt lat="49.32844" lon="0.98118">
        <ele>80.817703</ele>
        <time>2019-01-10T09:58:20Z</time>
      </trkpt>
      <trkpt lat="49.32854" lon="0.98118">
        <ele>80.188438</ele>
        <time>2019-01-10T09:58:26Z</time>
      </trkpt>
      <trkpt lat="49.32855" lon="0.98125">
        <ele>80.885963</ele>
        <time>2019-01-10T09:58:29Z</time>
      </trkpt>
      <trkpt lat="49.32854" lon="0.98138">
        <ele>82.344559</ele>
        <time>2019-01-10T09:58:35Z</time>
      </trkpt>
      <trkpt lat="49.32853" lon="0.98162">
        <ele>85.162125</ele>
        <time>2019-01-10T09:58:44Z</time>
      </trkpt>
      <trkpt lat="49.32854" lon="0.98188">
        <ele>88.008186</ele>
        <time>2019-01-10T09:58:53Z</time>
      </trkpt>
      <trkpt lat="49.32852" lon="0.98207">
        <ele>90.735115</ele>
        <time>2019-01-10T09:59:00Z</time>
      </trkpt>
      <trkpt lat="49.32848" lon="0.98227">
        <ele>94.380913</ele>
        <time>2019-01-10T09:59:08Z</time>
      </trkpt>
      <trkpt lat="49.32847" lon="0.98232">
        <ele>95.221336</ele>
        <time>2019-01-10T09:59:10Z</time>
      </trkpt>
      <trkpt lat="49.32849" lon="0.98242">
        <ele>96.191666</ele>
        <time>2019-01-10T09:59:14Z</time>
      </trkpt>
      <trkpt lat="49.32852" lon="0.98269">
        <ele>97.837196</ele>
        <time>2019-01-10T09:59:24Z</time>
      </trkpt>
      <trkpt lat="49.32853" lon="0.98289">
        <ele>99.132813</ele>
        <time>2019-01-10T09:59:31Z</time>
      </trkpt>
      <trkpt lat="49.32857" lon="0.98313">
        <ele>100.390671</ele>
        <time>2019-01-10T09:59:38Z</time>
      </trkpt>
      <trkpt lat="49.32862" lon="0.9833">
        <ele>101.190651</ele>
        <time>2019-01-10T09:59:43Z</time>
      </trkpt>
      <trkpt lat="49.32866" lon="0.98364">
        <ele>103.638214</ele>
        <time>2019-01-10T09:59:51Z</time>
      </trkpt>
      <trkpt lat="49.32865" lon="0.98372">
        <ele>104.286598</ele>
        <time>2019-01-10T09:59:53Z</time>
      </trkpt>
      <trkpt lat="49.32859" lon="0.98396">
        <ele>106.694252</ele>
        <time>2019-01-10T10:00:00Z</time>
      </trkpt>
      <trkpt lat="49.32855" lon="0.98414">
        <ele>108.008232</ele>
        <time>2019-01-10T10:00:06Z</time>
      </trkpt>
      <trkpt lat="49.32853" lon="0.98436">
        <ele>109.291862</ele>
        <time>2019-01-10T10:00:12Z</time>
      </trkpt>
      <trkpt lat="49.32852" lon="0.9846">
        <ele>110.527496</ele>
        <time>2019-01-10T10:00:17Z</time>
      </trkpt>
      <trkpt lat="49.32849" lon="0.98477">
        <ele>111.6875</ele>
        <time>2019-01-10T10:00:21Z</time>
      </trkpt>
      <trkpt lat="49.32848" lon="0.9849">
        <ele>112.5075</ele>
        <time>2019-01-10T10:00:24Z</time>
      </trkpt>
      <trkpt lat="49.32849" lon="0.98495">
        <ele>112.732498</ele>
        <time>2019-01-10T10:00:25Z</time>
      </trkpt>
      <trkpt lat="49.32849" lon="0.98499">
        <ele>112.962502</ele>
        <time>2019-01-10T10:00:26Z</time>
      </trkpt>
      <trkpt lat="49.32855" lon="0.98532">
        <ele>114.579971</ele>
        <time>2019-01-10T10:00:33Z</time>
      </trkpt>
      <trkpt lat="49.32862" lon="0.98562">
        <ele>115.557487</ele>
        <time>2019-01-10T10:00:39Z</time>
      </trkpt>
      <trkpt lat="49.32877" lon="0.98615">
        <ele>117.269997</ele>
        <time>2019-01-10T10:00:48Z</time>
      </trkpt>
      <trkpt lat="49.32889" lon="0.98647">
        <ele>117.730568</ele>
        <time>2019-01-10T10:00:54Z</time>
      </trkpt>
      <trkpt lat="49.329" lon="0.98686">
        <ele>118.051872</ele>
        <time>2019-01-10T10:01:01Z</time>
      </trkpt>
      <trkpt lat="49.32913" lon="0.98722">
        <ele>118.313751</ele>
        <time>2019-01-10T10:01:08Z</time>
      </trkpt>
      <trkpt lat="49.32915" lon="0.98728">
        <ele>118.348747</ele>
        <time>2019-01-10T10:01:09Z</time>
      </trkpt>
      <trkpt lat="49.32917" lon="0.98734">
        <ele>118.391624</ele>
        <time>2019-01-10T10:01:10Z</time>
      </trkpt>
      <trkpt lat="49.32919" lon="0.9874">
        <ele>118.413422</ele>
        <time>2019-01-10T10:01:11Z</time>
      </trkpt>
      <trkpt lat="49.32921" lon="0.98746">
        <ele>118.443565</ele>
        <time>2019-01-10T10:01:12Z</time>
      </trkpt>
      <trkpt lat="49.32923" lon="0.98752">
        <ele>118.470436</ele>
        <time>2019-01-10T10:01:13Z</time>
      </trkpt>
      <trkpt lat="49.3294" lon="0.98806">
        <ele>118.788254</ele>
        <time>2019-01-10T10:01:22Z</time>
      </trkpt>
      <trkpt lat="49.32949" lon="0.98818">
        <ele>118.460793</ele>
        <time>2019-01-10T10:01:25Z</time>
      </trkpt>
      <trkpt lat="49.32952" lon="0.98819">
        <ele>118.332985</ele>
        <time>2019-01-10T10:01:26Z</time>
      </trkpt>
      <trkpt lat="49.32956" lon="0.98818">
        <ele>118.183083</ele>
        <time>2019-01-10T10:01:27Z</time>
      </trkpt>
      <trkpt lat="49.32964" lon="0.98815">
        <ele>117.854317</ele>
        <time>2019-01-10T10:01:29Z</time>
      </trkpt>
      <trkpt lat="49.32968" lon="0.98813">
        <ele>117.668732</ele>
        <time>2019-01-10T10:01:30Z</time>
      </trkpt>
      <trkpt lat="49.32972" lon="0.98811">
        <ele>117.482513</ele>
        <time>2019-01-10T10:01:31Z</time>
      </trkpt>
      <trkpt lat="49.32976" lon="0.98809">
        <ele>117.275452</ele>
        <time>2019-01-10T10:01:32Z</time>
      </trkpt>
      <trkpt lat="49.32981" lon="0.98806">
        <ele>117.027328</ele>
        <time>2019-01-10T10:01:33Z</time>
      </trkpt>
      <trkpt lat="49.33018" lon="0.98781">
        <ele>112.880379</ele>
        <time>2019-01-10T10:01:41Z</time>
      </trkpt>
      <trkpt lat="49.33043" lon="0.98761">
        <ele>109.06842</ele>
        <time>2019-01-10T10:01:47Z</time>
      </trkpt>
      <trkpt lat="49.33047" lon="0.98757">
        <ele>108.261871</ele>
        <time>2019-01-10T10:01:48Z</time>
      </trkpt>
      <trkpt lat="49.3305" lon="0.98754">
        <ele>107.445595</ele>
        <time>2019-01-10T10:01:49Z</time>
      </trkpt>
      <trkpt lat="49.33055" lon="0.98751">
        <ele>106.55191</ele>
        <time>2019-01-10T10:01:50Z</time>
      </trkpt>
      <trkpt lat="49.3306" lon="0.98747">
        <ele>105.516251</ele>
        <time>2019-01-10T10:01:51Z</time>
      </trkpt>
      <trkpt lat="49.33065" lon="0.98744">
        <ele>104.341766</ele>
        <time>2019-01-10T10:01:52Z</time>
      </trkpt>
      <trkpt lat="49.33077" lon="0.98727">
        <ele>102.682129</ele>
        <time>2019-01-10T10:01:56Z</time>
      </trkpt>
      <trkpt lat="49.33078" lon="0.98714">
        <ele>102.602921</ele>
        <time>2019-01-10T10:01:59Z</time>
      </trkpt>
      <trkpt lat="49.33079" lon="0.98696">
        <ele>102.437164</ele>
        <time>2019-01-10T10:02:03Z</time>
      </trkpt>
      <trkpt lat="49.33083" lon="0.98677">
        <ele>102.779816</ele>
        <time>2019-01-10T10:02:08Z</time>
      </trkpt>
      <trkpt lat="49.33079" lon="0.9865">
        <ele>101.922737</ele>
        <time>2019-01-10T10:02:14Z</time>
      </trkpt>
      <trkpt lat="49.33078" lon="0.98619">
        <ele>101.608856</ele>
        <time>2019-01-10T10:02:19Z</time>
      </trkpt>
      <trkpt lat="49.33083" lon="0.9858">
        <ele>102.957581</ele>
        <time>2019-01-10T10:02:25Z</time>
      </trkpt>
      <trkpt lat="49.33088" lon="0.98552">
        <ele>104.432907</ele>
        <time>2019-01-10T10:02:30Z</time>
      </trkpt>
      <trkpt lat="49.33088" lon="0.98546">
        <ele>104.53405</ele>
        <time>2019-01-10T10:02:31Z</time>
      </trkpt>
      <trkpt lat="49.33094" lon="0.98518">
        <ele>106.361435</ele>
        <time>2019-01-10T10:02:36Z</time>
      </trkpt>
      <trkpt lat="49.33095" lon="0.98508">
        <ele>106.936501</ele>
        <time>2019-01-10T10:02:38Z</time>
      </trkpt>
      <trkpt lat="49.33101" lon="0.98493">
        <ele>108.594688</ele>
        <time>2019-01-10T10:02:42Z</time>
      </trkpt>
      <trkpt lat="49.33103" lon="0.98464">
        <ele>109.142174</ele>
        <time>2019-01-10T10:02:48Z</time>
      </trkpt>
      <trkpt lat="49.33096" lon="0.98447">
        <ele>107.958488</ele>
        <time>2019-01-10T10:02:52Z</time>
      </trkpt>
      <trkpt lat="49.33095" lon="0.98438">
        <ele>107.842537</ele>
        <time>2019-01-10T10:02:54Z</time>
      </trkpt>
      <trkpt lat="49.331" lon="0.98411">
        <ele>109.49189</ele>
        <time>2019-01-10T10:03:00Z</time>
      </trkpt>
      <trkpt lat="49.33096" lon="0.98389">
        <ele>109.209</ele>
        <time>2019-01-10T10:03:05Z</time>
      </trkpt>
      <trkpt lat="49.33102" lon="0.98379">
        <ele>110.481857</ele>
        <time>2019-01-10T10:03:09Z</time>
      </trkpt>
      <trkpt lat="49.33103" lon="0.98364">
        <ele>110.528679</ele>
        <time>2019-01-10T10:03:13Z</time>
      </trkpt>
      <trkpt lat="49.33102" lon="0.98359">
        <ele>110.332565</ele>
        <time>2019-01-10T10:03:14Z</time>
      </trkpt>
      <trkpt lat="49.33096" lon="0.98339">
        <ele>109.305176</ele>
        <time>2019-01-10T10:03:18Z</time>
      </trkpt>
      <trkpt lat="49.33094" lon="0.98319">
        <ele>108.989723</ele>
        <time>2019-01-10T10:03:23Z</time>
      </trkpt>
      <trkpt lat="49.33095" lon="0.98291">
        <ele>108.3405</ele>
        <time>2019-01-10T10:03:29Z</time>
      </trkpt>
      <trkpt lat="49.33099" lon="0.9826">
        <ele>107.617599</ele>
        <time>2019-01-10T10:03:34Z</time>
      </trkpt>
      <trkpt lat="49.33099" lon="0.98223">
        <ele>105.71521</ele>
        <time>2019-01-10T10:03:39Z</time>
      </trkpt>
      <trkpt lat="49.33096" lon="0.98183">
        <ele>102.848747</ele>
        <time>2019-01-10T10:03:44Z</time>
      </trkpt>
      <trkpt lat="49.33106" lon="0.98151">
        <ele>101.160995</ele>
        <time>2019-01-10T10:03:49Z</time>
      </trkpt>
      <trkpt lat="49.33111" lon="0.98127">
        <ele>98.61367</ele>
        <time>2019-01-10T10:03:52Z</time>
      </trkpt>
      <trkpt lat="49.33112" lon="0.98113">
        <ele>97.141037</ele>
        <time>2019-01-10T10:03:54Z</time>
      </trkpt>
      <trkpt lat="49.33117" lon="0.98079">
        <ele>91.69175</ele>
        <time>2019-01-10T10:03:59Z</time>
      </trkpt>
      <trkpt lat="49.33113" lon="0.98042">
        <ele>85.967964</ele>
        <time>2019-01-10T10:04:04Z</time>
      </trkpt>
      <trkpt lat="49.33113" lon="0.98012">
        <ele>82.434998</ele>
        <time>2019-01-10T10:04:08Z</time>
      </trkpt>
      <trkpt lat="49.33113" lon="0.97991">
        <ele>80.010002</ele>
        <time>2019-01-10T10:04:13Z</time>
      </trkpt>
      <trkpt lat="49.33116" lon="0.97985">
        <ele>79.190002</ele>
        <time>2019-01-10T10:04:15Z</time>
      </trkpt>
      <trkpt lat="49.3313" lon="0.97974">
        <ele>77.245003</ele>
        <time>2019-01-10T10:04:22Z</time>
      </trkpt>
      <trkpt lat="49.33134" lon="0.97974">
        <ele>77.099998</ele>
        <time>2019-01-10T10:04:24Z</time>
      </trkpt>
      <trkpt lat="49.33135" lon="0.97976">
        <ele>77.254997</ele>
        <time>2019-01-10T10:04:25Z</time>
      </trkpt>
      <trkpt lat="49.33144" lon="0.97997">
        <ele>79.389999</ele>
        <time>2019-01-10T10:04:34Z</time>
      </trkpt>
      <trkpt lat="49.33153" lon="0.98018">
        <ele>81.34481</ele>
        <time>2019-01-10T10:04:41Z</time>
      </trkpt>
      <trkpt lat="49.33162" lon="0.98042">
        <ele>82.949547</ele>
        <time>2019-01-10T10:04:49Z</time>
      </trkpt>
      <trkpt lat="49.3317" lon="0.98068">
        <ele>85.338753</ele>
        <time>2019-01-10T10:04:57Z</time>
      </trkpt>
      <trkpt lat="49.33174" lon="0.98079">
        <ele>86.247147</ele>
        <time>2019-01-10T10:05:02Z</time>
      </trkpt>
      <trkpt lat="49.33182" lon="0.98078">
        <ele>84.988625</ele>
        <time>2019-01-10T10:05:06Z</time>
      </trkpt>
      <trkpt lat="49.33203" lon="0.98084">
        <ele>82.366173</ele>
        <time>2019-01-10T10:05:13Z</time>
      </trkpt>
      <trkpt lat="49.33213" lon="0.98093">
        <ele>81.631561</ele>
        <time>2019-01-10T10:05:17Z</time>
      </trkpt>
      <trkpt lat="49.33219" lon="0.98104">
        <ele>81.771675</ele>
        <time>2019-01-10T10:05:21Z</time>
      </trkpt>
      <trkpt lat="49.33226" lon="0.98121">
        <ele>82.394028</ele>
        <time>2019-01-10T10:05:28Z</time>
      </trkpt>
      <trkpt lat="49.33241" lon="0.98144">
        <ele>82.065941</ele>
        <time>2019-01-10T10:05:34Z</time>
      </trkpt>
      <trkpt lat="49.33251" lon="0.98165">
        <ele>82.210434</ele>
        <time>2019-01-10T10:05:39Z</time>
      </trkpt>
      <trkpt lat="49.3327" lon="0.98192">
        <ele>80.184586</ele>
        <time>2019-01-10T10:05:45Z</time>
      </trkpt>
      <trkpt lat="49.3328" lon="0.98215">
        <ele>79.476471</ele>
        <time>2019-01-10T10:05:50Z</time>
      </trkpt>
      <trkpt lat="49.33291" lon="0.98242">
        <ele>78.694702</ele>
        <time>2019-01-10T10:05:57Z</time>
      </trkpt>
      <trkpt lat="49.33306" lon="0.98262">
        <ele>79.846252</ele>
        <time>2019-01-10T10:06:03Z</time>
      </trkpt>
      <trkpt lat="49.33324" lon="0.98273">
        <ele>78.968025</ele>
        <time>2019-01-10T10:06:09Z</time>
      </trkpt>
      <trkpt lat="49.33348" lon="0.98279">
        <ele>79.076553</ele>
        <time>2019-01-10T10:06:15Z</time>
      </trkpt>
      <trkpt lat="49.33358" lon="0.98281">
        <ele>79.447823</ele>
        <time>2019-01-10T10:06:17Z</time>
      </trkpt>
      <trkpt lat="49.33363" lon="0.9827">
        <ele>78.676445</ele>
        <time>2019-01-10T10:06:18Z</time>
      </trkpt>
      <trkpt lat="49.33365" lon="0.98261">
        <ele>78.110977</ele>
        <time>2019-01-10T10:06:21Z</time>
      </trkpt>
      <trkpt lat="49.33347" lon="0.98259">
        <ele>76.697189</ele>
        <time>2019-01-10T10:06:34Z</time>
      </trkpt>
      <trkpt lat="49.33345" lon="0.9826">
        <ele>76.706657</ele>
        <time>2019-01-10T10:06:35Z</time>
      </trkpt>
      <trkpt lat="49.33344" lon="0.9826">
        <ele>76.653542</ele>
        <time>2019-01-10T10:06:36Z</time>
      </trkpt>
      <trkpt lat="49.33343" lon="0.98259">
        <ele>76.411125</ele>
        <time>2019-01-10T10:06:37Z</time>
      </trkpt>
      <trkpt lat="49.33342" lon="0.98257">
        <ele>76.107368</ele>
        <time>2019-01-10T10:06:38Z</time>
      </trkpt>
      <trkpt lat="49.33343" lon="0.98252">
        <ele>75.5382</ele>
        <time>2019-01-10T10:06:40Z</time>
      </trkpt>
      <trkpt lat="49.33346" lon="0.98239">
        <ele>74.406403</ele>
        <time>2019-01-10T10:06:43Z</time>
      </trkpt>
      <trkpt lat="49.33341" lon="0.9823">
        <ele>73.616798</ele>
        <time>2019-01-10T10:06:49Z</time>
      </trkpt>
      <trkpt lat="49.33346" lon="0.9822">
        <ele>73.914101</ele>
        <time>2019-01-10T10:06:54Z</time>
      </trkpt>
      <trkpt lat="49.33343" lon="0.98199">
        <ele>72.986198</ele>
        <time>2019-01-10T10:06:58Z</time>
      </trkpt>
      <trkpt lat="49.33342" lon="0.98188">
        <ele>72.468658</ele>
        <time>2019-01-10T10:07:00Z</time>
      </trkpt>
      <trkpt lat="49.33339" lon="0.98155">
        <ele>70.269379</ele>
        <time>2019-01-10T10:07:05Z</time>
      </trkpt>
      <trkpt lat="49.3333" lon="0.98106">
        <ele>65.403122</ele>
        <time>2019-01-10T10:07:11Z</time>
      </trkpt>
      <trkpt lat="49.33328" lon="0.981">
        <ele>65.199799</ele>
        <time>2019-01-10T10:07:14Z</time>
      </trkpt>
      <trkpt lat="49.33328" lon="0.98073">
        <ele>63.512962</ele>
        <time>2019-01-10T10:07:20Z</time>
      </trkpt>
      <trkpt lat="49.33323" lon="0.98038">
        <ele>61.780563</ele>
        <time>2019-01-10T10:07:26Z</time>
      </trkpt>
      <trkpt lat="49.3332" lon="0.98019">
        <ele>60.791851</ele>
        <time>2019-01-10T10:07:29Z</time>
      </trkpt>
      <trkpt lat="49.33319" lon="0.98003">
        <ele>59.924099</ele>
        <time>2019-01-10T10:07:31Z</time>
      </trkpt>
      <trkpt lat="49.33318" lon="0.97967">
        <ele>57.811123</ele>
        <time>2019-01-10T10:07:35Z</time>
      </trkpt>
      <trkpt lat="49.33321" lon="0.97939">
        <ele>56.092251</ele>
        <time>2019-01-10T10:07:38Z</time>
      </trkpt>
      <trkpt lat="49.33315" lon="0.97899">
        <ele>53.182323</ele>
        <time>2019-01-10T10:07:43Z</time>
      </trkpt>
      <trkpt lat="49.33313" lon="0.97892">
        <ele>52.535</ele>
        <time>2019-01-10T10:07:44Z</time>
      </trkpt>
      <trkpt lat="49.33305" lon="0.97847">
        <ele>48.845001</ele>
        <time>2019-01-10T10:07:49Z</time>
      </trkpt>
      <trkpt lat="49.33295" lon="0.978">
        <ele>45.343826</ele>
        <time>2019-01-10T10:07:54Z</time>
      </trkpt>
      <trkpt lat="49.33281" lon="0.97761">
        <ele>42.110001</ele>
        <time>2019-01-10T10:07:59Z</time>
      </trkpt>
      <trkpt lat="49.33258" lon="0.9772">
        <ele>40.979931</ele>
        <time>2019-01-10T10:08:04Z</time>
      </trkpt>
      <trkpt lat="49.3322" lon="0.97659">
        <ele>38.744064</ele>
        <time>2019-01-10T10:08:11Z</time>
      </trkpt>
      <trkpt lat="49.33192" lon="0.9762">
        <ele>36.622665</ele>
        <time>2019-01-10T10:08:16Z</time>
      </trkpt>
      <trkpt lat="49.3317" lon="0.97586">
        <ele>34.935375</ele>
        <time>2019-01-10T10:08:22Z</time>
      </trkpt>
      <trkpt lat="49.33156" lon="0.97568">
        <ele>33.746151</ele>
        <time>2019-01-10T10:08:25Z</time>
      </trkpt>
      <trkpt lat="49.33134" lon="0.97546">
        <ele>32.287498</ele>
        <time>2019-01-10T10:08:29Z</time>
      </trkpt>
      <trkpt lat="49.33098" lon="0.97516">
        <ele>30.465</ele>
        <time>2019-01-10T10:08:35Z</time>
      </trkpt>
      <trkpt lat="49.33083" lon="0.97487">
        <ele>28.598894</ele>
        <time>2019-01-10T10:08:40Z</time>
      </trkpt>
      <trkpt lat="49.33063" lon="0.97489">
        <ele>28.187809</ele>
      </trkpt>
      <trkpt lat="49.33054" lon="0.9747">
        <ele>27.99</ele>
        <time>2019-01-10T10:14:31Z</time>
      </trkpt>
      <trkpt lat="49.33054" lon="0.97467">
        <ele>27.995001</ele>
        <time>2019-01-10T10:14:32Z</time>
      </trkpt>
      <trkpt lat="49.33054" lon="0.97463">
        <ele>27.98</ele>
        <time>2019-01-10T10:14:33Z</time>
      </trkpt>
      <trkpt lat="49.33046" lon="0.97449">
        <ele>27.82</ele>
        <time>2019-01-10T10:14:36Z</time>
      </trkpt>
      <trkpt lat="49.3304" lon="0.9744">
        <ele>27.68</ele>
        <time>2019-01-10T10:14:38Z</time>
      </trkpt>
      <trkpt lat="49.33036" lon="0.97436">
        <ele>27.6</ele>
        <time>2019-01-10T10:14:39Z</time>
      </trkpt>
      <trkpt lat="49.33032" lon="0.97433">
        <ele>27.504999</ele>
        <time>2019-01-10T10:14:40Z</time>
      </trkpt>
      <trkpt lat="49.33014" lon="0.97422">
        <ele>27.176804</ele>
        <time>2019-01-10T10:14:44Z</time>
      </trkpt>
      <trkpt lat="49.32983" lon="0.97411">
        <ele>26.30998</ele>
        <time>2019-01-10T10:14:50Z</time>
      </trkpt>
      <trkpt lat="49.32966" lon="0.97404">
        <ele>25.711168</ele>
        <time>2019-01-10T10:14:54Z</time>
      </trkpt>
      <trkpt lat="49.32928" lon="0.97392">
        <ele>25.192076</ele>
        <time>2019-01-10T10:15:02Z</time>
      </trkpt>
      <trkpt lat="49.32893" lon="0.97382">
        <ele>25.97875</ele>
        <time>2019-01-10T10:15:09Z</time>
      </trkpt>
      <trkpt lat="49.32872" lon="0.97377">
        <ele>26.606771</ele>
        <time>2019-01-10T10:15:13Z</time>
      </trkpt>
      <trkpt lat="49.32817" lon="0.97362">
        <ele>27.101587</ele>
        <time>2019-01-10T10:15:23Z</time>
      </trkpt>
      <trkpt lat="49.32812" lon="0.9736">
        <ele>26.945</ele>
        <time>2019-01-10T10:15:24Z</time>
      </trkpt>
      <trkpt lat="49.32808" lon="0.97358">
        <ele>26.8325</ele>
        <time>2019-01-10T10:15:25Z</time>
      </trkpt>
      <trkpt lat="49.32767" lon="0.97353">
        <ele>25.870001</ele>
        <time>2019-01-10T10:15:33Z</time>
      </trkpt>
      <trkpt lat="49.32762" lon="0.97355">
        <ele>25.726999</ele>
        <time>2019-01-10T10:15:34Z</time>
      </trkpt>
      <trkpt lat="49.32758" lon="0.97357">
        <ele>25.6598</ele>
        <time>2019-01-10T10:15:35Z</time>
      </trkpt>
      <trkpt lat="49.32754" lon="0.9736">
        <ele>25.606586</ele>
        <time>2019-01-10T10:15:36Z</time>
      </trkpt>
      <trkpt lat="49.3275" lon="0.97365">
        <ele>25.7418</ele>
        <time>2019-01-10T10:15:37Z</time>
      </trkpt>
      <trkpt lat="49.32746" lon="0.97369">
        <ele>26.0154</ele>
        <time>2019-01-10T10:15:38Z</time>
      </trkpt>
      <trkpt lat="49.32734" lon="0.97383">
        <ele>26.583887</ele>
        <time>2019-01-10T10:15:41Z</time>
      </trkpt>
      <trkpt lat="49.32731" lon="0.97388">
        <ele>26.635593</ele>
        <time>2019-01-10T10:15:42Z</time>
      </trkpt>
      <trkpt lat="49.32721" lon="0.97405">
        <ele>26.585875</ele>
        <time>2019-01-10T10:15:45Z</time>
      </trkpt>
      <trkpt lat="49.32719" lon="0.9741">
        <ele>26.570625</ele>
        <time>2019-01-10T10:15:46Z</time>
      </trkpt>
      <trkpt lat="49.32717" lon="0.97416">
        <ele>26.564232</ele>
        <time>2019-01-10T10:15:47Z</time>
      </trkpt>
      <trkpt lat="49.32712" lon="0.9743">
        <ele>26.397274</ele>
        <time>2019-01-10T10:15:49Z</time>
      </trkpt>
      <trkpt lat="49.32709" lon="0.97443">
        <ele>26.000437</ele>
        <time>2019-01-10T10:15:51Z</time>
      </trkpt>
      <trkpt lat="49.32704" lon="0.97457">
        <ele>25.220406</ele>
        <time>2019-01-10T10:15:53Z</time>
      </trkpt>
      <trkpt lat="49.32702" lon="0.97465">
        <ele>24.823</ele>
        <time>2019-01-10T10:15:54Z</time>
      </trkpt>
      <trkpt lat="49.32696" lon="0.97496">
        <ele>23.204937</ele>
        <time>2019-01-10T10:15:58Z</time>
      </trkpt>
      <trkpt lat="49.32691" lon="0.97551">
        <ele>22.1625</ele>
        <time>2019-01-10T10:16:04Z</time>
      </trkpt>
      <trkpt lat="49.32691" lon="0.97558">
        <ele>22.050625</ele>
        <time>2019-01-10T10:16:05Z</time>
      </trkpt>
      <trkpt lat="49.32691" lon="0.97566">
        <ele>21.94375</ele>
        <time>2019-01-10T10:16:06Z</time>
      </trkpt>
      <trkpt lat="49.32696" lon="0.97614">
        <ele>21.356447</ele>
        <time>2019-01-10T10:16:12Z</time>
      </trkpt>
      <trkpt lat="49.32701" lon="0.97638">
        <ele>22.267494</ele>
        <time>2019-01-10T10:16:15Z</time>
      </trkpt>
      <trkpt lat="49.32703" lon="0.97646">
        <ele>22.828238</ele>
        <time>2019-01-10T10:16:16Z</time>
      </trkpt>
      <trkpt lat="49.32705" lon="0.97655">
        <ele>23.218075</ele>
        <time>2019-01-10T10:16:17Z</time>
      </trkpt>
      <trkpt lat="49.32712" lon="0.97704">
        <ele>24.30525</ele>
        <time>2019-01-10T10:16:23Z</time>
      </trkpt>
      <trkpt lat="49.32714" lon="0.97726">
        <ele>24.062984</ele>
        <time>2019-01-10T10:16:26Z</time>
      </trkpt>
      <trkpt lat="49.32713" lon="0.9773">
        <ele>23.650999</ele>
        <time>2019-01-10T10:16:27Z</time>
      </trkpt>
      <trkpt lat="49.3271" lon="0.97735">
        <ele>23.138906</ele>
        <time>2019-01-10T10:16:28Z</time>
      </trkpt>
      <trkpt lat="49.32708" lon="0.97741">
        <ele>22.543266</ele>
        <time>2019-01-10T10:16:29Z</time>
      </trkpt>
      <trkpt lat="49.32705" lon="0.97746">
        <ele>22.1465</ele>
        <time>2019-01-10T10:16:30Z</time>
      </trkpt>
      <trkpt lat="49.32695" lon="0.9777">
        <ele>21.068203</ele>
        <time>2019-01-10T10:16:35Z</time>
      </trkpt>
      <trkpt lat="49.32692" lon="0.97773">
        <ele>21.143156</ele>
        <time>2019-01-10T10:16:36Z</time>
      </trkpt>
      <trkpt lat="49.32689" lon="0.97775">
        <ele>21.216013</ele>
        <time>2019-01-10T10:16:37Z</time>
      </trkpt>
      <trkpt lat="49.32686" lon="0.97776">
        <ele>21.290363</ele>
        <time>2019-01-10T10:16:38Z</time>
      </trkpt>
      <trkpt lat="49.32682" lon="0.97777">
        <ele>21.375088</ele>
        <time>2019-01-10T10:16:39Z</time>
      </trkpt>
      <trkpt lat="49.32665" lon="0.97786">
        <ele>21.857374</ele>
        <time>2019-01-10T10:16:44Z</time>
      </trkpt>
      <trkpt lat="49.32651" lon="0.97788">
        <ele>22.396935</ele>
        <time>2019-01-10T10:16:49Z</time>
      </trkpt>
      <trkpt lat="49.32633" lon="0.97784">
        <ele>24.070562</ele>
        <time>2019-01-10T10:16:54Z</time>
      </trkpt>
      <trkpt lat="49.32609" lon="0.97778">
        <ele>25.912809</ele>
        <time>2019-01-10T10:17:00Z</time>
      </trkpt>
      <trkpt lat="49.32579" lon="0.97771">
        <ele>28.0282</ele>
        <time>2019-01-10T10:17:08Z</time>
      </trkpt>
      <trkpt lat="49.32565" lon="0.97767">
        <ele>28.829662</ele>
        <time>2019-01-10T10:17:12Z</time>
      </trkpt>
      <trkpt lat="49.32538" lon="0.97762">
        <ele>31.068863</ele>
        <time>2019-01-10T10:17:19Z</time>
      </trkpt>
      <trkpt lat="49.32521" lon="0.97756">
        <ele>32.333549</ele>
        <time>2019-01-10T10:17:25Z</time>
      </trkpt>
      <trkpt lat="49.32508" lon="0.97751">
        <ele>34.020264</ele>
        <time>2019-01-10T10:17:31Z</time>
      </trkpt>
      <trkpt lat="49.32492" lon="0.97746">
        <ele>36.715488</ele>
        <time>2019-01-10T10:17:37Z</time>
      </trkpt>
      <trkpt lat="49.3248" lon="0.97742">
        <ele>38.946301</ele>
        <time>2019-01-10T10:17:42Z</time>
      </trkpt>
      <trkpt lat="49.32465" lon="0.97737">
        <ele>41.657402</ele>
        <time>2019-01-10T10:17:48Z</time>
      </trkpt>
      <trkpt lat="49.3245" lon="0.97733">
        <ele>44.4179</ele>
        <time>2019-01-10T10:17:55Z</time>
      </trkpt>
      <trkpt lat="49.32434" lon="0.9773">
        <ele>47.724113</ele>
        <time>2019-01-10T10:18:02Z</time>
      </trkpt>
      <trkpt lat="49.32422" lon="0.97727">
        <ele>49.855526</ele>
        <time>2019-01-10T10:18:08Z</time>
      </trkpt>
      <trkpt lat="49.3242" lon="0.97727">
        <ele>50.169537</ele>
        <time>2019-01-10T10:18:09Z</time>
      </trkpt>
      <trkpt lat="49.32413" lon="0.97718">
        <ele>51.700062</ele>
        <time>2019-01-10T10:18:14Z</time>
      </trkpt>
      <trkpt lat="49.32406" lon="0.9771">
        <ele>52.350498</ele>
        <time>2019-01-10T10:18:18Z</time>
      </trkpt>
      <trkpt lat="49.32403" lon="0.97684">
        <ele>50.30175</ele>
        <time>2019-01-10T10:18:25Z</time>
      </trkpt>
      <trkpt lat="49.32401" lon="0.97676">
        <ele>50.046249</ele>
        <time>2019-01-10T10:18:27Z</time>
      </trkpt>
      <trkpt lat="49.32391" lon="0.97648">
        <ele>50.031811</ele>
        <time>2019-01-10T10:18:33Z</time>
      </trkpt>
      <trkpt lat="49.32378" lon="0.97636">
        <ele>51.11755</ele>
        <time>2019-01-10T10:18:38Z</time>
      </trkpt>
      <trkpt lat="49.32369" lon="0.97621">
        <ele>50.375126</ele>
        <time>2019-01-10T10:18:45Z</time>
      </trkpt>
      <trkpt lat="49.32364" lon="0.97609">
        <ele>49.427555</ele>
        <time>2019-01-10T10:18:52Z</time>
      </trkpt>
      <trkpt lat="49.32364" lon="0.97602">
        <ele>48.308556</ele>
        <time>2019-01-10T10:19:00Z</time>
      </trkpt>
      <trkpt lat="49.32364" lon="0.976">
        <ele>48.076569</ele>
        <time>2019-01-10T10:19:07Z</time>
      </trkpt>
      <trkpt lat="49.32368" lon="0.97593">
        <ele>45.9198</ele>
        <time>2019-01-10T10:19:13Z</time>
      </trkpt>
      <trkpt lat="49.32377" lon="0.97575">
        <ele>40.77935</ele>
        <time>2019-01-10T10:19:18Z</time>
      </trkpt>
      <trkpt lat="49.32392" lon="0.97548">
        <ele>34.836838</ele>
        <time>2019-01-10T10:19:25Z</time>
      </trkpt>
      <trkpt lat="49.32404" lon="0.97525">
        <ele>32.802814</ele>
        <time>2019-01-10T10:19:31Z</time>
      </trkpt>
      <trkpt lat="49.32419" lon="0.97501">
        <ele>34.564861</ele>
        <time>2019-01-10T10:19:38Z</time>
      </trkpt>
      <trkpt lat="49.32435" lon="0.97473">
        <ele>41.587311</ele>
        <time>2019-01-10T10:19:45Z</time>
      </trkpt>
      <trkpt lat="49.32456" lon="0.97436">
        <ele>50.4216</ele>
        <time>2019-01-10T10:19:54Z</time>
      </trkpt>
      <trkpt lat="49.32459" lon="0.97427">
        <ele>52.009377</ele>
        <time>2019-01-10T10:19:56Z</time>
      </trkpt>
      <trkpt lat="49.32458" lon="0.97421">
        <ele>52.666561</ele>
        <time>2019-01-10T10:19:58Z</time>
      </trkpt>
      <trkpt lat="49.32454" lon="0.97417">
        <ele>52.660477</ele>
        <time>2019-01-10T10:19:59Z</time>
      </trkpt>
      <trkpt lat="49.32451" lon="0.97416">
        <ele>52.516548</ele>
        <time>2019-01-10T10:20:00Z</time>
      </trkpt>
      <trkpt lat="49.32429" lon="0.97406">
        <ele>51.72393</ele>
        <time>2019-01-10T10:20:06Z</time>
      </trkpt>
      <trkpt lat="49.32425" lon="0.97403">
        <ele>51.78875</ele>
        <time>2019-01-10T10:20:07Z</time>
      </trkpt>
      <trkpt lat="49.32421" lon="0.974">
        <ele>51.598701</ele>
        <time>2019-01-10T10:20:08Z</time>
      </trkpt>
      <trkpt lat="49.32418" lon="0.97396">
        <ele>51.561314</ele>
        <time>2019-01-10T10:20:09Z</time>
      </trkpt>
      <trkpt lat="49.32415" lon="0.97392">
        <ele>51.725983</ele>
        <time>2019-01-10T10:20:10Z</time>
      </trkpt>
      <trkpt lat="49.32413" lon="0.97388">
        <ele>51.982697</ele>
        <time>2019-01-10T10:20:11Z</time>
      </trkpt>
      <trkpt lat="49.32411" lon="0.97384">
        <ele>52.258938</ele>
        <time>2019-01-10T10:20:12Z</time>
      </trkpt>
      <trkpt lat="49.32409" lon="0.9738">
        <ele>52.381592</ele>
        <time>2019-01-10T10:20:13Z</time>
      </trkpt>
      <trkpt lat="49.32397" lon="0.97366">
        <ele>52.771252</ele>
        <time>2019-01-10T10:20:18Z</time>
      </trkpt>
      <trkpt lat="49.3238" lon="0.97346">
        <ele>53.331249</ele>
        <time>2019-01-10T10:20:25Z</time>
      </trkpt>
      <trkpt lat="49.32365" lon="0.97331">
        <ele>53.495743</ele>
        <time>2019-01-10T10:20:31Z</time>
      </trkpt>
      <trkpt lat="49.32353" lon="0.97316">
        <ele>53.874207</ele>
        <time>2019-01-10T10:20:36Z</time>
      </trkpt>
      <trkpt lat="49.32335" lon="0.97296">
        <ele>54.486469</ele>
        <time>2019-01-10T10:20:43Z</time>
      </trkpt>
      <trkpt lat="49.32318" lon="0.97275">
        <ele>57.606651</ele>
        <time>2019-01-10T10:20:49Z</time>
      </trkpt>
      <trkpt lat="49.323" lon="0.97255">
        <ele>60.031284</ele>
        <time>2019-01-10T10:20:56Z</time>
      </trkpt>
      <trkpt lat="49.32283" lon="0.97237">
        <ele>62.154163</ele>
        <time>2019-01-10T10:21:03Z</time>
      </trkpt>
      <trkpt lat="49.32264" lon="0.97223">
        <ele>62.734501</ele>
        <time>2019-01-10T10:21:10Z</time>
      </trkpt>
      <trkpt lat="49.32238" lon="0.97211">
        <ele>62.059849</ele>
        <time>2019-01-10T10:21:19Z</time>
      </trkpt>
      <trkpt lat="49.32222" lon="0.97191">
        <ele>64.272934</ele>
        <time>2019-01-10T10:21:25Z</time>
      </trkpt>
      <trkpt lat="49.3222" lon="0.97163">
        <ele>69.80439</ele>
        <time>2019-01-10T10:21:31Z</time>
      </trkpt>
      <trkpt lat="49.32222" lon="0.97124">
        <ele>72.676796</ele>
        <time>2019-01-10T10:21:39Z</time>
      </trkpt>
      <trkpt lat="49.32227" lon="0.97099">
        <ele>75.374298</ele>
        <time>2019-01-10T10:21:45Z</time>
      </trkpt>
      <trkpt lat="49.32236" lon="0.9707">
        <ele>76.448326</ele>
        <time>2019-01-10T10:21:51Z</time>
      </trkpt>
      <trkpt lat="49.32247" lon="0.97043">
        <ele>78.303436</ele>
        <time>2019-01-10T10:21:57Z</time>
      </trkpt>
      <trkpt lat="49.32262" lon="0.97007">
        <ele>80.184479</ele>
        <time>2019-01-10T10:22:06Z</time>
      </trkpt>
      <trkpt lat="49.32275" lon="0.96978">
        <ele>82.184601</ele>
        <time>2019-01-10T10:22:14Z</time>
      </trkpt>
      <trkpt lat="49.32285" lon="0.96958">
        <ele>84.553749</ele>
        <time>2019-01-10T10:22:20Z</time>
      </trkpt>
      <trkpt lat="49.32293" lon="0.96939">
        <ele>85.377472</ele>
        <time>2019-01-10T10:22:25Z</time>
      </trkpt>
      <trkpt lat="49.32302" lon="0.96917">
        <ele>86.677704</ele>
        <time>2019-01-10T10:22:31Z</time>
      </trkpt>
      <trkpt lat="49.3231" lon="0.96894">
        <ele>88.256111</ele>
        <time>2019-01-10T10:22:37Z</time>
      </trkpt>
      <trkpt lat="49.32319" lon="0.96867">
        <ele>90.489151</ele>
        <time>2019-01-10T10:22:44Z</time>
      </trkpt>
      <trkpt lat="49.32326" lon="0.96842">
        <ele>92.024506</ele>
        <time>2019-01-10T10:22:51Z</time>
      </trkpt>
      <trkpt lat="49.32331" lon="0.96819">
        <ele>92.465271</ele>
        <time>2019-01-10T10:22:57Z</time>
      </trkpt>
      <trkpt lat="49.3234" lon="0.96796">
        <ele>93.648354</ele>
        <time>2019-01-10T10:23:03Z</time>
      </trkpt>
      <trkpt lat="49.32353" lon="0.96769">
        <ele>95.903297</ele>
        <time>2019-01-10T10:23:10Z</time>
      </trkpt>
      <trkpt lat="49.32355" lon="0.96759">
        <ele>96.096252</ele>
        <time>2019-01-10T10:23:12Z</time>
      </trkpt>
      <trkpt lat="49.32355" lon="0.96752">
        <ele>96.069748</ele>
        <time>2019-01-10T10:23:13Z</time>
      </trkpt>
      <trkpt lat="49.32353" lon="0.96719">
        <ele>96.178719</ele>
        <time>2019-01-10T10:23:18Z</time>
      </trkpt>
      <trkpt lat="49.32343" lon="0.96661">
        <ele>96.377419</ele>
        <time>2019-01-10T10:23:25Z</time>
      </trkpt>
      <trkpt lat="49.32342" lon="0.96653">
        <ele>96.691063</ele>
        <time>2019-01-10T10:23:26Z</time>
      </trkpt>
      <trkpt lat="49.32341" lon="0.96645">
        <ele>96.958748</ele>
        <time>2019-01-10T10:23:27Z</time>
      </trkpt>
      <trkpt lat="49.32339" lon="0.96637">
        <ele>97.222954</ele>
        <time>2019-01-10T10:23:28Z</time>
      </trkpt>
      <trkpt lat="49.32337" lon="0.96629">
        <ele>97.508911</ele>
        <time>2019-01-10T10:23:29Z</time>
      </trkpt>
      <trkpt lat="49.32335" lon="0.96621">
        <ele>97.786568</ele>
        <time>2019-01-10T10:23:30Z</time>
      </trkpt>
      <trkpt lat="49.32333" lon="0.96613">
        <ele>97.993324</ele>
        <time>2019-01-10T10:23:31Z</time>
      </trkpt>
      <trkpt lat="49.32332" lon="0.96605">
        <ele>98.217491</ele>
        <time>2019-01-10T10:23:32Z</time>
      </trkpt>
      <trkpt lat="49.32331" lon="0.9659">
        <ele>98.759201</ele>
        <time>2019-01-10T10:23:34Z</time>
      </trkpt>
      <trkpt lat="49.32331" lon="0.96581">
        <ele>99.080612</ele>
        <time>2019-01-10T10:23:35Z</time>
      </trkpt>
      <trkpt lat="49.32332" lon="0.96527">
        <ele>101.156204</ele>
        <time>2019-01-10T10:23:43Z</time>
      </trkpt>
      <trkpt lat="49.32331" lon="0.96479">
        <ele>102.464996</ele>
        <time>2019-01-10T10:23:51Z</time>
      </trkpt>
      <trkpt lat="49.32332" lon="0.96472">
        <ele>102.495003</ele>
        <time>2019-01-10T10:23:52Z</time>
      </trkpt>
      <trkpt lat="49.32341" lon="0.96404">
        <ele>103.164787</ele>
        <time>2019-01-10T10:24:02Z</time>
      </trkpt>
      <trkpt lat="49.3235" lon="0.96357">
        <ele>103.95475</ele>
        <time>2019-01-10T10:24:09Z</time>
      </trkpt>
      <trkpt lat="49.3236" lon="0.96307">
        <ele>105.621048</ele>
        <time>2019-01-10T10:24:16Z</time>
      </trkpt>
      <trkpt lat="49.32361" lon="0.96298">
        <ele>105.895378</ele>
        <time>2019-01-10T10:24:17Z</time>
      </trkpt>
      <trkpt lat="49.32369" lon="0.96241">
        <ele>107.623123</ele>
        <time>2019-01-10T10:24:24Z</time>
      </trkpt>
      <trkpt lat="49.32375" lon="0.96211">
        <ele>108.463753</ele>
        <time>2019-01-10T10:24:28Z</time>
      </trkpt>
      <trkpt lat="49.32376" lon="0.96203">
        <ele>108.691925</ele>
        <time>2019-01-10T10:24:29Z</time>
      </trkpt>
      <trkpt lat="49.32379" lon="0.9619">
        <ele>108.998444</ele>
        <time>2019-01-10T10:24:31Z</time>
      </trkpt>
      <trkpt lat="49.32381" lon="0.96183">
        <ele>109.187653</ele>
        <time>2019-01-10T10:24:32Z</time>
      </trkpt>
      <trkpt lat="49.32392" lon="0.96143">
        <ele>110.149002</ele>
        <time>2019-01-10T10:24:38Z</time>
      </trkpt>
      <trkpt lat="49.32394" lon="0.9613">
        <ele>110.290001</ele>
        <time>2019-01-10T10:24:40Z</time>
      </trkpt>
      <trkpt lat="49.32395" lon="0.96123">
        <ele>110.339996</ele>
        <time>2019-01-10T10:24:41Z</time>
      </trkpt>
      <trkpt lat="49.32401" lon="0.96094">
        <ele>110.610001</ele>
        <time>2019-01-10T10:24:45Z</time>
      </trkpt>
      <trkpt lat="49.32405" lon="0.96082">
        <ele>110.790001</ele>
        <time>2019-01-10T10:24:47Z</time>
      </trkpt>
      <trkpt lat="49.32424" lon="0.96034">
        <ele>111.346672</ele>
        <time>2019-01-10T10:24:55Z</time>
      </trkpt>
      <trkpt lat="49.32425" lon="0.96027">
        <ele>111.34494</ele>
        <time>2019-01-10T10:24:56Z</time>
      </trkpt>
      <trkpt lat="49.32429" lon="0.95982">
        <ele>111.230858</ele>
        <time>2019-01-10T10:25:03Z</time>
      </trkpt>
      <trkpt lat="49.32431" lon="0.95961">
        <ele>111.265228</ele>
        <time>2019-01-10T10:25:06Z</time>
      </trkpt>
      <trkpt lat="49.32435" lon="0.95933">
        <ele>111.588272</ele>
        <time>2019-01-10T10:25:10Z</time>
      </trkpt>
      <trkpt lat="49.32439" lon="0.95895">
        <ele>111.733124</ele>
        <time>2019-01-10T10:25:16Z</time>
      </trkpt>
      <trkpt lat="49.32438" lon="0.95871">
        <ele>111.298752</ele>
        <time>2019-01-10T10:25:21Z</time>
      </trkpt>
      <trkpt lat="49.32442" lon="0.95844">
        <ele>111.587051</ele>
        <time>2019-01-10T10:25:28Z</time>
      </trkpt>
      <trkpt lat="49.32448" lon="0.95815">
        <ele>112.346939</ele>
        <time>2019-01-10T10:25:34Z</time>
      </trkpt>
      <trkpt lat="49.32452" lon="0.95803">
        <ele>113.059998</ele>
        <time>2019-01-10T10:25:36Z</time>
      </trkpt>
      <trkpt lat="49.32455" lon="0.95797">
        <ele>113.224998</ele>
        <time>2019-01-10T10:25:37Z</time>
      </trkpt>
      <trkpt lat="49.32457" lon="0.9579">
        <ele>113.404999</ele>
        <time>2019-01-10T10:25:38Z</time>
      </trkpt>
      <trkpt lat="49.32459" lon="0.95784">
        <ele>113.4785</ele>
        <time>2019-01-10T10:25:39Z</time>
      </trkpt>
      <trkpt lat="49.32461" lon="0.95778">
        <ele>113.514</ele>
        <time>2019-01-10T10:25:40Z</time>
      </trkpt>
      <trkpt lat="49.32463" lon="0.95772">
        <ele>113.576889</ele>
        <time>2019-01-10T10:25:41Z</time>
      </trkpt>
      <trkpt lat="49.32464" lon="0.95766">
        <ele>113.663315</ele>
        <time>2019-01-10T10:25:42Z</time>
      </trkpt>
      <trkpt lat="49.32466" lon="0.9576">
        <ele>113.723625</ele>
        <time>2019-01-10T10:25:43Z</time>
      </trkpt>
      <trkpt lat="49.32468" lon="0.95754">
        <ele>113.804688</ele>
        <time>2019-01-10T10:25:44Z</time>
      </trkpt>
      <trkpt lat="49.32469" lon="0.95748">
        <ele>113.842247</ele>
        <time>2019-01-10T10:25:45Z</time>
      </trkpt>
      <trkpt lat="49.3247" lon="0.95743">
        <ele>113.891548</ele>
        <time>2019-01-10T10:25:46Z</time>
      </trkpt>
      <trkpt lat="49.32471" lon="0.95738">
        <ele>113.962379</ele>
        <time>2019-01-10T10:25:47Z</time>
      </trkpt>
      <trkpt lat="49.32472" lon="0.95733">
        <ele>114.03495</ele>
        <time>2019-01-10T10:25:48Z</time>
      </trkpt>
      <trkpt lat="49.32474" lon="0.95727">
        <ele>114.110626</ele>
        <time>2019-01-10T10:25:49Z</time>
      </trkpt>
      <trkpt lat="49.32476" lon="0.95721">
        <ele>114.229736</ele>
        <time>2019-01-10T10:25:50Z</time>
      </trkpt>
      <trkpt lat="49.32485" lon="0.95681">
        <ele>115.139999</ele>
        <time>2019-01-10T10:25:57Z</time>
      </trkpt>
      <trkpt lat="49.32492" lon="0.95652">
        <ele>115.779999</ele>
        <time>2019-01-10T10:26:02Z</time>
      </trkpt>
      <trkpt lat="49.32501" lon="0.9562">
        <ele>116.150002</ele>
        <time>2019-01-10T10:26:07Z</time>
      </trkpt>
      <trkpt lat="49.3251" lon="0.95592">
        <ele>116.349998</ele>
        <time>2019-01-10T10:26:12Z</time>
      </trkpt>
      <trkpt lat="49.32516" lon="0.95578">
        <ele>116.474686</ele>
        <time>2019-01-10T10:26:15Z</time>
      </trkpt>
      <trkpt lat="49.32532" lon="0.95538">
        <ele>116.75531</ele>
        <time>2019-01-10T10:26:22Z</time>
      </trkpt>
      <trkpt lat="49.32542" lon="0.95506">
        <ele>116.919113</ele>
        <time>2019-01-10T10:26:27Z</time>
      </trkpt>
      <trkpt lat="49.32557" lon="0.95471">
        <ele>116.66156</ele>
        <time>2019-01-10T10:26:33Z</time>
      </trkpt>
      <trkpt lat="49.32562" lon="0.95459">
        <ele>116.652496</ele>
        <time>2019-01-10T10:26:35Z</time>
      </trkpt>
      <trkpt lat="49.32576" lon="0.95432">
        <ele>116.482414</ele>
        <time>2019-01-10T10:26:40Z</time>
      </trkpt>
      <trkpt lat="49.32581" lon="0.95419">
        <ele>116.281898</ele>
        <time>2019-01-10T10:26:42Z</time>
      </trkpt>
      <trkpt lat="49.32588" lon="0.95394">
        <ele>115.79657</ele>
        <time>2019-01-10T10:26:46Z</time>
      </trkpt>
      <trkpt lat="49.32589" lon="0.95388">
        <ele>115.693802</ele>
        <time>2019-01-10T10:26:47Z</time>
      </trkpt>
      <trkpt lat="49.3259" lon="0.95383">
        <ele>115.607811</ele>
        <time>2019-01-10T10:26:48Z</time>
      </trkpt>
      <trkpt lat="49.32591" lon="0.95376">
        <ele>115.513123</ele>
        <time>2019-01-10T10:26:49Z</time>
      </trkpt>
      <trkpt lat="49.32593" lon="0.95369">
        <ele>115.357491</ele>
        <time>2019-01-10T10:26:50Z</time>
      </trkpt>
      <trkpt lat="49.32595" lon="0.95362">
        <ele>115.201385</ele>
        <time>2019-01-10T10:26:51Z</time>
      </trkpt>
      <trkpt lat="49.32602" lon="0.95339">
        <ele>114.910522</ele>
        <time>2019-01-10T10:26:54Z</time>
      </trkpt>
      <trkpt lat="49.32605" lon="0.9533">
        <ele>114.875198</ele>
        <time>2019-01-10T10:26:55Z</time>
      </trkpt>
      <trkpt lat="49.32611" lon="0.95311">
        <ele>114.890152</ele>
        <time>2019-01-10T10:26:57Z</time>
      </trkpt>
      <trkpt lat="49.32625" lon="0.95274">
        <ele>115.572502</ele>
        <time>2019-01-10T10:27:02Z</time>
      </trkpt>
      <trkpt lat="49.32635" lon="0.95254">
        <ele>115.518127</ele>
        <time>2019-01-10T10:27:05Z</time>
      </trkpt>
      <trkpt lat="49.32663" lon="0.95205">
        <ele>114.974579</ele>
        <time>2019-01-10T10:27:12Z</time>
      </trkpt>
      <trkpt lat="49.32685" lon="0.95166">
        <ele>114.033752</ele>
        <time>2019-01-10T10:27:18Z</time>
      </trkpt>
      <trkpt lat="49.32688" lon="0.95159">
        <ele>113.858749</ele>
        <time>2019-01-10T10:27:19Z</time>
      </trkpt>
      <trkpt lat="49.32697" lon="0.95141">
        <ele>113.32</ele>
        <time>2019-01-10T10:27:22Z</time>
      </trkpt>
      <trkpt lat="49.32705" lon="0.95122">
        <ele>112.776253</ele>
        <time>2019-01-10T10:27:26Z</time>
      </trkpt>
      <trkpt lat="49.32705" lon="0.95116">
        <ele>112.605003</ele>
        <time>2019-01-10T10:27:27Z</time>
      </trkpt>
      <trkpt lat="49.32704" lon="0.95108">
        <ele>112.377502</ele>
        <time>2019-01-10T10:27:28Z</time>
      </trkpt>
      <trkpt lat="49.32691" lon="0.95059">
        <ele>110.165565</ele>
        <time>2019-01-10T10:27:34Z</time>
      </trkpt>
      <trkpt lat="49.32688" lon="0.95052">
        <ele>109.746437</ele>
        <time>2019-01-10T10:27:35Z</time>
      </trkpt>
      <trkpt lat="49.32686" lon="0.95044">
        <ele>109.314232</ele>
        <time>2019-01-10T10:27:36Z</time>
      </trkpt>
      <trkpt lat="49.3268" lon="0.95021">
        <ele>108.17733</ele>
        <time>2019-01-10T10:27:39Z</time>
      </trkpt>
      <trkpt lat="49.32677" lon="0.95005">
        <ele>107.78479</ele>
        <time>2019-01-10T10:27:41Z</time>
      </trkpt>
      <trkpt lat="49.32676" lon="0.94997">
        <ele>107.598198</ele>
        <time>2019-01-10T10:27:42Z</time>
      </trkpt>
      <trkpt lat="49.32676" lon="0.94989">
        <ele>107.449646</ele>
        <time>2019-01-10T10:27:43Z</time>
      </trkpt>
      <trkpt lat="49.32677" lon="0.9498">
        <ele>107.324829</ele>
        <time>2019-01-10T10:27:44Z</time>
      </trkpt>
      <trkpt lat="49.32678" lon="0.94973">
        <ele>107.257027</ele>
        <time>2019-01-10T10:27:45Z</time>
      </trkpt>
      <trkpt lat="49.32679" lon="0.94964">
        <ele>107.24305</ele>
        <time>2019-01-10T10:27:46Z</time>
      </trkpt>
      <trkpt lat="49.32681" lon="0.94957">
        <ele>107.304924</ele>
        <time>2019-01-10T10:27:47Z</time>
      </trkpt>
      <trkpt lat="49.32701" lon="0.94894">
        <ele>108.914986</ele>
        <time>2019-01-10T10:27:55Z</time>
      </trkpt>
      <trkpt lat="49.32719" lon="0.94836">
        <ele>110.551872</ele>
        <time>2019-01-10T10:28:03Z</time>
      </trkpt>
      <trkpt lat="49.32719" lon="0.94819">
        <ele>110.644997</ele>
        <time>2019-01-10T10:28:07Z</time>
      </trkpt>
      <trkpt lat="49.32718" lon="0.94816">
        <ele>110.555</ele>
        <time>2019-01-10T10:28:08Z</time>
      </trkpt>
      <trkpt lat="49.32717" lon="0.94814">
        <ele>110.464996</ele>
        <time>2019-01-10T10:28:09Z</time>
      </trkpt>
      <trkpt lat="49.32704" lon="0.94799">
        <ele>109.044998</ele>
        <time>2019-01-10T10:28:14Z</time>
      </trkpt>
      <trkpt lat="49.32701" lon="0.94795">
        <ele>108.409584</ele>
        <time>2019-01-10T10:28:15Z</time>
      </trkpt>
      <trkpt lat="49.32697" lon="0.94789">
        <ele>107.759422</ele>
        <time>2019-01-10T10:28:16Z</time>
      </trkpt>
      <trkpt lat="49.32694" lon="0.94783">
        <ele>107.097038</ele>
        <time>2019-01-10T10:28:17Z</time>
      </trkpt>
      <trkpt lat="49.3269" lon="0.94778">
        <ele>106.296623</ele>
        <time>2019-01-10T10:28:18Z</time>
      </trkpt>
      <trkpt lat="49.32685" lon="0.94774">
        <ele>105.396286</ele>
        <time>2019-01-10T10:28:19Z</time>
      </trkpt>
      <trkpt lat="49.3267" lon="0.94757">
        <ele>102.231987</ele>
        <time>2019-01-10T10:28:23Z</time>
      </trkpt>
      <trkpt lat="49.32667" lon="0.94753">
        <ele>101.502678</ele>
        <time>2019-01-10T10:28:24Z</time>
      </trkpt>
      <trkpt lat="49.32664" lon="0.94748">
        <ele>101.064377</ele>
        <time>2019-01-10T10:28:25Z</time>
      </trkpt>
      <trkpt lat="49.32658" lon="0.94725">
        <ele>99.684456</ele>
        <time>2019-01-10T10:28:30Z</time>
      </trkpt>
      <trkpt lat="49.32657" lon="0.94713">
        <ele>99.531113</ele>
        <time>2019-01-10T10:28:33Z</time>
      </trkpt>
      <trkpt lat="49.32655" lon="0.94709">
        <ele>99.14106</ele>
        <time>2019-01-10T10:28:34Z</time>
      </trkpt>
      <trkpt lat="49.32654" lon="0.94705">
        <ele>98.915192</ele>
        <time>2019-01-10T10:28:35Z</time>
      </trkpt>
      <trkpt lat="49.32648" lon="0.94688">
        <ele>97.80764</ele>
        <time>2019-01-10T10:28:40Z</time>
      </trkpt>
      <trkpt lat="49.32645" lon="0.94671">
        <ele>97.619324</ele>
        <time>2019-01-10T10:28:44Z</time>
      </trkpt>
      <trkpt lat="49.32642" lon="0.94659">
        <ele>97.545799</ele>
        <time>2019-01-10T10:28:46Z</time>
      </trkpt>
      <trkpt lat="49.32636" lon="0.94605">
        <ele>98.313179</ele>
        <time>2019-01-10T10:28:53Z</time>
      </trkpt>
      <trkpt lat="49.32633" lon="0.94567">
        <ele>98.714867</ele>
        <time>2019-01-10T10:28:59Z</time>
      </trkpt>
      <trkpt lat="49.32632" lon="0.94533">
        <ele>99.320702</ele>
        <time>2019-01-10T10:29:05Z</time>
      </trkpt>
      <trkpt lat="49.32631" lon="0.94523">
        <ele>99.6092</ele>
        <time>2019-01-10T10:29:07Z</time>
      </trkpt>
      <trkpt lat="49.32632" lon="0.94487">
        <ele>100.59581</ele>
        <time>2019-01-10T10:29:14Z</time>
      </trkpt>
      <trkpt lat="49.32624" lon="0.9446">
        <ele>100.292747</ele>
        <time>2019-01-10T10:29:19Z</time>
      </trkpt>
      <trkpt lat="49.32621" lon="0.94448">
        <ele>100.33329</ele>
        <time>2019-01-10T10:29:21Z</time>
      </trkpt>
      <trkpt lat="49.32618" lon="0.94423">
        <ele>100.908356</ele>
        <time>2019-01-10T10:29:26Z</time>
      </trkpt>
      <trkpt lat="49.32611" lon="0.94392">
        <ele>100.514458</ele>
        <time>2019-01-10T10:29:32Z</time>
      </trkpt>
      <trkpt lat="49.32607" lon="0.94382">
        <ele>99.979691</ele>
        <time>2019-01-10T10:29:34Z</time>
      </trkpt>
      <trkpt lat="49.32606" lon="0.94368">
        <ele>100.37368</ele>
        <time>2019-01-10T10:29:38Z</time>
      </trkpt>
      <trkpt lat="49.32606" lon="0.94362">
        <ele>100.467888</ele>
        <time>2019-01-10T10:29:40Z</time>
      </trkpt>
      <trkpt lat="49.32597" lon="0.94346">
        <ele>99.409264</ele>
        <time>2019-01-10T10:29:45Z</time>
      </trkpt>
      <trkpt lat="49.32588" lon="0.94322">
        <ele>98.946907</ele>
        <time>2019-01-10T10:29:51Z</time>
      </trkpt>
      <trkpt lat="49.32583" lon="0.94297">
        <ele>99.667091</ele>
        <time>2019-01-10T10:29:57Z</time>
      </trkpt>
      <trkpt lat="49.32577" lon="0.94273">
        <ele>100.350212</ele>
        <time>2019-01-10T10:30:03Z</time>
      </trkpt>
      <trkpt lat="49.32576" lon="0.94269">
        <ele>100.52494</ele>
        <time>2019-01-10T10:30:04Z</time>
      </trkpt>
      <trkpt lat="49.32564" lon="0.94242">
        <ele>100.639053</ele>
        <time>2019-01-10T10:30:10Z</time>
      </trkpt>
      <trkpt lat="49.3255" lon="0.94221">
        <ele>99.986534</ele>
        <time>2019-01-10T10:30:16Z</time>
      </trkpt>
      <trkpt lat="49.32548" lon="0.94217">
        <ele>99.935097</ele>
        <time>2019-01-10T10:30:17Z</time>
      </trkpt>
      <trkpt lat="49.32534" lon="0.94199">
        <ele>99.438057</ele>
        <time>2019-01-10T10:30:22Z</time>
      </trkpt>
      <trkpt lat="49.32526" lon="0.9419">
        <ele>99.066902</ele>
        <time>2019-01-10T10:30:25Z</time>
      </trkpt>
      <trkpt lat="49.3251" lon="0.94171">
        <ele>98.922203</ele>
        <time>2019-01-10T10:30:31Z</time>
      </trkpt>
      <trkpt lat="49.32499" lon="0.94159">
        <ele>98.636711</ele>
        <time>2019-01-10T10:30:35Z</time>
      </trkpt>
      <trkpt lat="49.32491" lon="0.94151">
        <ele>98.468948</ele>
        <time>2019-01-10T10:30:38Z</time>
      </trkpt>
      <trkpt lat="49.32479" lon="0.94142">
        <ele>97.837029</ele>
        <time>2019-01-10T10:30:43Z</time>
      </trkpt>
      <trkpt lat="49.32468" lon="0.94133">
        <ele>97.3125</ele>
        <time>2019-01-10T10:30:47Z</time>
      </trkpt>
      <trkpt lat="49.32466" lon="0.94131">
        <ele>97.236748</ele>
        <time>2019-01-10T10:30:48Z</time>
      </trkpt>
      <trkpt lat="49.32447" lon="0.94112">
        <ele>97.044197</ele>
        <time>2019-01-10T10:30:55Z</time>
      </trkpt>
      <trkpt lat="49.32431" lon="0.94096">
        <ele>97.389816</ele>
        <time>2019-01-10T10:31:00Z</time>
      </trkpt>
      <trkpt lat="49.32403" lon="0.94071">
        <ele>96.772453</ele>
        <time>2019-01-10T10:31:08Z</time>
      </trkpt>
      <trkpt lat="49.32399" lon="0.94067">
        <ele>96.5924</ele>
        <time>2019-01-10T10:31:09Z</time>
      </trkpt>
      <trkpt lat="49.32375" lon="0.94045">
        <ele>96.424454</ele>
        <time>2019-01-10T10:31:15Z</time>
      </trkpt>
      <trkpt lat="49.32371" lon="0.94042">
        <ele>96.269478</ele>
        <time>2019-01-10T10:31:16Z</time>
      </trkpt>
      <trkpt lat="49.3235" lon="0.94026">
        <ele>95.43396</ele>
        <time>2019-01-10T10:31:22Z</time>
      </trkpt>
      <trkpt lat="49.32339" lon="0.94003">
        <ele>95.98922</ele>
        <time>2019-01-10T10:31:28Z</time>
      </trkpt>
      <trkpt lat="49.32333" lon="0.93979">
        <ele>97.330215</ele>
        <time>2019-01-10T10:31:33Z</time>
      </trkpt>
      <trkpt lat="49.32332" lon="0.93955">
        <ele>98.932281</ele>
        <time>2019-01-10T10:31:39Z</time>
      </trkpt>
      <trkpt lat="49.32334" lon="0.93929">
        <ele>100.6175</ele>
        <time>2019-01-10T10:31:44Z</time>
      </trkpt>
      <trkpt lat="49.32334" lon="0.939">
        <ele>100.987503</ele>
        <time>2019-01-10T10:31:50Z</time>
      </trkpt>
      <trkpt lat="49.32335" lon="0.93868">
        <ele>101.620003</ele>
        <time>2019-01-10T10:31:56Z</time>
      </trkpt>
      <trkpt lat="49.32334" lon="0.93852">
        <ele>101.782501</ele>
        <time>2019-01-10T10:31:59Z</time>
      </trkpt>
      <trkpt lat="49.32332" lon="0.93847">
        <ele>101.73877</ele>
        <time>2019-01-10T10:32:00Z</time>
      </trkpt>
      <trkpt lat="49.32326" lon="0.93831">
        <ele>101.52092</ele>
        <time>2019-01-10T10:32:03Z</time>
      </trkpt>
      <trkpt lat="49.32322" lon="0.93828">
        <ele>101.315453</ele>
        <time>2019-01-10T10:32:04Z</time>
      </trkpt>
      <trkpt lat="49.32318" lon="0.93828">
        <ele>101.033905</ele>
        <time>2019-01-10T10:32:05Z</time>
      </trkpt>
      <trkpt lat="49.32315" lon="0.9383">
        <ele>100.743492</ele>
        <time>2019-01-10T10:32:06Z</time>
      </trkpt>
      <trkpt lat="49.32311" lon="0.93834">
        <ele>100.341446</ele>
        <time>2019-01-10T10:32:07Z</time>
      </trkpt>
      <trkpt lat="49.32309" lon="0.9384">
        <ele>100.030975</ele>
        <time>2019-01-10T10:32:08Z</time>
      </trkpt>
      <trkpt lat="49.32308" lon="0.93846">
        <ele>99.786079</ele>
        <time>2019-01-10T10:32:09Z</time>
      </trkpt>
      <trkpt lat="49.32307" lon="0.93853">
        <ele>99.553299</ele>
        <time>2019-01-10T10:32:10Z</time>
      </trkpt>
      <trkpt lat="49.32307" lon="0.93861">
        <ele>99.307053</ele>
        <time>2019-01-10T10:32:11Z</time>
      </trkpt>
      <trkpt lat="49.32307" lon="0.93869">
        <ele>99.075623</ele>
        <time>2019-01-10T10:32:12Z</time>
      </trkpt>
      <trkpt lat="49.32303" lon="0.93919">
        <ele>97.950623</ele>
        <time>2019-01-10T10:32:18Z</time>
      </trkpt>
      <trkpt lat="49.323" lon="0.93938">
        <ele>97.441254</ele>
        <time>2019-01-10T10:32:20Z</time>
      </trkpt>
      <trkpt lat="49.32298" lon="0.93947">
        <ele>96.731552</ele>
        <time>2019-01-10T10:32:21Z</time>
      </trkpt>
      <trkpt lat="49.32295" lon="0.93956">
        <ele>95.957497</ele>
        <time>2019-01-10T10:32:22Z</time>
      </trkpt>
      <trkpt lat="49.32284" lon="0.9399">
        <ele>94.307259</ele>
        <time>2019-01-10T10:32:27Z</time>
      </trkpt>
      <trkpt lat="49.32285" lon="0.93995">
        <ele>93.942772</ele>
        <time>2019-01-10T10:32:28Z</time>
      </trkpt>
      <trkpt lat="49.32287" lon="0.94022">
        <ele>93.554001</ele>
        <time>2019-01-10T10:32:33Z</time>
      </trkpt>
      <trkpt lat="49.32288" lon="0.94043">
        <ele>93.987541</ele>
        <time>2019-01-10T10:32:37Z</time>
      </trkpt>
      <trkpt lat="49.32286" lon="0.94051">
        <ele>94.312653</ele>
        <time>2019-01-10T10:32:40Z</time>
      </trkpt>
      <trkpt lat="49.32279" lon="0.9406">
        <ele>95.092468</ele>
        <time>2019-01-10T10:32:46Z</time>
      </trkpt>
      <trkpt lat="49.32277" lon="0.94061">
        <ele>95.244423</ele>
        <time>2019-01-10T10:32:47Z</time>
      </trkpt>
      <trkpt lat="49.32275" lon="0.94061">
        <ele>95.424454</ele>
        <time>2019-01-10T10:32:48Z</time>
      </trkpt>
      <trkpt lat="49.32273" lon="0.94062">
        <ele>95.632027</ele>
        <time>2019-01-10T10:32:49Z</time>
      </trkpt>
      <trkpt lat="49.3226" lon="0.94069">
        <ele>96.900429</ele>
        <time>2019-01-10T10:32:55Z</time>
      </trkpt>
      <trkpt lat="49.32238" lon="0.94078">
        <ele>98.713814</ele>
        <time>2019-01-10T10:33:02Z</time>
      </trkpt>
      <trkpt lat="49.32213" lon="0.94084">
        <ele>100.565392</ele>
        <time>2019-01-10T10:33:10Z</time>
      </trkpt>
      <trkpt lat="49.32193" lon="0.94092">
        <ele>102.043732</ele>
        <time>2019-01-10T10:33:16Z</time>
      </trkpt>
      <trkpt lat="49.32166" lon="0.941">
        <ele>103.358795</ele>
        <time>2019-01-10T10:33:23Z</time>
      </trkpt>
      <trkpt lat="49.32141" lon="0.94108">
        <ele>104.488579</ele>
        <time>2019-01-10T10:33:30Z</time>
      </trkpt>
      <trkpt lat="49.32121" lon="0.94112">
        <ele>105.192398</ele>
        <time>2019-01-10T10:33:36Z</time>
      </trkpt>
      <trkpt lat="49.32093" lon="0.94121">
        <ele>106.471024</ele>
        <time>2019-01-10T10:33:44Z</time>
      </trkpt>
      <trkpt lat="49.32079" lon="0.94126">
        <ele>107.225639</ele>
        <time>2019-01-10T10:33:49Z</time>
      </trkpt>
      <trkpt lat="49.32051" lon="0.94134">
        <ele>108.416779</ele>
        <time>2019-01-10T10:33:56Z</time>
      </trkpt>
      <trkpt lat="49.32025" lon="0.94142">
        <ele>109.885231</ele>
        <time>2019-01-10T10:34:03Z</time>
      </trkpt>
      <trkpt lat="49.31996" lon="0.9415">
        <ele>111.423546</ele>
        <time>2019-01-10T10:34:11Z</time>
      </trkpt>
      <trkpt lat="49.31979" lon="0.94155">
        <ele>111.9851</ele>
        <time>2019-01-10T10:34:16Z</time>
      </trkpt>
      <trkpt lat="49.31959" lon="0.94162">
        <ele>111.658691</ele>
        <time>2019-01-10T10:34:21Z</time>
      </trkpt>
      <trkpt lat="49.31934" lon="0.94167">
        <ele>111.120567</ele>
        <time>2019-01-10T10:34:27Z</time>
      </trkpt>
      <trkpt lat="49.3191" lon="0.94174">
        <ele>110.633354</ele>
        <time>2019-01-10T10:34:33Z</time>
      </trkpt>
      <trkpt lat="49.31899" lon="0.94185">
        <ele>111.561874</ele>
        <time>2019-01-10T10:34:36Z</time>
      </trkpt>
      <trkpt lat="49.31895" lon="0.94213">
        <ele>115.459297</ele>
        <time>2019-01-10T10:34:42Z</time>
      </trkpt>
      <trkpt lat="49.31892" lon="0.94229">
        <ele>117.081879</ele>
        <time>2019-01-10T10:34:46Z</time>
      </trkpt>
      <trkpt lat="49.3189" lon="0.94233">
        <ele>117.136871</ele>
        <time>2019-01-10T10:34:47Z</time>
      </trkpt>
      <trkpt lat="49.31888" lon="0.94236">
        <ele>117.176872</ele>
        <time>2019-01-10T10:34:48Z</time>
      </trkpt>
      <trkpt lat="49.31885" lon="0.94238">
        <ele>117.209373</ele>
        <time>2019-01-10T10:34:49Z</time>
      </trkpt>
      <trkpt lat="49.31881" lon="0.9424">
        <ele>117.231873</ele>
        <time>2019-01-10T10:34:50Z</time>
      </trkpt>
      <trkpt lat="49.31878" lon="0.94241">
        <ele>117.246872</ele>
        <time>2019-01-10T10:34:51Z</time>
      </trkpt>
      <trkpt lat="49.31875" lon="0.94242">
        <ele>117.258751</ele>
        <time>2019-01-10T10:34:52Z</time>
      </trkpt>
      <trkpt lat="49.31853" lon="0.94238">
        <ele>117.192497</ele>
        <time>2019-01-10T10:34:58Z</time>
      </trkpt>
      <trkpt lat="49.31844" lon="0.94239">
        <ele>117.203751</ele>
        <time>2019-01-10T10:35:01Z</time>
      </trkpt>
      <trkpt lat="49.3184" lon="0.94238">
        <ele>117.189377</ele>
        <time>2019-01-10T10:35:02Z</time>
      </trkpt>
      <trkpt lat="49.31836" lon="0.94239">
        <ele>117.195</ele>
        <time>2019-01-10T10:35:03Z</time>
      </trkpt>
      <trkpt lat="49.31832" lon="0.94241">
        <ele>117.224998</ele>
        <time>2019-01-10T10:35:04Z</time>
      </trkpt>
      <trkpt lat="49.31829" lon="0.94243">
        <ele>117.251251</ele>
        <time>2019-01-10T10:35:05Z</time>
      </trkpt>
      <trkpt lat="49.31825" lon="0.94244">
        <ele>117.268753</ele>
        <time>2019-01-10T10:35:06Z</time>
      </trkpt>
      <trkpt lat="49.31821" lon="0.94245">
        <ele>117.287498</ele>
        <time>2019-01-10T10:35:07Z</time>
      </trkpt>
      <trkpt lat="49.31799" lon="0.94258">
        <ele>117.458122</ele>
        <time>2019-01-10T10:35:13Z</time>
      </trkpt>
      <trkpt lat="49.31776" lon="0.94272">
        <ele>117.66375</ele>
        <time>2019-01-10T10:35:19Z</time>
      </trkpt>
      <trkpt lat="49.31762" lon="0.94278">
        <ele>117.740623</ele>
        <time>2019-01-10T10:35:22Z</time>
      </trkpt>
      <trkpt lat="49.31757" lon="0.94279">
        <ele>117.734413</ele>
        <time>2019-01-10T10:35:23Z</time>
      </trkpt>
      <trkpt lat="49.31743" lon="0.94279">
        <ele>117.651505</ele>
        <time>2019-01-10T10:35:26Z</time>
      </trkpt>
      <trkpt lat="49.31739" lon="0.94279">
        <ele>117.625153</ele>
        <time>2019-01-10T10:35:27Z</time>
      </trkpt>
      <trkpt lat="49.31734" lon="0.94279">
        <ele>117.592781</ele>
        <time>2019-01-10T10:35:28Z</time>
      </trkpt>
      <trkpt lat="49.3173" lon="0.9428">
        <ele>117.586037</ele>
        <time>2019-01-10T10:35:29Z</time>
      </trkpt>
      <trkpt lat="49.31726" lon="0.9428">
        <ele>117.575508</ele>
        <time>2019-01-10T10:35:30Z</time>
      </trkpt>
      <trkpt lat="49.31722" lon="0.94281">
        <ele>117.561752</ele>
        <time>2019-01-10T10:35:31Z</time>
      </trkpt>
      <trkpt lat="49.31717" lon="0.94282">
        <ele>117.557877</ele>
        <time>2019-01-10T10:35:32Z</time>
      </trkpt>
      <trkpt lat="49.31697" lon="0.94286">
        <ele>117.593498</ele>
        <time>2019-01-10T10:35:36Z</time>
      </trkpt>
      <trkpt lat="49.31692" lon="0.94288">
        <ele>117.633751</ele>
        <time>2019-01-10T10:35:37Z</time>
      </trkpt>
      <trkpt lat="49.31687" lon="0.9429">
        <ele>117.691559</ele>
        <time>2019-01-10T10:35:38Z</time>
      </trkpt>
      <trkpt lat="49.31682" lon="0.94293">
        <ele>117.784615</ele>
        <time>2019-01-10T10:35:39Z</time>
      </trkpt>
      <trkpt lat="49.31678" lon="0.94296">
        <ele>117.9151</ele>
        <time>2019-01-10T10:35:40Z</time>
      </trkpt>
      <trkpt lat="49.31674" lon="0.943">
        <ele>118</ele>
        <time>2019-01-10T10:35:41Z</time>
      </trkpt>
      <trkpt lat="49.3167" lon="0.94303">
        <ele>118</ele>
        <time>2019-01-10T10:35:42Z</time>
      </trkpt>
      <trkpt lat="49.31666" lon="0.94306">
        <ele>118</ele>
        <time>2019-01-10T10:35:43Z</time>
      </trkpt>
      <trkpt lat="49.31661" lon="0.94309">
        <ele>118</ele>
        <time>2019-01-10T10:35:44Z</time>
      </trkpt>
      <trkpt lat="49.31656" lon="0.9431">
        <ele>118</ele>
        <time>2019-01-10T10:35:45Z</time>
      </trkpt>
      <trkpt lat="49.3165" lon="0.94312">
        <ele>118</ele>
        <time>2019-01-10T10:35:46Z</time>
      </trkpt>
      <trkpt lat="49.31618" lon="0.94322">
        <ele>117.889557</ele>
        <time>2019-01-10T10:35:52Z</time>
      </trkpt>
      <trkpt lat="49.31609" lon="0.94327">
        <ele>117.772423</ele>
        <time>2019-01-10T10:35:54Z</time>
      </trkpt>
      <trkpt lat="49.31579" lon="0.94335">
        <ele>117.453438</ele>
        <time>2019-01-10T10:36:00Z</time>
      </trkpt>
      <trkpt lat="49.31574" lon="0.94336">
        <ele>117.344978</ele>
        <time>2019-01-10T10:36:01Z</time>
      </trkpt>
      <trkpt lat="49.31553" lon="0.94336">
        <ele>116.878029</ele>
        <time>2019-01-10T10:36:05Z</time>
      </trkpt>
      <trkpt lat="49.31548" lon="0.94336">
        <ele>116.775002</ele>
        <time>2019-01-10T10:36:06Z</time>
      </trkpt>
      <trkpt lat="49.31508" lon="0.94335">
        <ele>116.065567</ele>
        <time>2019-01-10T10:36:14Z</time>
      </trkpt>
      <trkpt lat="49.31488" lon="0.94334">
        <ele>115.792503</ele>
        <time>2019-01-10T10:36:18Z</time>
      </trkpt>
      <trkpt lat="49.31483" lon="0.94335">
        <ele>115.839996</ele>
        <time>2019-01-10T10:36:19Z</time>
      </trkpt>
      <trkpt lat="49.31465" lon="0.94339">
        <ele>116.014999</ele>
        <time>2019-01-10T10:36:24Z</time>
      </trkpt>
      <trkpt lat="49.31454" lon="0.94337">
        <ele>115.885002</ele>
        <time>2019-01-10T10:36:28Z</time>
      </trkpt>
      <trkpt lat="49.31454" lon="0.94334">
        <ele>115.712502</ele>
        <time>2019-01-10T10:36:29Z</time>
      </trkpt>
      <trkpt lat="49.31454" lon="0.94331">
        <ele>115.537498</ele>
        <time>2019-01-10T10:36:30Z</time>
      </trkpt>
      <trkpt lat="49.31454" lon="0.94328">
        <ele>115.357498</ele>
        <time>2019-01-10T10:36:31Z</time>
      </trkpt>
      <trkpt lat="49.31454" lon="0.94323">
        <ele>115.1175</ele>
        <time>2019-01-10T10:36:32Z</time>
      </trkpt>
      <trkpt lat="49.31452" lon="0.94307">
        <ele>114.167503</ele>
        <time>2019-01-10T10:36:35Z</time>
      </trkpt>
      <trkpt lat="49.3145" lon="0.943">
        <ele>113.482498</ele>
        <time>2019-01-10T10:36:36Z</time>
      </trkpt>
      <trkpt lat="49.31447" lon="0.94295">
        <ele>112.710373</ele>
        <time>2019-01-10T10:36:37Z</time>
      </trkpt>
      <trkpt lat="49.31442" lon="0.9429">
        <ele>112.216873</ele>
        <time>2019-01-10T10:36:38Z</time>
      </trkpt>
      <trkpt lat="49.31437" lon="0.94286">
        <ele>111.941872</ele>
        <time>2019-01-10T10:36:39Z</time>
      </trkpt>
      <trkpt lat="49.31432" lon="0.94283">
        <ele>111.730003</ele>
        <time>2019-01-10T10:36:40Z</time>
      </trkpt>
      <trkpt lat="49.31404" lon="0.94262">
        <ele>110.154373</ele>
        <time>2019-01-10T10:36:45Z</time>
      </trkpt>
      <trkpt lat="49.31361" lon="0.94228">
        <ele>108.971718</ele>
        <time>2019-01-10T10:36:52Z</time>
      </trkpt>
      <trkpt lat="49.31339" lon="0.94209">
        <ele>108.213753</ele>
        <time>2019-01-10T10:36:56Z</time>
      </trkpt>
      <trkpt lat="49.31336" lon="0.94204">
        <ele>107.864998</ele>
        <time>2019-01-10T10:36:57Z</time>
      </trkpt>
      <trkpt lat="49.31334" lon="0.94198">
        <ele>107.480621</ele>
        <time>2019-01-10T10:36:58Z</time>
      </trkpt>
      <trkpt lat="49.31326" lon="0.94169">
        <ele>105.749199</ele>
        <time>2019-01-10T10:37:04Z</time>
      </trkpt>
      <trkpt lat="49.31319" lon="0.94144">
        <ele>108.229599</ele>
        <time>2019-01-10T10:37:10Z</time>
      </trkpt>
      <trkpt lat="49.31311" lon="0.94135">
        <ele>109.079666</ele>
        <time>2019-01-10T10:37:14Z</time>
      </trkpt>
      <trkpt lat="49.31303" lon="0.94132">
        <ele>109.402191</ele>
        <time>2019-01-10T10:37:16Z</time>
      </trkpt>
      <trkpt lat="49.313" lon="0.94131">
        <ele>109.412651</ele>
        <time>2019-01-10T10:37:17Z</time>
      </trkpt>
      <trkpt lat="49.31298" lon="0.94131">
        <ele>109.436111</ele>
        <time>2019-01-10T10:37:18Z</time>
      </trkpt>
      <trkpt lat="49.31296" lon="0.94129">
        <ele>109.520302</ele>
        <time>2019-01-10T10:37:19Z</time>
      </trkpt>
      <trkpt lat="49.31294" lon="0.94127">
        <ele>109.643913</ele>
        <time>2019-01-10T10:37:20Z</time>
      </trkpt>
      <trkpt lat="49.31291" lon="0.94125">
        <ele>109.732063</ele>
        <time>2019-01-10T10:37:21Z</time>
      </trkpt>
      <trkpt lat="49.31288" lon="0.94125">
        <ele>109.727089</ele>
        <time>2019-01-10T10:37:22Z</time>
      </trkpt>
      <trkpt lat="49.31285" lon="0.94126">
        <ele>109.636002</ele>
        <time>2019-01-10T10:37:23Z</time>
      </trkpt>
      <trkpt lat="49.31282" lon="0.94126">
        <ele>109.558472</ele>
        <time>2019-01-10T10:37:24Z</time>
      </trkpt>
      <trkpt lat="49.31279" lon="0.94126">
        <ele>109.563629</ele>
        <time>2019-01-10T10:37:25Z</time>
      </trkpt>
      <trkpt lat="49.31277" lon="0.94124">
        <ele>109.62606</ele>
        <time>2019-01-10T10:37:26Z</time>
      </trkpt>
      <trkpt lat="49.31275" lon="0.94121">
        <ele>109.707809</ele>
        <time>2019-01-10T10:37:27Z</time>
      </trkpt>
      <trkpt lat="49.31273" lon="0.94119">
        <ele>109.743774</ele>
        <time>2019-01-10T10:37:28Z</time>
      </trkpt>
      <trkpt lat="49.3127" lon="0.94117">
        <ele>109.764328</ele>
        <time>2019-01-10T10:37:29Z</time>
      </trkpt>
      <trkpt lat="49.31268" lon="0.94114">
        <ele>109.804733</ele>
        <time>2019-01-10T10:37:30Z</time>
      </trkpt>
      <trkpt lat="49.31268" lon="0.94111">
        <ele>109.896515</ele>
        <time>2019-01-10T10:37:31Z</time>
      </trkpt>
      <trkpt lat="49.31267" lon="0.94108">
        <ele>109.971748</ele>
        <time>2019-01-10T10:37:32Z</time>
      </trkpt>
      <trkpt lat="49.31266" lon="0.94106">
        <ele>110.01149</ele>
        <time>2019-01-10T10:37:33Z</time>
      </trkpt>
      <trkpt lat="49.31265" lon="0.94104">
        <ele>110.0205</ele>
        <time>2019-01-10T10:37:34Z</time>
      </trkpt>
      <trkpt lat="49.31252" lon="0.94088">
        <ele>110.981201</ele>
        <time>2019-01-10T10:37:40Z</time>
      </trkpt>
      <trkpt lat="49.3125" lon="0.94086">
        <ele>111.106155</ele>
        <time>2019-01-10T10:37:41Z</time>
      </trkpt>
      <trkpt lat="49.31248" lon="0.94083">
        <ele>111.306801</ele>
        <time>2019-01-10T10:37:42Z</time>
      </trkpt>
      <trkpt lat="49.31248" lon="0.94079">
        <ele>111.541718</ele>
        <time>2019-01-10T10:37:43Z</time>
      </trkpt>
      <trkpt lat="49.31247" lon="0.94076">
        <ele>111.748032</ele>
        <time>2019-01-10T10:37:44Z</time>
      </trkpt>
      <trkpt lat="49.31247" lon="0.94072">
        <ele>111.960312</ele>
        <time>2019-01-10T10:37:45Z</time>
      </trkpt>
      <trkpt lat="49.31246" lon="0.94068">
        <ele>112.173164</ele>
        <time>2019-01-10T10:37:46Z</time>
      </trkpt>
      <trkpt lat="49.31246" lon="0.94064">
        <ele>112.456047</ele>
        <time>2019-01-10T10:37:47Z</time>
      </trkpt>
      <trkpt lat="49.31246" lon="0.94059">
        <ele>112.736282</ele>
        <time>2019-01-10T10:37:48Z</time>
      </trkpt>
      <trkpt lat="49.31246" lon="0.94055">
        <ele>113.017296</ele>
        <time>2019-01-10T10:37:49Z</time>
      </trkpt>
      <trkpt lat="49.31245" lon="0.9405">
        <ele>113.304878</ele>
        <time>2019-01-10T10:37:50Z</time>
      </trkpt>
      <trkpt lat="49.31244" lon="0.94045">
        <ele>113.527504</ele>
        <time>2019-01-10T10:37:51Z</time>
      </trkpt>
      <trkpt lat="49.31243" lon="0.94041">
        <ele>113.743813</ele>
        <time>2019-01-10T10:37:52Z</time>
      </trkpt>
      <trkpt lat="49.31242" lon="0.94037">
        <ele>113.963577</ele>
        <time>2019-01-10T10:37:53Z</time>
      </trkpt>
      <trkpt lat="49.31242" lon="0.94033">
        <ele>114.126251</ele>
        <time>2019-01-10T10:37:54Z</time>
      </trkpt>
      <trkpt lat="49.31242" lon="0.94028">
        <ele>114.2575</ele>
        <time>2019-01-10T10:37:55Z</time>
      </trkpt>
      <trkpt lat="49.31246" lon="0.9401">
        <ele>115.006248</ele>
        <time>2019-01-10T10:38:00Z</time>
      </trkpt>
      <trkpt lat="49.31246" lon="0.94006">
        <ele>115.095001</ele>
        <time>2019-01-10T10:38:01Z</time>
      </trkpt>
      <trkpt lat="49.31245" lon="0.94001">
        <ele>115.1875</ele>
        <time>2019-01-10T10:38:02Z</time>
      </trkpt>
      <trkpt lat="49.31237" lon="0.93968">
        <ele>115.805</ele>
        <time>2019-01-10T10:38:09Z</time>
      </trkpt>
      <trkpt lat="49.31231" lon="0.93941">
        <ele>116.157654</ele>
        <time>2019-01-10T10:38:15Z</time>
      </trkpt>
      <trkpt lat="49.31228" lon="0.93906">
        <ele>116.826347</ele>
        <time>2019-01-10T10:38:21Z</time>
      </trkpt>
      <trkpt lat="49.31227" lon="0.93896">
        <ele>117.034378</ele>
        <time>2019-01-10T10:38:23Z</time>
      </trkpt>
      <trkpt lat="49.31227" lon="0.93891">
        <ele>117.108749</ele>
        <time>2019-01-10T10:38:24Z</time>
      </trkpt>
      <trkpt lat="49.31227" lon="0.93885">
        <ele>117.191254</ele>
        <time>2019-01-10T10:38:25Z</time>
      </trkpt>
      <trkpt lat="49.31226" lon="0.9388">
        <ele>117.266251</ele>
        <time>2019-01-10T10:38:26Z</time>
      </trkpt>
      <trkpt lat="49.31226" lon="0.93875">
        <ele>117.341873</ele>
        <time>2019-01-10T10:38:27Z</time>
      </trkpt>
      <trkpt lat="49.31226" lon="0.93869">
        <ele>117.426247</ele>
        <time>2019-01-10T10:38:28Z</time>
      </trkpt>
      <trkpt lat="49.31225" lon="0.93863">
        <ele>117.513123</ele>
        <time>2019-01-10T10:38:29Z</time>
      </trkpt>
      <trkpt lat="49.31224" lon="0.93857">
        <ele>117.601875</ele>
        <time>2019-01-10T10:38:30Z</time>
      </trkpt>
      <trkpt lat="49.31223" lon="0.93851">
        <ele>117.684998</ele>
        <time>2019-01-10T10:38:31Z</time>
      </trkpt>
      <trkpt lat="49.31222" lon="0.93846">
        <ele>117.761253</ele>
        <time>2019-01-10T10:38:32Z</time>
      </trkpt>
      <trkpt lat="49.31219" lon="0.93814">
        <ele>118</ele>
        <time>2019-01-10T10:38:37Z</time>
      </trkpt>
      <trkpt lat="49.31215" lon="0.93781">
        <ele>118</ele>
        <time>2019-01-10T10:38:42Z</time>
      </trkpt>
      <trkpt lat="49.31211" lon="0.93751">
        <ele>118.013275</ele>
        <time>2019-01-10T10:38:47Z</time>
      </trkpt>
      <trkpt lat="49.31208" lon="0.93719">
        <ele>118.085747</ele>
        <time>2019-01-10T10:38:52Z</time>
      </trkpt>
      <trkpt lat="49.31205" lon="0.93683">
        <ele>118.313499</ele>
        <time>2019-01-10T10:38:57Z</time>
      </trkpt>
      <trkpt lat="49.31203" lon="0.93667">
        <ele>118.515862</ele>
        <time>2019-01-10T10:38:59Z</time>
      </trkpt>
      <trkpt lat="49.31197" lon="0.93627">
        <ele>118.974197</ele>
        <time>2019-01-10T10:39:05Z</time>
      </trkpt>
      <trkpt lat="49.31198" lon="0.93622">
        <ele>119.010719</ele>
        <time>2019-01-10T10:39:06Z</time>
      </trkpt>
      <trkpt lat="49.31197" lon="0.93616">
        <ele>119.039154</ele>
        <time>2019-01-10T10:39:07Z</time>
      </trkpt>
      <trkpt lat="49.31197" lon="0.93609">
        <ele>119.077209</ele>
        <time>2019-01-10T10:39:08Z</time>
      </trkpt>
      <trkpt lat="49.31197" lon="0.93601">
        <ele>119.118576</ele>
        <time>2019-01-10T10:39:09Z</time>
      </trkpt>
      <trkpt lat="49.31196" lon="0.93594">
        <ele>119.166878</ele>
        <time>2019-01-10T10:39:10Z</time>
      </trkpt>
      <trkpt lat="49.31195" lon="0.93585">
        <ele>119.225151</ele>
        <time>2019-01-10T10:39:11Z</time>
      </trkpt>
      <trkpt lat="49.31195" lon="0.93577">
        <ele>119.276161</ele>
        <time>2019-01-10T10:39:12Z</time>
      </trkpt>
      <trkpt lat="49.31194" lon="0.9357">
        <ele>119.325256</ele>
        <time>2019-01-10T10:39:13Z</time>
      </trkpt>
      <trkpt lat="49.31193" lon="0.93563">
        <ele>119.387695</ele>
        <time>2019-01-10T10:39:14Z</time>
      </trkpt>
      <trkpt lat="49.31192" lon="0.93556">
        <ele>119.459709</ele>
        <time>2019-01-10T10:39:15Z</time>
      </trkpt>
      <trkpt lat="49.3119" lon="0.93547">
        <ele>119.612503</ele>
        <time>2019-01-10T10:39:16Z</time>
      </trkpt>
      <trkpt lat="49.3119" lon="0.93539">
        <ele>119.741249</ele>
        <time>2019-01-10T10:39:17Z</time>
      </trkpt>
      <trkpt lat="49.31189" lon="0.93531">
        <ele>119.871872</ele>
        <time>2019-01-10T10:39:18Z</time>
      </trkpt>
      <trkpt lat="49.31187" lon="0.93523">
        <ele>120.03125</ele>
        <time>2019-01-10T10:39:19Z</time>
      </trkpt>
      <trkpt lat="49.31185" lon="0.93515">
        <ele>120.198753</ele>
        <time>2019-01-10T10:39:20Z</time>
      </trkpt>
      <trkpt lat="49.31184" lon="0.93506">
        <ele>120.342499</ele>
        <time>2019-01-10T10:39:21Z</time>
      </trkpt>
      <trkpt lat="49.31183" lon="0.93499">
        <ele>120.477501</ele>
        <time>2019-01-10T10:39:22Z</time>
      </trkpt>
      <trkpt lat="49.31181" lon="0.93492">
        <ele>120.6175</ele>
        <time>2019-01-10T10:39:23Z</time>
      </trkpt>
      <trkpt lat="49.31179" lon="0.93485">
        <ele>120.754379</ele>
        <time>2019-01-10T10:39:24Z</time>
      </trkpt>
      <trkpt lat="49.31178" lon="0.93477">
        <ele>120.906876</ele>
        <time>2019-01-10T10:39:25Z</time>
      </trkpt>
      <trkpt lat="49.31176" lon="0.93468">
        <ele>121.077499</ele>
        <time>2019-01-10T10:39:26Z</time>
      </trkpt>
      <trkpt lat="49.31174" lon="0.93459">
        <ele>121.243752</ele>
        <time>2019-01-10T10:39:27Z</time>
      </trkpt>
      <trkpt lat="49.31171" lon="0.93451">
        <ele>121.418121</ele>
        <time>2019-01-10T10:39:28Z</time>
      </trkpt>
      <trkpt lat="49.31169" lon="0.93445">
        <ele>121.568123</ele>
        <time>2019-01-10T10:39:29Z</time>
      </trkpt>
      <trkpt lat="49.31166" lon="0.93436">
        <ele>121.748123</ele>
        <time>2019-01-10T10:39:30Z</time>
      </trkpt>
      <trkpt lat="49.31164" lon="0.93428">
        <ele>121.925629</ele>
        <time>2019-01-10T10:39:31Z</time>
      </trkpt>
      <trkpt lat="49.31162" lon="0.93419">
        <ele>122.099998</ele>
        <time>2019-01-10T10:39:32Z</time>
      </trkpt>
      <trkpt lat="49.3116" lon="0.9341">
        <ele>122.264374</ele>
        <time>2019-01-10T10:39:33Z</time>
      </trkpt>
      <trkpt lat="49.31159" lon="0.934">
        <ele>122.429375</ele>
        <time>2019-01-10T10:39:34Z</time>
      </trkpt>
      <trkpt lat="49.31156" lon="0.93391">
        <ele>122.611252</ele>
        <time>2019-01-10T10:39:35Z</time>
      </trkpt>
      <trkpt lat="49.31153" lon="0.93382">
        <ele>122.805626</ele>
        <time>2019-01-10T10:39:36Z</time>
      </trkpt>
      <trkpt lat="49.31151" lon="0.93373">
        <ele>122.995003</ele>
        <time>2019-01-10T10:39:37Z</time>
      </trkpt>
      <trkpt lat="49.3115" lon="0.93363">
        <ele>123.160622</ele>
        <time>2019-01-10T10:39:38Z</time>
      </trkpt>
      <trkpt lat="49.31147" lon="0.93348">
        <ele>123.440628</ele>
        <time>2019-01-10T10:39:40Z</time>
      </trkpt>
      <trkpt lat="49.31145" lon="0.93341">
        <ele>123.580627</ele>
        <time>2019-01-10T10:39:41Z</time>
      </trkpt>
      <trkpt lat="49.31143" lon="0.93335">
        <ele>123.71875</ele>
        <time>2019-01-10T10:39:42Z</time>
      </trkpt>
      <trkpt lat="49.31141" lon="0.93327">
        <ele>123.8825</ele>
        <time>2019-01-10T10:39:43Z</time>
      </trkpt>
      <trkpt lat="49.31139" lon="0.93318">
        <ele>124.060623</ele>
        <time>2019-01-10T10:39:44Z</time>
      </trkpt>
      <trkpt lat="49.31137" lon="0.93309">
        <ele>124.234375</ele>
        <time>2019-01-10T10:39:45Z</time>
      </trkpt>
      <trkpt lat="49.31135" lon="0.933">
        <ele>124.403122</ele>
        <time>2019-01-10T10:39:46Z</time>
      </trkpt>
      <trkpt lat="49.31125" lon="0.93249">
        <ele>125.291016</ele>
        <time>2019-01-10T10:39:52Z</time>
      </trkpt>
      <trkpt lat="49.31118" lon="0.93206">
        <ele>125.8862</ele>
        <time>2019-01-10T10:39:57Z</time>
      </trkpt>
      <trkpt lat="49.31118" lon="0.93198">
        <ele>125.762444</ele>
        <time>2019-01-10T10:39:58Z</time>
      </trkpt>
      <trkpt lat="49.31118" lon="0.93189">
        <ele>125.641251</ele>
        <time>2019-01-10T10:39:59Z</time>
      </trkpt>
      <trkpt lat="49.31118" lon="0.93153">
        <ele>125.111343</ele>
        <time>2019-01-10T10:40:04Z</time>
      </trkpt>
      <trkpt lat="49.31113" lon="0.93121">
        <ele>124.739372</ele>
        <time>2019-01-10T10:40:08Z</time>
      </trkpt>
      <trkpt lat="49.31103" lon="0.93089">
        <ele>124.480003</ele>
        <time>2019-01-10T10:40:12Z</time>
      </trkpt>
      <trkpt lat="49.31101" lon="0.93081">
        <ele>124.425003</ele>
        <time>2019-01-10T10:40:13Z</time>
      </trkpt>
      <trkpt lat="49.31099" lon="0.93075">
        <ele>124.374374</ele>
        <time>2019-01-10T10:40:14Z</time>
      </trkpt>
      <trkpt lat="49.31092" lon="0.93045">
        <ele>124.07</ele>
        <time>2019-01-10T10:40:18Z</time>
      </trkpt>
      <trkpt lat="49.31091" lon="0.93036">
        <ele>123.968124</ele>
        <time>2019-01-10T10:40:19Z</time>
      </trkpt>
      <trkpt lat="49.31089" lon="0.93028">
        <ele>123.889999</ele>
        <time>2019-01-10T10:40:20Z</time>
      </trkpt>
      <trkpt lat="49.31088" lon="0.93019">
        <ele>123.796249</ele>
        <time>2019-01-10T10:40:21Z</time>
      </trkpt>
      <trkpt lat="49.31086" lon="0.9301">
        <ele>123.693748</ele>
        <time>2019-01-10T10:40:22Z</time>
      </trkpt>
      <trkpt lat="49.31084" lon="0.93001">
        <ele>123.602501</ele>
        <time>2019-01-10T10:40:23Z</time>
      </trkpt>
      <trkpt lat="49.31082" lon="0.92993">
        <ele>123.523125</ele>
        <time>2019-01-10T10:40:24Z</time>
      </trkpt>
      <trkpt lat="49.3108" lon="0.92984">
        <ele>123.434998</ele>
        <time>2019-01-10T10:40:25Z</time>
      </trkpt>
      <trkpt lat="49.31078" lon="0.92974">
        <ele>123.334999</ele>
        <time>2019-01-10T10:40:26Z</time>
      </trkpt>
      <trkpt lat="49.31076" lon="0.92965">
        <ele>123.230003</ele>
        <time>2019-01-10T10:40:27Z</time>
      </trkpt>
      <trkpt lat="49.31074" lon="0.92957">
        <ele>123.169998</ele>
        <time>2019-01-10T10:40:28Z</time>
      </trkpt>
      <trkpt lat="49.31068" lon="0.9294">
        <ele>123.059372</ele>
        <time>2019-01-10T10:40:30Z</time>
      </trkpt>
      <trkpt lat="49.31065" lon="0.92932">
        <ele>122.996246</ele>
        <time>2019-01-10T10:40:31Z</time>
      </trkpt>
      <trkpt lat="49.31063" lon="0.92924">
        <ele>122.932503</ele>
        <time>2019-01-10T10:40:32Z</time>
      </trkpt>
      <trkpt lat="49.31057" lon="0.92898">
        <ele>122.667503</ele>
        <time>2019-01-10T10:40:35Z</time>
      </trkpt>
      <trkpt lat="49.31051" lon="0.92872">
        <ele>122.408752</ele>
        <time>2019-01-10T10:40:38Z</time>
      </trkpt>
      <trkpt lat="49.31049" lon="0.92864">
        <ele>122.334373</ele>
        <time>2019-01-10T10:40:39Z</time>
      </trkpt>
      <trkpt lat="49.31048" lon="0.92856">
        <ele>122.253128</ele>
        <time>2019-01-10T10:40:40Z</time>
      </trkpt>
      <trkpt lat="49.31046" lon="0.92848">
        <ele>122.166878</ele>
        <time>2019-01-10T10:40:41Z</time>
      </trkpt>
      <trkpt lat="49.31044" lon="0.9284">
        <ele>122.088127</ele>
        <time>2019-01-10T10:40:42Z</time>
      </trkpt>
      <trkpt lat="49.31042" lon="0.92824">
        <ele>121.910004</ele>
        <time>2019-01-10T10:40:44Z</time>
      </trkpt>
      <trkpt lat="49.31035" lon="0.92777">
        <ele>121.75</ele>
        <time>2019-01-10T10:40:51Z</time>
      </trkpt>
      <trkpt lat="49.31031" lon="0.92767">
        <ele>121.845001</ele>
        <time>2019-01-10T10:40:54Z</time>
      </trkpt>
      <trkpt lat="49.31024" lon="0.92761">
        <ele>121.995003</ele>
        <time>2019-01-10T10:40:57Z</time>
      </trkpt>
      <trkpt lat="49.31021" lon="0.9276">
        <ele>122.023483</ele>
        <time>2019-01-10T10:40:58Z</time>
      </trkpt>
      <trkpt lat="49.31017" lon="0.92759">
        <ele>122.046318</ele>
        <time>2019-01-10T10:40:59Z</time>
      </trkpt>
      <trkpt lat="49.31014" lon="0.92757">
        <ele>122.064705</ele>
        <time>2019-01-10T10:41:00Z</time>
      </trkpt>
      <trkpt lat="49.31011" lon="0.92756">
        <ele>122.083298</ele>
        <time>2019-01-10T10:41:01Z</time>
      </trkpt>
      <trkpt lat="49.30983" lon="0.92759">
        <ele>122.295372</ele>
        <time>2019-01-10T10:41:07Z</time>
      </trkpt>
      <trkpt lat="49.30952" lon="0.92768">
        <ele>123.025002</ele>
        <time>2019-01-10T10:41:13Z</time>
      </trkpt>
      <trkpt lat="49.30947" lon="0.92769">
        <ele>123.160629</ele>
        <time>2019-01-10T10:41:14Z</time>
      </trkpt>
      <trkpt lat="49.30894" lon="0.92786">
        <ele>123.963699</ele>
        <time>2019-01-10T10:41:24Z</time>
      </trkpt>
      <trkpt lat="49.30859" lon="0.92796">
        <ele>124.68</ele>
        <time>2019-01-10T10:41:31Z</time>
      </trkpt>
      <trkpt lat="49.30815" lon="0.92809">
        <ele>125.650002</ele>
        <time>2019-01-10T10:41:39Z</time>
      </trkpt>
      <trkpt lat="49.30771" lon="0.92825">
        <ele>126.843124</ele>
        <time>2019-01-10T10:41:47Z</time>
      </trkpt>
      <trkpt lat="49.30708" lon="0.92846">
        <ele>129.066742</ele>
        <time>2019-01-10T10:41:58Z</time>
      </trkpt>
      <trkpt lat="49.30657" lon="0.92863">
        <ele>131.075623</ele>
        <time>2019-01-10T10:42:07Z</time>
      </trkpt>
      <trkpt lat="49.30605" lon="0.92881">
        <ele>133.292496</ele>
        <time>2019-01-10T10:42:16Z</time>
      </trkpt>
      <trkpt lat="49.30549" lon="0.929">
        <ele>135.513641</ele>
        <time>2019-01-10T10:42:26Z</time>
      </trkpt>
      <trkpt lat="49.30496" lon="0.92917">
        <ele>137.211868</ele>
        <time>2019-01-10T10:42:35Z</time>
      </trkpt>
      <trkpt lat="49.30439" lon="0.92936">
        <ele>138.041214</ele>
        <time>2019-01-10T10:42:45Z</time>
      </trkpt>
      <trkpt lat="49.304" lon="0.92949">
        <ele>138.793503</ele>
        <time>2019-01-10T10:42:52Z</time>
      </trkpt>
      <trkpt lat="49.30352" lon="0.92965">
        <ele>139.074249</ele>
        <time>2019-01-10T10:43:01Z</time>
      </trkpt>
      <trkpt lat="49.30347" lon="0.92967">
        <ele>139.195663</ele>
        <time>2019-01-10T10:43:02Z</time>
      </trkpt>
      <trkpt lat="49.30302" lon="0.92982">
        <ele>140.119995</ele>
        <time>2019-01-10T10:43:10Z</time>
      </trkpt>
      <trkpt lat="49.30243" lon="0.93001">
        <ele>141</ele>
        <time>2019-01-10T10:43:20Z</time>
      </trkpt>
      <trkpt lat="49.30191" lon="0.93019">
        <ele>141</ele>
        <time>2019-01-10T10:43:29Z</time>
      </trkpt>
      <trkpt lat="49.30121" lon="0.93042">
        <ele>140.749069</ele>
        <time>2019-01-10T10:43:41Z</time>
      </trkpt>
      <trkpt lat="49.30095" lon="0.93048">
        <ele>140.200897</ele>
        <time>2019-01-10T10:43:46Z</time>
      </trkpt>
      <trkpt lat="49.3009" lon="0.93046">
        <ele>140.132141</ele>
        <time>2019-01-10T10:43:47Z</time>
      </trkpt>
      <trkpt lat="49.30087" lon="0.9304">
        <ele>140.074844</ele>
        <time>2019-01-10T10:43:48Z</time>
      </trkpt>
      <trkpt lat="49.30085" lon="0.93035">
        <ele>140.044998</ele>
        <time>2019-01-10T10:43:49Z</time>
      </trkpt>
      <trkpt lat="49.30084" lon="0.93028">
        <ele>140.014999</ele>
        <time>2019-01-10T10:43:50Z</time>
      </trkpt>
      <trkpt lat="49.30082" lon="0.93011">
        <ele>140</ele>
        <time>2019-01-10T10:43:52Z</time>
      </trkpt>
      <trkpt lat="49.30081" lon="0.93007">
        <ele>140</ele>
        <time>2019-01-10T10:43:53Z</time>
      </trkpt>
      <trkpt lat="49.3008" lon="0.93002">
        <ele>140</ele>
        <time>2019-01-10T10:43:54Z</time>
      </trkpt>
      <trkpt lat="49.30079" lon="0.92997">
        <ele>140</ele>
        <time>2019-01-10T10:43:55Z</time>
      </trkpt>
      <trkpt lat="49.30077" lon="0.92984">
        <ele>140</ele>
        <time>2019-01-10T10:43:56Z</time>
      </trkpt>
      <trkpt lat="49.30038" lon="0.92988">
        <ele>140</ele>
        <time>2019-01-10T10:43:57Z</time>
      </trkpt>
      <trkpt lat="49.29989" lon="0.92997">
        <ele>139.551422</ele>
      </trkpt>
      <trkpt lat="49.29915" lon="0.92926">
        <ele>139.188828</ele>
      </trkpt>
      <trkpt lat="49.29844" lon="0.92865">
        <ele>138</ele>
      </trkpt>
      <trkpt lat="49.29808" lon="0.92838">
        <ele>137.929993</ele>
      </trkpt>
      <trkpt lat="49.29795" lon="0.9284">
        <ele>137.630005</ele>
      </trkpt>
      <trkpt lat="49.29771" lon="0.9288">
        <ele>137.095001</ele>
      </trkpt>
      <trkpt lat="49.2974" lon="0.92885">
        <ele>136.598801</ele>
      </trkpt>
      <trkpt lat="49.29701" lon="0.92821">
        <ele>136.682663</ele>
      </trkpt>
      <trkpt lat="49.29616" lon="0.92734">
        <ele>136.867798</ele>
      </trkpt>
      <trkpt lat="49.29562" lon="0.92734">
        <ele>136.091873</ele>
      </trkpt>
      <trkpt lat="49.29431" lon="0.92771">
        <ele>135</ele>
      </trkpt>
      <trkpt lat="49.29339" lon="0.92793">
        <ele>136.505005</ele>
      </trkpt>
      <trkpt lat="49.29342" lon="0.92581">
        <ele>137.389999</ele>
      </trkpt>
      <trkpt lat="49.29331" lon="0.92469">
        <ele>138.549377</ele>
      </trkpt>
      <trkpt lat="49.29314" lon="0.92406">
        <ele>139</ele>
      </trkpt>
      <trkpt lat="49.29258" lon="0.92439">
        <ele>139.024368</ele>
      </trkpt>
      <trkpt lat="49.29221" lon="0.92464">
        <ele>139</ele>
      </trkpt>
      <trkpt lat="49.29094" lon="0.92543">
        <ele>139.936813</ele>
      </trkpt>
      <trkpt lat="49.29089" lon="0.92514">
        <ele>139.990005</ele>
      </trkpt>
      <trkpt lat="49.29003" lon="0.92352">
        <ele>143.710587</ele>
        <time>2019-01-10T10:44:01Z</time>
      </trkpt>
    </trkseg>
  </trk>
</gpx>